[[{"header":{"parameterUnit":"m.s-1","parameterCategory":1,"la1":30.6,"la2":29.2853,"lo1":-89.7004,"lo2":-87.6739,"dy":0.0162,"dx":0.0183,"nx":112,"ny":82,"refTime":"2023-09-23T06:00:00:Z","depth":0,"parameterNumber":2,"parameterNumberName":"U-component_of_WINDS"},"data":[0.0,0.0,0.0,0.0,0.0,0.0,0.0,0.0,0.0,0.0,0.0,0.0,0.0,0.0,0.0,0.0,0.0,0.0,0.0,0.0,0.0,0.0,0.0,0.0,0.0,0.0,0.0,0.0,0.0,0.0,0.0,0.0,0.0,0.0,0.0,0.0,0.0,0.0,0.0,0.0,0.0,0.0,0.0,0.0,0.0,0.0,0.0,0.0,0.0,0.0,0.0,0.0,0.0,0.0,0.0,0.0,0.0,0.0,0.0,0.0,0.0,0.0,0.0,0.0,0.0,0.0,0.0,0.0,0.0,0.0,0.0,0.0,0.0,0.0,0.0,0.0,0.0,0.0,0.0,0.0,0.0,0.0,0.0,0.0,0.0,0.0,0.0,0.0,0.0,0.0,0.0,-4.425,-4.8623,-5.075,-4.915,-4.8642,-4.6383,-4.1592,0.0,0.0,0.0,0.0,0.0,0.0,0.0,0.0,0.0,0.0,0.0,0.0,0.0,0.0,0.0,0.0,0.0,0.0,0.0,0.0,0.0,0.0,0.0,0.0,0.0,0.0,0.0,0.0,0.0,0.0,0.0,0.0,0.0,0.0,0.0,0.0,0.0,0.0,0.0,0.0,0.0,0.0,0.0,0.0,0.0,0.0,0.0,0.0,0.0,0.0,0.0,0.0,0.0,0.0,0.0,0.0,0.0,0.0,0.0,0.0,0.0,0.0,0.0,0.0,0.0,0.0,0.0,0.0,0.0,0.0,0.0,0.0,0.0,0.0,0.0,0.0,0.0,0.0,0.0,0.0,0.0,0.0,0.0,0.0,0.0,0.0,0.0,0.0,0.0,0.0,0.0,0.0,0.0,0.0,0.0,0.0,0.0,0.0,0.0,0.0,0.0,0.0,0.0,0.0,-4.2873,-4.753,-5.0048,-5.0984,-4.9987,-4.792,-4.5405,-4.2386,0.0,0.0,0.0,0.0,0.0,0.0,0.0,0.0,0.0,0.0,0.0,0.0,0.0,0.0,0.0,0.0,0.0,0.0,0.0,0.0,0.0,0.0,0.0,0.0,0.0,0.0,0.0,0.0,0.0,0.0,0.0,0.0,0.0,0.0,0.0,0.0,0.0,0.0,0.0,0.0,0.0,0.0,0.0,0.0,0.0,0.0,0.0,0.0,0.0,0.0,0.0,0.0,0.0,0.0,0.0,0.0,0.0,0.0,0.0,0.0,0.0,0.0,0.0,0.0,0.0,0.0,0.0,0.0,0.0,0.0,0.0,0.0,0.0,0.0,0.0,0.0,0.0,0.0,0.0,0.0,0.0,0.0,0.0,0.0,0.0,0.0,0.0,0.0,0.0,0.0,0.0,0.0,0.0,0.0,0.0,0.0,0.0,0.0,0.0,0.0,0.0,0.0,0.0,-4.1255,-4.413,-4.8349,-4.995,-5.0163,-4.8855,-4.6807,-4.4293,-4.1233,-4.0229,0.0,0.0,0.0,0.0,0.0,0.0,0.0,0.0,0.0,0.0,0.0,0.0,0.0,0.0,0.0,0.0,0.0,0.0,0.0,0.0,0.0,0.0,0.0,0.0,0.0,0.0,0.0,0.0,0.0,0.0,0.0,0.0,0.0,0.0,0.0,0.0,0.0,0.0,0.0,0.0,0.0,0.0,0.0,0.0,0.0,0.0,0.0,0.0,0.0,0.0,0.0,0.0,0.0,0.0,0.0,0.0,0.0,0.0,0.0,0.0,0.0,0.0,0.0,0.0,0.0,0.0,0.0,0.0,0.0,0.0,0.0,0.0,0.0,0.0,0.0,0.0,0.0,0.0,0.0,0.0,0.0,0.0,0.0,0.0,0.0,0.0,0.0,0.0,0.0,0.0,0.0,0.0,0.0,0.0,0.0,0.0,0.0,0.0,0.0,0.0,0.0,0.0,-4.3468,-4.5425,-4.8452,-4.9573,-4.9343,-4.745,-4.5695,-4.3315,-4.008,-3.8696,0.0,0.0,0.0,0.0,0.0,0.0,0.0,0.0,0.0,0.0,0.0,0.0,0.0,0.0,0.0,0.0,0.0,0.0,0.0,0.0,0.0,0.0,0.0,0.0,0.0,0.0,0.0,0.0,0.0,0.0,0.0,0.0,0.0,0.0,0.0,0.0,0.0,0.0,0.0,0.0,0.0,0.0,0.0,0.0,0.0,0.0,0.0,0.0,0.0,0.0,0.0,0.0,0.0,0.0,0.0,0.0,0.0,0.0,0.0,0.0,0.0,0.0,0.0,0.0,0.0,0.0,0.0,0.0,0.0,0.0,0.0,0.0,0.0,0.0,0.0,0.0,0.0,0.0,0.0,0.0,0.0,0.0,0.0,0.0,0.0,0.0,0.0,0.0,0.0,0.0,0.0,0.0,0.0,0.0,0.0,0.0,0.0,0.0,0.0,0.0,0.0,0.0,-4.4389,-4.6644,-4.8509,-4.9533,-4.9089,-4.6593,-4.4797,-4.265,-3.9976,-3.7524,0.0,0.0,0.0,0.0,0.0,0.0,0.0,0.0,0.0,0.0,0.0,0.0,0.0,0.0,0.0,0.0,0.0,0.0,0.0,0.0,0.0,0.0,0.0,0.0,0.0,0.0,0.0,0.0,0.0,0.0,0.0,0.0,0.0,0.0,0.0,0.0,0.0,0.0,0.0,0.0,0.0,0.0,0.0,0.0,0.0,0.0,0.0,0.0,0.0,0.0,0.0,0.0,0.0,0.0,0.0,0.0,0.0,0.0,0.0,0.0,0.0,0.0,0.0,0.0,0.0,0.0,0.0,0.0,0.0,0.0,0.0,0.0,0.0,0.0,0.0,0.0,0.0,0.0,0.0,0.0,0.0,0.0,0.0,0.0,0.0,0.0,0.0,0.0,0.0,0.0,0.0,0.0,0.0,0.0,0.0,0.0,0.0,0.0,0.0,0.0,0.0,0.0,-4.3059,-4.5026,0.0,-4.7302,-4.6707,-4.4678,-4.2889,-4.1033,-3.9053,0.0,0.0,0.0,0.0,0.0,0.0,0.0,0.0,0.0,0.0,0.0,0.0,0.0,0.0,0.0,0.0,0.0,0.0,0.0,0.0,0.0,0.0,0.0,0.0,0.0,0.0,0.0,0.0,0.0,0.0,0.0,0.0,0.0,0.0,0.0,0.0,0.0,0.0,0.0,0.0,0.0,0.0,0.0,0.0,0.0,0.0,0.0,0.0,0.0,0.0,0.0,0.0,0.0,0.0,0.0,0.0,0.0,0.0,0.0,0.0,0.0,0.0,0.0,0.0,0.0,0.0,0.0,0.0,0.0,0.0,0.0,0.0,0.0,0.0,0.0,0.0,0.0,0.0,0.0,0.0,0.0,0.0,0.0,0.0,0.0,0.0,0.0,0.0,0.0,0.0,0.0,0.0,0.0,0.0,0.0,0.0,0.0,0.0,0.0,0.0,0.0,0.0,-3.97,-4.1755,-4.3387,0.0,-4.5348,-4.4744,-4.2738,-4.1247,-3.9731,-3.8082,0.0,0.0,0.0,0.0,0.0,0.0,0.0,0.0,0.0,0.0,0.0,0.0,0.0,0.0,0.0,0.0,0.0,0.0,0.0,0.0,0.0,0.0,0.0,0.0,0.0,0.0,0.0,0.0,0.0,0.0,0.0,0.0,0.0,0.0,0.0,0.0,0.0,0.0,0.0,0.0,0.0,0.0,0.0,0.0,0.0,0.0,0.0,0.0,0.0,0.0,0.0,0.0,0.0,0.0,0.0,0.0,0.0,0.0,0.0,0.0,0.0,0.0,0.0,0.0,0.0,0.0,0.0,0.0,0.0,0.0,0.0,0.0,0.0,0.0,0.0,0.0,0.0,0.0,0.0,0.0,0.0,0.0,0.0,0.0,0.0,0.0,0.0,0.0,0.0,0.0,0.0,0.0,0.0,0.0,0.0,0.0,0.0,0.0,0.0,0.0,0.0,0.0,-3.8744,-4.0694,-4.2119,-4.2995,-4.3962,-4.3548,-4.1,-4.0043,-3.8867,0.0,0.0,0.0,0.0,0.0,0.0,0.0,0.0,0.0,0.0,0.0,0.0,0.0,0.0,0.0,0.0,0.0,0.0,0.0,0.0,0.0,0.0,0.0,0.0,0.0,0.0,0.0,0.0,0.0,0.0,0.0,0.0,0.0,0.0,0.0,0.0,0.0,0.0,0.0,0.0,0.0,0.0,0.0,0.0,0.0,0.0,0.0,0.0,0.0,0.0,0.0,0.0,0.0,0.0,0.0,0.0,0.0,0.0,0.0,0.0,0.0,0.0,0.0,0.0,0.0,0.0,0.0,0.0,0.0,0.0,0.0,0.0,0.0,0.0,0.0,0.0,0.0,0.0,0.0,0.0,0.0,0.0,0.0,0.0,0.0,0.0,0.0,0.0,0.0,0.0,0.0,0.0,0.0,0.0,0.0,0.0,0.0,0.0,0.0,0.0,0.0,0.0,0.0,-3.7795,-3.9657,-4.1082,-4.1946,-4.2354,-4.1744,-3.9772,-3.8866,-3.7977,-3.6948,0.0,0.0,0.0,0.0,0.0,0.0,0.0,0.0,0.0,0.0,0.0,0.0,0.0,0.0,0.0,0.0,0.0,0.0,0.0,0.0,0.0,0.0,0.0,0.0,0.0,0.0,0.0,0.0,0.0,0.0,0.0,0.0,0.0,0.0,0.0,0.0,0.0,0.0,0.0,0.0,0.0,0.0,0.0,0.0,0.0,0.0,0.0,0.0,0.0,0.0,0.0,0.0,0.0,0.0,0.0,0.0,0.0,0.0,0.0,0.0,0.0,0.0,0.0,0.0,0.0,0.0,0.0,0.0,0.0,0.0,0.0,0.0,0.0,0.0,0.0,0.0,0.0,0.0,0.0,0.0,0.0,0.0,0.0,0.0,0.0,0.0,0.0,0.0,0.0,0.0,0.0,0.0,0.0,0.0,0.0,0.0,0.0,0.0,0.0,0.0,0.0,0.0,-3.6901,-3.8345,-3.9518,-4.0462,-4.0612,-3.9949,-3.8205,-3.7647,-3.706,-3.6324,0.0,0.0,0.0,0.0,0.0,0.0,0.0,0.0,0.0,0.0,0.0,0.0,0.0,0.0,0.0,0.0,0.0,0.0,0.0,0.0,0.0,0.0,0.0,0.0,0.0,0.0,0.0,0.0,0.0,0.0,0.0,0.0,0.0,0.0,0.0,0.0,0.0,0.0,0.0,0.0,0.0,0.0,0.0,0.0,0.0,0.0,0.0,0.0,0.0,0.0,0.0,0.0,0.0,0.0,0.0,0.0,0.0,0.0,0.0,0.0,0.0,0.0,0.0,0.0,0.0,0.0,0.0,0.0,0.0,0.0,0.0,0.0,0.0,0.0,0.0,0.0,0.0,0.0,0.0,0.0,0.0,0.0,0.0,0.0,0.0,0.0,0.0,0.0,0.0,0.0,0.0,0.0,0.0,0.0,0.0,0.0,0.0,0.0,0.0,0.0,0.0,0.0,-3.6105,-3.691,-3.7688,-3.8804,-3.8907,-3.8235,-3.6583,-3.6482,-3.6213,-3.5483,0.0,0.0,0.0,0.0,0.0,0.0,0.0,0.0,0.0,0.0,0.0,0.0,0.0,0.0,0.0,0.0,0.0,0.0,0.0,0.0,0.0,0.0,0.0,0.0,0.0,0.0,0.0,0.0,0.0,0.0,0.0,0.0,0.0,0.0,0.0,0.0,0.0,0.0,0.0,0.0,0.0,0.0,0.0,0.0,0.0,0.0,0.0,0.0,0.0,0.0,0.0,0.0,0.0,0.0,0.0,0.0,0.0,0.0,0.0,0.0,-3.9295,0.0,0.0,0.0,0.0,0.0,0.0,0.0,0.0,0.0,0.0,0.0,0.0,0.0,0.0,0.0,0.0,0.0,0.0,0.0,0.0,0.0,0.0,0.0,0.0,0.0,0.0,0.0,0.0,0.0,0.0,0.0,0.0,0.0,0.0,0.0,0.0,0.0,0.0,0.0,0.0,0.0,-3.5856,-3.6151,-3.6723,-3.8286,-3.7848,-3.7047,-3.6025,-3.596,-3.5712,-3.506,-3.426,0.0,0.0,0.0,0.0,0.0,0.0,0.0,0.0,0.0,0.0,0.0,0.0,0.0,0.0,0.0,0.0,0.0,0.0,0.0,0.0,0.0,0.0,0.0,0.0,0.0,0.0,0.0,0.0,0.0,0.0,0.0,0.0,0.0,0.0,0.0,0.0,0.0,0.0,0.0,0.0,0.0,0.0,0.0,0.0,0.0,0.0,0.0,0.0,0.0,0.0,0.0,0.0,0.0,0.0,0.0,0.0,0.0,0.0,0.0,0.0,-3.9489,0.0,0.0,0.0,0.0,0.0,0.0,0.0,0.0,0.0,0.0,0.0,0.0,0.0,0.0,0.0,0.0,0.0,0.0,0.0,0.0,0.0,0.0,0.0,0.0,0.0,0.0,0.0,0.0,0.0,0.0,0.0,0.0,0.0,0.0,0.0,0.0,0.0,0.0,0.0,0.0,-3.5526,-3.5656,-3.6036,-3.7428,-3.6834,-3.6002,-3.5207,-3.5109,-3.4958,-3.4675,-3.3863,0.0,0.0,0.0,0.0,0.0,0.0,0.0,0.0,0.0,0.0,0.0,0.0,0.0,0.0,0.0,0.0,0.0,0.0,0.0,0.0,0.0,0.0,0.0,0.0,0.0,0.0,0.0,0.0,0.0,0.0,0.0,0.0,0.0,0.0,0.0,0.0,0.0,0.0,0.0,0.0,0.0,0.0,0.0,0.0,0.0,0.0,0.0,0.0,0.0,0.0,0.0,0.0,0.0,-4.3012,-4.3523,-4.3412,-4.3285,-4.3209,-4.3093,-4.1017,-4.0156,-4.0244,0.0,0.0,0.0,0.0,0.0,0.0,0.0,0.0,0.0,0.0,0.0,0.0,0.0,0.0,0.0,0.0,0.0,0.0,0.0,0.0,0.0,0.0,0.0,0.0,0.0,-3.4905,-3.446,0.0,0.0,0.0,0.0,0.0,0.0,0.0,0.0,0.0,0.0,0.0,0.0,-3.4799,-3.4878,-3.5103,-3.6137,-3.5659,-3.4982,-3.4328,-3.4206,-3.4162,-3.4117,-3.3459,-3.2713,0.0,0.0,0.0,0.0,0.0,0.0,0.0,0.0,0.0,0.0,0.0,0.0,0.0,0.0,0.0,0.0,0.0,0.0,0.0,0.0,0.0,0.0,0.0,0.0,0.0,0.0,0.0,0.0,0.0,0.0,0.0,0.0,-3.09,-3.1541,0.0,0.0,0.0,0.0,0.0,0.0,0.0,0.0,0.0,0.0,0.0,0.0,0.0,0.0,-4.1857,-4.2749,-4.3418,-4.3827,-4.4624,-4.4766,-4.43,-4.3602,-4.3405,-4.355,-4.2559,0.0,-4.1594,-4.1148,0.0,0.0,0.0,0.0,0.0,0.0,0.0,0.0,0.0,0.0,0.0,0.0,0.0,0.0,0.0,0.0,0.0,0.0,0.0,0.0,0.0,0.0,-3.4517,-3.4639,-3.4128,-3.3476,0.0,-3.329,-3.329,-3.1837,0.0,0.0,0.0,0.0,0.0,0.0,0.0,0.0,-3.2938,-3.2941,-3.3099,-3.3932,-3.3932,-3.3822,-3.3712,-3.3712,-3.3508,-3.3037,-3.2901,-3.2562,-3.1936,-3.1151,0.0,0.0,0.0,0.0,0.0,0.0,0.0,0.0,0.0,0.0,0.0,0.0,0.0,0.0,0.0,0.0,0.0,0.0,0.0,0.0,0.0,0.0,0.0,0.0,0.0,0.0,0.0,0.0,0.0,-3.0692,-3.2121,-3.1492,-3.3024,-3.3582,0.0,0.0,0.0,0.0,0.0,0.0,0.0,0.0,0.0,-3.8968,-4.0924,-4.1893,-4.1737,-4.3593,-4.4425,-4.4216,-4.524,-4.563,-4.5387,-4.5011,-4.4929,-4.5014,-4.4699,-4.4165,-4.3476,-4.1984,-4.0687,-3.9588,0.0,0.0,0.0,0.0,0.0,-3.8554,-3.8112,-3.8193,0.0,0.0,0.0,0.0,0.0,0.0,0.0,0.0,0.0,0.0,0.0,0.0,0.0,-3.5183,-3.4743,-3.3963,-3.3145,-3.3072,-3.2861,0.0,-3.1697,-3.1356,-3.0018,0.0,0.0,0.0,0.0,0.0,-3.2311,-3.1982,-3.1929,-3.2732,-3.2405,-3.216,-3.2183,-3.216,-3.2051,-3.1871,-3.1388,-3.1004,-3.0734,-3.0091,-2.9695,0.0,0.0,0.0,0.0,0.0,0.0,0.0,0.0,0.0,0.0,0.0,0.0,0.0,0.0,0.0,0.0,0.0,0.0,0.0,0.0,0.0,0.0,0.0,0.0,0.0,0.0,0.0,0.0,-3.1908,-3.3187,-3.141,-3.3894,-3.4727,0.0,0.0,0.0,0.0,0.0,0.0,-3.7504,-3.8895,-3.9829,-4.0261,-4.2156,-4.2894,-4.2269,-4.4267,-4.5105,-4.468,-4.5638,-4.6024,-4.5918,-4.5918,-4.5843,-4.5734,-4.5734,-4.5378,-4.4682,-4.2882,-4.1357,-4.0086,-3.9194,-3.851,-3.802,-3.7809,-3.8023,-3.8315,-3.7734,-3.7734,-3.7699,-3.5964,0.0,-3.3125,-3.1689,0.0,0.0,0.0,0.0,-3.1576,-3.338,-3.3997,-3.4294,-3.5015,-3.4768,-3.399,-3.2677,-3.215,-3.1862,0.0,-3.1633,-3.1218,-2.9804,0.0,0.0,0.0,0.0,-2.9872,-3.1061,-3.0912,-3.0926,-3.151,-3.122,-3.0985,-3.0953,-3.0898,-3.0766,-3.0549,-2.9922,-2.948,-2.9265,-2.8886,-2.8597,-2.8448,0.0,0.0,0.0,0.0,0.0,0.0,0.0,0.0,0.0,0.0,0.0,0.0,0.0,0.0,0.0,0.0,0.0,0.0,0.0,0.0,0.0,0.0,0.0,0.0,0.0,0.0,0.0,0.0,0.0,-3.1509,-3.4925,0.0,0.0,0.0,0.0,-3.6052,-3.7113,-3.8208,-3.929,-4.0115,-4.1038,-4.2119,-4.2956,-4.3956,-4.5078,-4.5225,-4.5545,-4.5996,-4.6074,-4.5825,-4.5329,-4.5329,-4.5115,-4.4682,-4.4682,-4.4648,-4.4578,-4.3885,-4.3164,-4.2374,-4.0864,-4.031,-4.0253,-3.9476,-3.9222,-3.9214,-3.9046,-3.8573,-3.7988,-3.7857,-3.5826,-3.3212,-3.2249,-3.1429,0.0,0.0,-3.1274,-3.2528,-3.3035,-3.3661,-3.403,-3.3388,-3.3225,-3.2677,-3.0825,-3.0408,-3.0651,0.0,-3.0699,-2.9935,-2.9962,0.0,-2.7827,-2.7827,-2.8021,-2.8219,-2.829,-2.9228,-2.9875,-2.9911,-3.0581,-3.087,-3.0563,-3.0534,-3.008,-2.9072,-2.8969,-2.8602,-2.7848,-2.7774,-2.7757,-2.776,-2.7616,0.0,0.0,0.0,0.0,0.0,0.0,0.0,0.0,0.0,0.0,0.0,0.0,0.0,0.0,0.0,0.0,0.0,0.0,0.0,0.0,0.0,0.0,0.0,0.0,0.0,0.0,0.0,0.0,-3.4673,-3.7517,0.0,-3.5975,-3.6552,-3.7352,-3.7972,-3.8822,-3.9897,-4.1231,-4.1988,-4.2836,-4.3752,-4.4502,-4.4857,-4.4852,-4.5778,-4.5873,-4.5133,-4.5603,-4.5504,-4.4852,-4.4852,-4.4759,-4.4581,-4.4045,-4.3826,-4.3768,-4.3082,-4.2663,-4.2287,-4.0783,-3.9935,-3.9434,-3.8666,-3.8706,-3.902,-3.8411,-3.8018,-3.7557,-3.6059,-3.481,-3.3764,-3.2859,-3.2056,-3.161,-3.232,-3.2579,-3.2892,-3.3966,-3.4436,-3.4336,-3.3129,-3.2497,-3.1686,-3.0084,-2.937,-2.9173,-2.9536,-2.9695,-2.9565,-2.8832,-2.8473,-2.8106,-2.7572,-2.7589,-2.7648,-2.7648,-2.7994,-2.8258,-2.833,-2.8578,-2.8741,-2.8703,-2.8703,-2.8535,-2.8152,-2.8137,-2.7949,-2.7592,-2.7574,-2.7545,-2.7502,-2.7238,-2.6842,0.0,0.0,0.0,0.0,0.0,0.0,0.0,0.0,0.0,0.0,0.0,0.0,0.0,0.0,0.0,0.0,0.0,0.0,0.0,0.0,0.0,0.0,0.0,0.0,0.0,0.0,-3.7535,-3.6768,-3.9456,-4.0478,-3.8128,-3.8639,-3.9489,-4.0349,-4.0898,-4.188,-4.3369,-4.3673,-4.4045,-4.4581,-4.506,-4.5077,-4.4615,-4.5579,-4.5579,-4.4615,-4.5094,-4.4925,-4.4198,-4.4198,-4.4045,-4.3802,-4.3213,-4.2966,-4.2932,-4.2399,-4.2169,-4.2039,-4.0855,-4.0103,-3.9581,-3.8816,-3.8807,-3.9093,-3.8011,-3.7484,-3.6965,-3.5174,-3.4398,-3.4074,-3.3462,-3.2773,-3.2352,-3.3188,-3.3265,-3.3315,-3.427,-3.4336,-3.3839,-3.2613,-3.1586,-3.0456,-2.9019,-2.8343,-2.798,-2.7753,-2.8402,-2.875,-2.8015,-2.7895,-2.7716,-2.7169,-2.7178,-2.7239,-2.7239,-2.7332,-2.7424,-2.7467,-2.7467,-2.747,-2.7426,-2.7474,-2.7446,-2.7307,-2.708,-2.6909,-2.6797,-2.6554,-2.6402,-2.6358,-2.6074,-2.5907,-2.5826,0.0,0.0,0.0,0.0,0.0,0.0,0.0,0.0,0.0,0.0,0.0,0.0,0.0,0.0,0.0,0.0,0.0,0.0,0.0,0.0,0.0,0.0,0.0,-3.3858,-3.668,-3.8286,-3.7611,-4.0611,-4.1677,-3.8955,-4.0795,-4.2482,-4.3239,-4.3411,-4.4136,-4.5635,-4.501,-4.4632,-4.4615,-4.4615,-4.4615,-4.4615,-4.4632,-4.4632,-4.4615,-4.4632,-4.4198,-4.3426,-4.3426,-4.302,-4.2293,-4.2159,-4.2088,-4.2072,-4.1886,-4.1831,-4.1797,-4.1227,-4.099,-4.0889,-4.0003,-3.969,-3.9486,-3.8011,-3.7014,-3.6303,-3.5525,-3.4799,-3.4169,-3.4045,-3.3461,-3.2851,-3.2762,-3.322,-3.3733,-3.3733,-3.321,-3.2464,-3.1681,-3.0406,-2.8986,-2.7564,-2.7265,-2.705,-2.6334,-2.6839,-2.7396,-2.7523,-2.6971,-2.6485,-2.6485,-2.6725,0.0,-2.6888,-2.7161,-2.7363,-2.738,-2.738,-2.7239,-2.6904,-2.7004,-2.6908,-2.652,-2.5866,-2.5479,-2.543,-2.4726,-2.4324,-2.4341,-2.4213,-2.4464,-2.5092,0.0,0.0,0.0,0.0,0.0,0.0,0.0,0.0,0.0,0.0,0.0,0.0,0.0,0.0,0.0,0.0,0.0,0.0,0.0,0.0,0.0,0.0,-3.383,-3.5409,-3.7613,-3.9388,-4.0254,-4.2149,-4.3285,-4.3165,-4.3739,-4.4537,-4.5526,-4.5635,-4.5672,-4.5703,-4.5517,-4.5145,-4.4632,-4.4615,-4.4615,-4.4615,-4.5128,-4.5128,-4.4615,-4.4997,-4.4788,-4.4063,-4.395,-4.3491,-4.278,-4.2204,-4.1657,-4.1104,-4.0524,-4.0306,-4.034,-4.0712,-4.0846,-4.0756,-4.0,-3.9654,-3.9325,-3.787,-3.7145,-3.6713,-3.5433,-3.4607,-3.4105,-3.4064,-3.325,-3.2423,-3.2919,-3.2757,-3.2427,-3.2427,-3.2157,-3.147,-2.9698,-2.8973,-2.8274,-2.6816,-2.6501,-2.6452,-2.6235,-2.6387,-2.6538,-2.6573,-2.6424,-2.6274,-2.6274,-2.6346,0.0,-2.6399,-2.6469,-2.6555,-2.659,-2.6607,-2.6607,-2.6606,-2.664,-2.6623,-2.6502,-2.5832,-2.5615,-2.6031,-2.533,-2.5028,-2.5173,-2.512,-2.507,0.0,0.0,0.0,0.0,0.0,0.0,0.0,0.0,0.0,0.0,0.0,0.0,0.0,0.0,0.0,0.0,0.0,0.0,0.0,0.0,0.0,0.0,-3.3424,-3.5627,-3.6937,-3.8435,-3.9911,-4.1341,-4.2491,-4.3485,-4.4331,-4.469,-4.5433,-4.6692,-4.6566,-4.6438,-4.6426,-4.5837,-4.5281,-4.4843,-4.4569,-4.44,-4.44,-4.481,-4.481,-4.44,-4.4707,-4.4464,-4.3754,-4.3685,-4.3243,0.0,-4.2022,-4.1222,-4.0255,-3.9753,-3.9227,0.0,0.0,0.0,0.0,0.0,-3.8717,-3.7989,-3.6861,-3.6215,-3.5704,-3.4551,-3.3977,-3.3723,-3.3723,-3.3179,-3.254,-3.2402,-3.201,-3.1478,-3.0955,-3.0273,-2.9398,-2.816,-2.7375,-2.6707,-2.584,-2.5661,-2.5642,-2.5589,0.0,0.0,-2.5589,-2.5917,-2.6202,-2.6202,-2.6202,-2.6202,-2.6202,-2.6202,-2.6203,-2.6241,-2.6276,-2.6206,-2.61,-2.6118,0.0,0.0,0.0,-2.4816,-2.4792,-2.4383,0.0,0.0,0.0,-2.4741,-2.4808,0.0,0.0,0.0,-2.639,-2.7174,0.0,0.0,0.0,0.0,0.0,0.0,0.0,0.0,0.0,0.0,0.0,0.0,0.0,0.0,0.0,0.0,-3.4919,-3.7011,-3.8317,-3.9089,-3.997,-4.1248,-4.1962,-4.2708,-4.3509,-4.4221,-4.5261,-4.6725,-4.6402,-4.6381,-4.701,0.0,0.0,0.0,0.0,-4.3794,-4.386,-4.3794,-4.3794,-4.386,-4.3831,-4.3448,-4.276,-4.2732,-4.2299,-4.1522,-4.1399,-4.0569,-3.932,-3.9205,-3.8485,-3.7517,-3.8788,-3.9255,-3.9175,-3.8463,-3.7416,0.0,0.0,0.0,0.0,-3.3419,-3.313,-3.3093,-3.3093,-3.2914,-3.2484,-3.131,-3.0856,-3.044,-2.9238,-2.7923,-2.6904,-2.6841,-2.5819,-2.4863,-2.4863,-2.4863,-2.4843,-2.4712,-2.4788,-2.4843,-2.4712,-2.5441,-2.6043,-2.6043,-2.6043,-2.6043,-2.6043,-2.6043,-2.6043,-2.6043,0.0,0.0,-2.5465,-2.5538,-2.5422,-2.4922,-2.4391,-2.3689,-2.2815,-2.2862,-2.3208,-2.3802,-2.369,-2.3928,-2.4552,-2.4486,-2.4761,-2.5364,-2.5513,-2.6369,0.0,0.0,0.0,0.0,0.0,0.0,0.0,0.0,0.0,0.0,0.0,0.0,0.0,0.0,0.0,-3.4248,-3.5989,-3.7496,-3.9,-3.9322,-3.9743,-4.0585,-4.1286,-4.2002,-4.2757,-4.2949,-4.3465,-4.4537,-4.4955,-4.5021,-4.4752,-4.4478,0.0,-4.3428,-4.2232,-4.1876,-4.241,-4.1861,-4.1861,-4.2379,0.0,0.0,-4.1224,-4.1067,-4.03,-3.9161,-3.9131,-3.8642,-3.7825,-3.7796,-3.7628,-3.7429,-3.7693,-3.7809,-3.778,-3.7618,-3.706,-3.6279,-3.5537,-3.4853,-3.4157,-3.3446,-3.2799,-3.2308,-3.2308,-3.1189,0.0,-2.9579,-2.8697,-2.7617,-2.678,-2.6218,-2.5754,-2.5216,-2.4887,-2.4664,-2.4664,-2.4664,-2.4643,-2.4623,-2.4643,-2.4643,-2.4623,-2.4922,-2.5153,-2.5153,-2.5153,-2.5153,-2.5153,-2.5153,-2.5153,-2.5153,-2.5153,-2.5098,-2.502,-2.504,-2.5001,-2.4902,-2.4682,-2.419,-2.3366,-2.392,-2.412,-2.3891,-2.387,-2.3743,-2.3573,-2.3566,-2.3888,-2.4544,-2.4718,-2.5836,0.0,0.0,0.0,0.0,0.0,0.0,0.0,0.0,0.0,0.0,0.0,-2.9954,0.0,0.0,-3.4003,-3.571,-3.7089,-3.8204,-3.8979,-3.8894,-3.9071,-3.9834,-4.0541,-4.1372,-4.2443,-4.2853,-4.3564,-4.4767,-4.5116,-4.5199,-4.4935,-4.4236,-4.3695,-4.3311,-4.1978,-4.1405,-4.1755,-4.1405,-4.1421,-4.1755,-4.1657,-4.145,-4.1133,-4.0705,-4.0135,-3.947,-3.9153,-3.8431,-3.7404,-3.6615,-3.6259,-3.615,-3.615,-3.6461,-3.6859,-3.6514,-3.6008,-3.529,-3.4274,-3.3646,-3.319,-3.2471,-3.1949,-3.1549,-3.1189,-3.0158,-2.8906,-2.7918,-2.6936,-2.591,-2.4859,-2.4512,-2.4359,-2.4034,-2.3943,-2.3943,-2.3943,-2.3943,-2.3937,-2.3852,-2.3894,-2.3937,-2.3852,-2.4,-2.4256,-2.4684,-2.4744,-2.4744,-2.4744,-2.4744,-2.4744,-2.4744,-2.4744,-2.4664,-2.4405,-2.4214,-2.409,-2.409,-2.4048,-2.3833,-2.3415,-2.3755,-2.3852,-2.3595,-2.3523,-2.3407,-2.3201,-2.3135,-2.3434,-2.4086,-2.3865,-2.4678,0.0,0.0,0.0,0.0,0.0,0.0,0.0,0.0,-2.8268,-2.9929,-3.1231,-3.2496,-3.3756,-3.5007,-3.605,-3.6819,-3.7958,-3.876,-3.8782,-3.836,-3.8332,-3.9026,-3.9538,-4.0248,-4.1418,-4.2215,-4.3131,-4.4189,-4.4632,-4.4804,-4.4664,-4.3599,-4.2989,-4.2989,-4.1609,-4.0953,-4.1093,-4.0953,-4.0953,-4.1093,-4.1093,-4.0953,-4.0638,-4.0092,-3.9718,-3.9389,-3.8842,-3.8011,-3.6882,-3.5669,-3.5034,-3.4902,-3.4902,-3.5397,-3.6041,-3.5507,-3.4832,-3.4034,-3.2975,-3.2362,-3.199,-3.1441,-3.1146,-3.0925,-3.0248,-2.9469,-2.8456,-2.6633,-2.5575,-2.4746,-2.354,-2.3209,-2.3209,-2.3209,-2.3209,-2.3209,-2.3209,-2.3209,-2.3201,-2.3082,-2.3157,-2.3201,-2.3082,-2.3157,-2.348,-2.4235,-2.4359,-2.4359,-2.4359,-2.4359,-2.4359,-2.4359,-2.4359,-2.4194,-2.3815,-2.3501,-2.3297,-2.3253,-2.3253,-2.3253,-2.3209,-2.3209,-2.3209,-2.3209,-2.3127,-2.306,-2.306,-2.2947,-2.3163,-2.3679,-2.3043,-2.356,-2.1835,-2.2877,-2.371,-2.376,-2.4925,-2.6401,0.0,0.0,-3.0249,-3.1002,-3.1851,-3.282,-3.4099,-3.4961,-3.5904,-3.7293,-3.8099,-3.859,-3.8782,-3.8288,-3.7969,-3.8043,-3.7868,-3.7813,-3.7976,-3.9133,-3.9694,-3.9259,-4.0872,-4.1625,-4.1038,-4.0835,-4.0745,-4.0745,-3.9435,-3.9028,-3.9646,-3.9028,-3.9043,-3.961,-3.961,-3.8958,-3.7678,-3.7588,-3.6813,-3.5514,-3.5454,-3.5314,-3.5189,-3.4997,-3.4935,-3.4902,-3.4902,-3.4953,-3.5052,-3.4963,-3.4191,-3.3155,-3.3022,-3.2179,-3.1205,-3.1132,-3.0984,-3.0704,-3.0119,-2.8966,-2.7576,-2.6221,-2.497,-2.388,-2.3144,-2.2933,-2.2933,-2.2933,-2.2933,-2.2933,-2.2933,-2.2933,-2.2933,-2.2925,-2.2933,-2.2933,-2.291,-2.2933,-2.3068,-2.3392,-2.3436,-2.3436,-2.3436,-2.3436,-2.3436,-2.3436,-2.3436,-2.3414,-2.337,-2.3319,-2.3246,-2.3127,-2.3127,-2.3082,-2.2955,-2.2933,-2.2933,-2.2933,-2.2925,-2.2925,-2.2925,-2.2925,-2.29,-2.291,-2.2366,-2.3084,-2.3096,-2.3238,-2.3324,0.0,-2.5278,-2.6391,-2.767,-2.8672,-2.9887,-3.1833,-3.3114,-3.4291,-3.5817,-3.6591,-3.7223,0.0,-3.8154,-3.8235,-3.7945,-3.7455,-3.7019,-3.6623,-3.6212,-3.6393,-3.7584,-3.8207,-3.8712,-3.9172,-4.001,-4.053,-4.0626,-4.027,-3.9884,-3.9483,-3.8934,-3.8593,-3.8534,-3.8593,-3.8771,-3.9068,-3.9068,-3.8735,-3.8115,-3.7375,-3.6241,-3.4902,-3.4902,-3.4883,-3.4783,-3.4783,-3.4716,-3.4601,-3.4601,-3.4382,-3.4069,-3.385,-3.3475,-3.2901,-3.2149,-3.147,-3.0866,-3.0514,-3.0529,-3.041,-2.9027,-2.8186,-2.7434,-2.6155,-2.5139,-2.436,-2.4085,-2.3751,-2.3476,-2.3476,-2.3186,-2.2902,-2.2849,-2.2826,-2.2826,-2.2729,-2.2729,-2.2729,-2.2729,-2.2729,-2.2775,-2.2873,-2.2986,-2.3068,-2.3068,-2.3068,-2.3068,-2.3068,-2.3068,-2.3068,-2.3068,-2.3068,-2.3045,-2.2992,-2.2992,-2.2843,-2.2509,-2.2417,-2.224,-2.1921,-2.1837,-2.1789,-2.1789,-2.1789,-2.1779,-2.1746,-2.1516,-2.1849,-2.3361,-2.3394,0.0,-2.4679,-2.572,-2.6732,-2.7666,-2.8497,-2.9619,-3.1546,-3.2997,-3.4344,-3.5869,-3.6603,-3.7209,-3.786,-3.7955,-3.7796,-3.736,-3.6844,-3.6295,-3.5623,-3.5083,-3.5326,-3.6784,-3.7346,-3.7933,-3.8671,-3.907,-3.9409,-3.9719,-3.9276,-3.8767,-3.8302,-3.8288,-3.8081,-3.7638,-3.8081,-3.8288,-3.8288,-3.8288,-3.8163,-3.792,-3.6726,-3.5678,-3.4754,-3.4578,-3.4541,-3.4616,-3.4441,-3.4355,-3.4298,-3.411,-3.3694,-3.3028,-3.2251,-3.2117,-3.2217,-3.1278,-3.0748,-3.0323,-2.9508,-2.9593,-2.9662,-2.7669,-2.7073,-2.6803,-2.5514,-2.4807,-2.4385,-2.4255,-2.3872,-2.3532,-2.3532,-2.3065,-2.2564,-2.2522,-2.2419,-2.2268,-2.217,-2.217,-2.217,-2.217,-2.217,-2.217,-2.217,-2.2287,-2.2543,-2.302,-2.3062,-2.2998,-2.2843,-2.2687,-2.2611,-2.2611,-2.2611,-2.2611,-2.2611,-2.2758,-2.2592,-2.2114,-2.2018,-2.168,-2.1164,-2.1066,-2.0993,-2.0993,-2.0993,-2.0993,-2.0944,-2.0795,-2.0696,-2.1681,-2.3071,-2.4755,-2.4791,-2.6384,-2.8017,-2.8232,-2.9315,-3.0112,-2.9685,-3.065,-3.1919,-3.3051,-3.3661,-3.4741,-3.6967,-3.7331,-3.7331,-3.7302,-3.6736,-3.6069,-3.5465,-3.484,-3.4428,0.0,-3.5986,-3.6694,-3.6055,-3.7205,-3.7683,-3.7048,-3.7004,-3.6974,-3.696,-3.696,-3.6945,-3.693,-3.6945,-3.696,-3.696,-3.696,-3.6531,-3.5756,-3.4879,-3.4443,-3.437,-3.3794,-3.3881,-3.437,-3.3779,-3.3748,-3.407,-3.3451,-3.2832,-3.1983,-3.0034,-2.9896,-3.0656,-3.0627,-3.0205,-2.9421,-2.8034,-2.8024,-2.817,-2.6113,-2.5483,-2.5199,-2.3923,-2.3563,-2.3416,-2.2831,-2.2658,-2.2658,-2.2658,-2.2232,-2.1832,-2.1832,-2.1417,-2.1066,-2.1066,-2.1066,-2.1066,-2.1066,-2.1066,-2.1066,-2.1066,-2.1066,-2.1635,-2.3274,-2.349,-2.3249,-2.2684,-2.2139,-2.1832,-2.1832,-2.1832,-2.1832,-2.1832,-2.2312,-2.2379,-2.1833,-2.1806,-2.154,-2.1031,-2.0993,-2.0993,-2.0993,-2.0993,-2.0919,-2.0795,-2.027,-1.9965,-2.3176,-2.422,-2.5382,-2.6456,-2.7264,-2.7917,-2.8358,-2.876,-2.9141,-2.9276,-2.9439,-2.9757,-3.0392,-3.1861,-3.3339,-3.4519,-3.6158,-3.7143,-3.6707,-3.6838,-3.6417,-3.4907,-3.4444,0.0,0.0,0.0,0.0,-3.555,-3.5974,-3.631,-3.6499,-3.6514,-3.6324,-3.5936,-3.6295,-3.631,-3.5921,-3.6295,-3.6514,-3.6514,-3.6514,-3.5796,-3.4498,-3.3838,-3.2968,-3.1894,-3.1357,-3.1219,-3.1385,-3.1192,-3.1185,-3.1241,-3.0703,-3.005,-2.9338,-2.832,-2.7609,-2.7219,-2.7677,-2.766,-2.7324,-2.6396,-2.6554,-2.6826,-2.5269,-2.5087,-2.5234,-2.4389,-2.4176,-2.4123,-2.3895,-2.3283,-2.2671,-2.2671,-2.194,-2.1236,-2.1161,-2.0977,-2.0845,-2.0759,-2.1011,-2.1156,-2.08,-2.1025,-2.1274,-2.1274,-2.1121,-2.1207,-2.1776,-2.2146,-2.2294,-2.2074,-2.222,-2.2326,-2.2326,-2.2326,-2.2326,-2.2326,-2.2498,-2.2207,-2.1316,-2.1185,-2.0719,-1.9823,-1.9721,-1.9669,-1.9669,-1.9669,-1.9643,-1.9592,-1.9422,-1.9317,-2.4152,-2.5028,-2.5958,-2.7251,-2.7744,-2.7924,-2.8158,-2.8222,-2.8152,-2.7854,-2.7587,-2.7475,-2.7716,-2.9254,-3.0712,-3.1519,-3.3515,-3.4901,-3.4652,-3.4992,-3.4842,-3.3734,-3.3384,-3.309,0.0,0.0,0.0,-3.4172,-3.42,-3.4384,-3.4782,-3.4796,-3.4612,-3.4214,-3.4597,-3.4612,-3.42,-3.4526,-3.4652,-3.4588,-3.4588,-3.4038,-3.3019,-3.2707,-3.1864,-3.0664,-3.0076,-2.9856,-2.9877,-2.965,-2.9621,-2.972,-2.8953,-2.8271,-2.7546,-2.6496,-2.5507,-2.4784,-2.5708,-2.6042,-2.5875,-2.4949,-2.5099,-2.5384,-2.4072,-2.3957,-2.4193,-2.3772,-2.3669,-2.3669,-2.3669,-2.2958,-2.2236,-2.2236,-2.1529,-2.0835,-2.0757,-2.0578,-2.0488,-2.0574,-2.0713,-2.079,-2.0638,-2.089,-2.1118,-2.1118,-2.0973,-2.1004,-2.1381,-2.1928,-2.2184,-2.1977,-2.2091,-2.2165,-2.2165,-2.2165,-2.2165,-2.2165,-2.2165,-2.1799,-2.0901,-2.058,-2.0029,-1.9155,-1.9052,-1.8987,-1.8987,-1.8987,-1.8987,-1.8987,-1.8987,-1.8972,-2.4495,-2.5552,-2.6532,-2.7237,-2.7775,-2.8028,-2.7687,-2.7582,-2.7114,-2.5564,-2.5168,-2.5081,0.0,0.0,-2.7092,-2.822,-2.9827,-3.111,-3.1663,-3.177,-3.1883,0.0,0.0,0.0,0.0,0.0,0.0,-3.1982,0.0,-3.2074,-3.2074,-3.2074,-3.2074,-3.2074,-3.2074,-3.2074,-3.2074,-3.1892,-3.1709,-3.1499,-3.1499,-3.1462,-3.1426,-3.1359,-3.104,-3.0481,-2.9764,-2.9555,-2.9619,-2.8938,-2.8942,-2.9275,-2.8126,-2.7301,-2.6521,-2.4651,-2.3644,-2.345,-2.4771,-2.5223,-2.5024,-2.3688,-2.3682,-2.3945,-2.2609,-2.2197,-2.2197,-2.2197,-2.2197,-2.2197,-2.2197,-2.1801,-2.1362,-2.1338,-2.093,-2.0545,-2.0545,-2.0125,-1.9921,-2.0473,-2.0149,-1.9997,-2.0533,-2.0605,-2.0593,-2.0617,-2.0629,-2.0989,-2.1998,-2.2652,-2.2792,-2.2211,-2.1728,-2.144,-2.144,-2.144,-2.144,-2.1404,-2.1404,-2.1139,-2.0579,-2.0045,-1.9528,-1.8999,-1.8999,-1.8999,-1.8999,-1.8999,-1.896,-1.8934,-1.8934,-1.8851,-2.5506,-2.6554,-2.7462,-2.7219,-2.7294,-2.7191,-2.6443,-2.6005,-2.5457,-2.441,-2.322,-2.2278,0.0,0.0,0.0,-2.7202,-3.0328,0.0,-3.3314,-3.3833,0.0,-3.2906,0.0,-3.2303,-3.1823,-3.1255,0.0,0.0,-3.1206,-3.1646,-3.1646,-3.1646,-3.1646,-3.1646,-3.1646,-3.1646,-3.1646,-3.1609,-3.1536,-3.1499,-3.1499,-3.1093,-3.0367,-2.9555,-2.8704,-2.7817,-2.6852,-2.6454,-2.6416,-2.5859,-2.5924,-2.6284,-2.5255,-2.4748,-2.4485,-2.3594,-2.2933,-2.2525,-2.2727,-2.2899,-2.2978,-2.261,-2.2598,-2.2665,-2.2327,-2.2197,-2.2197,-2.2197,-2.2197,-2.2197,-2.2197,-2.1709,-2.1087,-2.0741,-2.0125,-1.9632,-1.9632,-1.9526,-1.9585,-2.0104,-2.0121,-2.0192,-2.0724,-2.0488,-2.037,-2.076,-2.0819,-2.0873,-2.1001,-2.1496,-2.1765,-2.1638,-2.1837,-2.1993,-2.1993,-2.1993,-2.1825,-2.1428,-2.1302,-2.0824,-1.9893,-1.9626,-1.925,-1.8706,-1.8694,-1.8694,-1.8694,-1.8694,-1.8467,-1.8023,-1.8023,-1.794,-2.6082,-2.6727,-2.7277,-2.7275,-2.6788,-2.6162,-2.5572,-2.4909,-2.4074,-2.2959,-2.1837,-2.0899,-2.0346,-2.2235,-2.4104,0.0,0.0,0.0,-3.1467,-3.2107,-3.2373,0.0,-3.1791,0.0,-3.1153,-3.0687,-3.0328,0.0,-3.0487,-3.0701,-3.0456,-3.0443,-3.0443,-3.0443,-3.0443,-3.0405,-3.0317,-3.0317,-3.0279,-3.0164,-3.0164,-2.9871,-2.9303,-2.8734,-2.7863,-2.6861,0.0,-2.5601,-2.5194,-2.4801,-2.4814,-2.5004,-2.4217,-2.3752,-2.3456,-2.2932,-2.242,-2.1949,-2.1843,-2.1886,-2.198,-2.198,-2.198,-2.198,-2.198,-2.198,-2.198,-2.198,-2.1769,-2.1557,-2.1906,-2.1028,-2.0052,-2.0111,-1.9575,-1.8977,-1.8812,-1.8906,-1.9123,-1.9433,-1.9688,-1.9924,-2.0225,-2.0045,-1.9924,-2.0236,-2.0281,-2.0242,-2.0125,-2.096,-2.1539,-2.1539,-2.1801,-2.198,-2.198,-2.1663,-2.1366,-2.1074,-2.0274,-1.9579,-1.8964,-1.8476,-1.8058,-1.7765,-1.7765,-1.7765,-1.7765,-1.7765,-1.7589,-1.7268,-1.7476,-1.7381,-2.6416,-2.6513,-2.6564,-2.7221,-2.624,-2.5075,-2.4803,-2.3914,-2.2745,-2.144,-2.0737,-2.0249,-1.9768,-2.1055,-2.2258,-2.2462,0.0,-2.7414,-2.8655,-2.922,-2.9869,-3.091,-3.0621,-3.0302,-3.0302,-3.0302,-3.0266,-3.0194,-3.0019,-2.9686,-2.9147,-2.9049,-2.9013,-2.9013,-2.9013,-2.8934,-2.8764,-2.8764,-2.8657,-2.851,-2.8471,-2.8435,-2.8362,-2.8251,-2.7687,-2.6714,0.0,0.0,-2.485,-2.4516,-2.4385,-2.4327,-2.3793,-2.327,-2.2771,-2.2285,-2.182,-2.1403,-2.1403,-2.1371,-2.1434,-2.1635,-2.1635,-2.1561,-2.1561,-2.1498,-2.1391,-2.1391,-2.0944,-2.059,-2.1253,-2.0109,-1.8903,-1.9443,-1.908,-1.8554,-1.813,-1.8396,-1.8743,-1.8743,-1.9135,-1.9432,-1.9432,-1.9432,-1.9432,-1.9432,-1.9432,-1.9432,-1.9432,-2.0581,-2.1391,-2.1391,-2.1391,-2.1391,-2.1391,-2.0805,-2.0429,-2.033,-1.8981,-1.8097,-1.797,-1.7167,-1.6694,-1.6659,-1.6659,-1.6662,-1.6726,-1.6726,-1.6719,-1.6707,-1.7053,-1.6926,-2.6841,-2.6485,-2.5968,-2.6541,-2.5528,-2.4182,-2.3444,-2.2248,0.0,-2.0094,-1.9566,-1.9251,-1.9143,-2.0803,-2.2618,-2.3905,-2.6033,-2.8258,-3.0194,-3.0543,-3.0874,0.0,-3.1488,-3.1428,-3.1428,0.0,0.0,0.0,0.0,-2.9837,-2.9265,-2.8819,-2.859,-2.859,-2.859,-2.859,-2.855,-2.855,-2.855,-2.851,-2.8339,-2.8032,-2.7552,-2.6958,-2.6361,-2.5745,0.0,0.0,-2.3675,-2.2546,-2.2154,-2.2161,-2.1648,-2.1181,-2.0781,-2.0705,-2.0346,-1.9879,-1.9759,-1.9737,-1.9933,-2.1265,-2.1285,-2.0794,-2.0794,-2.0365,-1.9868,-1.9868,-1.9803,-1.9727,-1.9835,-1.9553,-1.9049,-1.8394,-1.8281,-1.8258,-1.7864,-1.8394,-1.8953,-1.8953,-1.9015,-1.91,-1.91,-1.91,-1.91,-1.91,-1.91,-1.91,-1.91,-1.9552,-1.9868,-1.9868,-1.9868,-1.9868,-1.9868,-1.977,-1.9501,-1.9052,-1.8638,-1.8082,-1.7308,-1.6992,-1.6703,-1.6368,-1.6358,-1.6545,-1.6879,-1.6879,-1.6788,-1.662,-1.6355,-1.61,-2.7211,-2.6875,-2.629,-2.7099,-2.552,-2.365,-2.3028,0.0,0.0,-1.9325,-1.9233,-1.9243,-1.9047,-2.0526,-2.2113,-2.3147,-2.4785,-2.6749,-2.9099,-2.9714,-3.0319,-3.1352,-3.1484,-3.1484,0.0,0.0,0.0,0.0,0.0,-2.9108,-2.9287,-2.8666,-2.8339,-2.8339,-2.8231,-2.8203,-2.8203,-2.7713,-2.7458,-2.7447,-2.6864,-2.6431,-2.6195,-2.5609,-2.5077,-2.4558,-2.359,0.0,-2.2669,-2.1729,-2.1502,-2.1665,-2.0951,-2.0541,-2.033,-2.0133,-1.971,-1.9222,-1.9166,-1.9133,-1.9266,-2.0031,-2.0063,-1.9781,-1.9781,-1.9519,-1.9255,-1.9255,-1.899,-1.878,-1.9156,-1.8667,-1.803,-1.7966,-1.7449,-1.7028,-1.7239,-1.7268,-1.7408,-1.7823,-1.791,-1.791,-1.791,-1.791,-1.791,-1.791,-1.791,-1.791,-1.791,-1.8061,-1.8422,-1.9156,-1.9255,-1.9255,-1.9255,-1.8924,-1.8622,-1.8352,-1.7737,-1.7139,-1.6697,-1.6422,-1.6177,-1.5983,-1.6004,-1.607,-1.6274,-1.6274,-1.6235,-1.6128,-1.5921,-1.567,-2.7253,-2.7108,-2.6754,-2.7766,-2.5693,-2.3339,-2.3052,-2.1394,-1.9703,-1.9003,-1.9215,-1.9416,-1.8976,-2.0224,-2.1446,0.0,-2.3188,-2.4981,-2.7577,-2.825,-2.9056,0.0,-3.0689,0.0,0.0,0.0,0.0,0.0,0.0,0.0,-2.8374,-2.7842,-2.7539,-2.7539,-2.7389,-2.7319,-2.7319,-2.6577,-2.6182,-2.6182,-2.542,-2.4988,-2.483,-2.4395,-2.3928,-2.3382,-2.2616,0.0,0.0,-2.1036,-2.0933,-2.1057,-2.0366,-1.9971,-1.9733,-1.9424,-1.8994,-1.8543,-1.8543,-1.8543,-1.8543,-1.8543,-1.8677,-1.8777,-1.8777,-1.8677,-1.8543,-1.8543,-1.8172,-1.791,-1.8408,-1.774,-1.7038,-1.7638,-1.6774,-1.6019,-1.6743,-1.6404,-1.6138,-1.678,-1.6874,-1.683,-1.683,-1.6804,-1.6795,-1.683,-1.6804,-1.6795,-1.683,-1.6804,-1.7201,-1.8307,-1.8509,-1.8543,-1.8543,-1.807,-1.7765,-1.7765,-1.6902,-1.6404,-1.6288,-1.6001,-1.578,-1.5689,-1.5689,-1.5735,-1.5752,-1.5752,-1.5798,-1.5814,-1.5674,-1.5474,-2.6559,-2.6603,-2.6754,-2.7766,-2.5693,-2.3396,-2.335,0.0,-1.975,-1.9192,-1.9212,-1.9183,-1.8708,-1.9887,-2.102,-2.126,-2.2479,-2.4354,-2.707,-2.7002,-2.7352,-2.9319,0.0,0.0,0.0,0.0,0.0,0.0,0.0,0.0,0.0,-2.5442,-2.5378,-2.5378,-2.5378,-2.5378,-2.5378,-2.5252,-2.521,-2.521,-2.4957,-2.4567,-2.4064,-2.3492,-2.2976,-2.2462,0.0,0.0,0.0,-1.9806,-1.9288,-1.8982,-1.8907,-1.8416,-1.7747,-1.7719,-1.745,-1.7107,-1.7107,-1.7107,-1.7107,-1.7107,-1.7535,-1.8094,-1.8094,-1.7638,-1.7107,-1.7107,-1.7038,-1.7012,-1.7072,-1.7012,-1.6908,-1.6968,-1.6603,-1.6376,-1.6817,-1.6844,-1.6817,-1.689,-1.6751,-1.6638,-1.6638,-1.6473,-1.6412,-1.6612,-1.6473,-1.6412,-1.6612,-1.6482,-1.6412,-1.6542,-1.6864,-1.7107,-1.7107,-1.7038,-1.7012,-1.7012,-1.6906,-1.6688,-1.6331,-1.6251,-1.6083,-1.5698,-1.5689,-1.5807,-1.5972,-1.5972,-1.6059,-1.6218,-1.5542,-1.5373,-2.524,-2.5723,-2.5785,-2.6195,-2.4865,-2.3276,-2.2725,0.0,-2.0095,-1.9674,-1.9872,-2.0006,-1.9594,-2.0252,-2.0948,-2.1008,-2.1385,-2.2341,-2.4244,-2.4341,-2.493,-2.6922,-2.6826,0.0,0.0,0.0,0.0,0.0,0.0,0.0,0.0,-2.4233,-2.4914,-2.4914,-2.4808,-2.4734,-2.4734,-2.4157,-2.3899,-2.3899,-2.2985,-2.2479,-2.221,-2.1501,-2.1074,-2.0861,0.0,0.0,0.0,-1.9153,-1.8921,-1.8831,-1.835,-1.7885,-1.7467,-1.7225,-1.6884,-1.6551,-1.6551,-1.6551,-1.6551,-1.6551,-1.6751,-1.6985,-1.7123,-1.6855,-1.6551,-1.6551,-1.6551,-1.6551,-1.6551,-1.6551,-1.6551,-1.6551,-1.6212,-1.6066,-1.6471,-1.6363,-1.6255,-1.6472,-1.6482,-1.6403,-1.6403,-1.6342,-1.6342,-1.6412,-1.5982,-1.5665,-1.5762,-1.5251,-1.4914,-1.4914,-1.5903,-1.6551,-1.6551,-1.6551,-1.6551,-1.6551,-1.6551,-1.6489,-1.6292,-1.6292,-1.6212,-1.6051,-1.5625,-1.5429,-1.5505,-1.5027,-1.4847,-1.4906,-1.4377,-1.4189,-2.3935,-2.4769,-2.5119,-2.5028,-2.3946,-2.2799,-2.2251,0.0,-2.0022,-1.9761,-2.0038,-2.0042,-1.9299,-1.9803,-2.02,-1.9848,-1.996,-2.0572,-2.1894,-2.1948,-2.2519,0.0,0.0,0.0,0.0,0.0,0.0,0.0,0.0,0.0,0.0,-2.3052,-2.3753,-2.3697,-2.3677,-2.3611,-2.3523,-2.2823,-2.2519,-2.251,-2.1256,-2.0665,-2.0638,-1.977,-1.9439,-1.9512,0.0,0.0,0.0,-1.8513,-1.8445,-1.8527,-1.7961,-1.7591,-1.7317,-1.7025,-1.6634,-1.6272,-1.6061,-1.5991,-1.5991,-1.5991,-1.5912,-1.5895,-1.5974,-1.614,-1.6307,-1.6307,-1.6307,-1.6307,-1.6307,-1.6132,-1.5991,-1.5991,-1.5592,-1.5282,-1.5553,-1.5401,-1.5282,-1.5562,-1.5578,-1.5515,-1.5515,-1.5515,-1.548,-1.5515,-1.5046,-1.4697,-1.476,-1.4243,-1.3839,-1.3839,-1.4824,-1.5515,-1.5613,-1.5833,-1.5877,-1.5613,-1.5613,-1.5613,-1.5613,-1.5613,-1.5613,-1.5613,-1.5117,-1.4832,-1.4768,-1.4207,-1.3903,-1.3824,-1.3437,-1.3252,-2.2745,-2.3953,-2.508,-2.472,-2.3192,-2.1868,-2.2139,-2.0695,-1.9323,-1.9312,-1.9323,-1.8833,-1.724,-1.807,-1.8621,-1.7332,-1.8207,-1.9456,-2.0628,-2.0246,-2.0381,0.0,0.0,0.0,0.0,0.0,0.0,0.0,0.0,0.0,0.0,-2.1517,-2.1336,-2.1126,-2.152,-2.1539,-2.116,-2.1117,-2.1108,-2.1108,-2.0092,-1.9629,-1.9561,-1.8667,-1.8398,0.0,0.0,0.0,0.0,-1.7736,-1.7623,-1.7632,-1.7623,-1.7365,-1.7008,-1.6918,-1.6634,-1.6202,-1.5453,-1.5196,-1.5196,-1.5196,-1.5089,-1.4874,-1.4594,-1.5333,-1.6307,-1.6307,-1.6307,-1.6307,-1.6307,-1.5771,-1.5196,-1.5196,-1.4601,-1.4004,-1.4004,-1.4004,-1.4004,-1.4004,-1.3875,-1.3745,-1.3745,-1.36,-1.3571,-1.3709,-1.36,-1.3571,-1.3709,-1.36,-1.3499,-1.3499,-1.3535,-1.3673,-1.4011,-1.4752,-1.4867,-1.4076,-1.4004,-1.4004,-1.4004,-1.4004,-1.4004,-1.4004,-1.4004,-1.3903,-1.3709,-1.3709,-1.3637,-1.3491,-1.3105,-1.2924,-2.0198,-2.0958,-2.1489,-2.1089,-2.0713,-2.0384,-2.0175,-1.9582,-1.9089,-1.9089,-1.9089,-1.8868,-1.8082,-1.83,-1.8445,-1.8041,-1.8342,-1.8676,0.0,0.0,0.0,0.0,0.0,0.0,0.0,0.0,0.0,0.0,0.0,0.0,0.0,-2.0944,-2.0835,-2.0909,-2.0905,-2.0826,-2.07,-2.0413,-2.0269,-2.0269,-1.9388,-1.8869,-1.8619,-1.8291,0.0,0.0,0.0,0.0,0.0,-1.7058,-1.6704,-1.6522,-1.598,-1.5413,-1.4956,-1.4911,-1.4691,-1.4366,-1.4114,-1.4042,-1.4042,-1.4042,-1.4006,-1.3901,-1.361,-1.4304,-1.5037,-1.4545,-1.4394,-1.4394,-1.4394,-1.4222,-1.4042,-1.4042,-1.3854,-1.3673,-1.3673,-1.3673,-1.3673,-1.3673,-1.36,-1.3564,-1.3564,-1.3535,-1.3491,-1.3564,-1.3062,-1.2703,-1.2732,-1.2218,-1.1848,-1.1848,-1.2365,-1.2952,-1.3593,-1.389,-1.3926,-1.3665,-1.3673,-1.3673,-1.3673,-1.3673,-1.3673,-1.3673,-1.3127,-1.2806,-1.2732,-1.2174,-1.1916,-1.1842,-1.1721,-1.1683,-1.8594,-1.9265,-1.9595,-1.9182,-1.9115,0.0,-1.9013,-1.879,-1.861,-1.861,-1.8512,-1.8243,-1.77,-1.7618,-1.7618,-1.7618,-1.7853,-1.7992,0.0,0.0,0.0,0.0,0.0,0.0,0.0,0.0,0.0,0.0,0.0,0.0,0.0,0.0,-2.0032,-1.99,-2.0143,-2.009,-1.9653,-1.9487,-1.9363,-1.9261,-1.8351,-1.7855,-1.7625,-1.7035,0.0,0.0,0.0,0.0,0.0,-1.5578,-1.5223,-1.5081,-1.4554,-1.4126,-1.38,-1.38,-1.3675,-1.3462,-1.3135,-1.3062,-1.3062,-1.3062,-1.2984,-1.2877,-1.2835,-1.3399,-1.3945,-1.3607,-1.3499,-1.3499,-1.3499,-1.328,-1.3062,-1.3062,-1.2806,-1.2579,-1.2579,-1.2579,-1.2579,-1.2579,-1.2579,-1.2579,-1.2579,-1.2579,-1.2579,-1.2579,-1.2181,-1.1855,-1.1855,-1.1409,-1.1111,-1.1111,-1.1558,-1.204,-1.2542,-1.2879,-1.2915,-1.2615,-1.2579,-1.2579,-1.2579,-1.2579,-1.2579,-1.2579,-1.2107,-1.1855,-1.1855,-1.1335,-1.1111,-1.1111,-1.1111,-1.1111,0.0,-1.8577,-1.9045,-1.8678,-1.8311,-1.8119,-1.8399,-1.8202,0.0,-1.7935,-1.7623,-1.7162,-1.6459,-1.6306,-1.6288,-1.6325,-1.6938,0.0,0.0,-1.7927,0.0,0.0,0.0,0.0,0.0,0.0,0.0,0.0,0.0,0.0,0.0,0.0,-1.8892,-1.8132,-1.9038,-1.9038,-1.8076,-1.8338,-1.8281,-1.7937,-1.7,-1.6517,-1.642,-1.5178,0.0,0.0,0.0,0.0,0.0,-1.3587,-1.3426,-1.3426,-1.3353,-1.331,-1.331,-1.331,-1.331,-1.3208,-1.2482,-1.2224,-1.2224,-1.2224,-1.2032,-1.1852,-1.2138,-1.2561,-1.2982,-1.3259,-1.331,-1.331,-1.331,-1.2769,-1.2224,-1.2224,-1.1632,-1.1111,-1.1111,-1.1111,-1.1111,-1.1111,-1.1111,-1.1117,-1.1135,-1.1123,-1.1117,-1.1135,-1.1123,-1.1111,-1.1111,-1.1111,-1.1111,-1.1111,-1.1111,-1.1111,-1.1111,-1.1781,-1.1892,-1.1149,-1.1111,-1.1111,-1.1111,-1.1111,-1.1111,-1.1111,-1.1111,-1.1111,-1.1111,-1.1111,-1.1111,-1.1111,-1.1111,-1.1111,-1.7138,0.0,-1.7449,-1.7358,-1.7266,-1.72,0.0,-1.7241,-1.7176,-1.7176,-1.7067,-1.6968,-1.6805,-1.6378,-1.6159,-1.6501,0.0,0.0,0.0,0.0,0.0,0.0,0.0,0.0,0.0,0.0,0.0,0.0,0.0,0.0,0.0,0.0,-1.617,-1.5529,-1.574,-1.6158,-1.6743,-1.6538,-1.6081,-1.542,-1.5111,-1.4698,-1.4252,-1.4381,0.0,0.0,0.0,0.0,-1.3572,-1.2877,-1.2592,-1.2519,-1.1885,-1.1663,-1.1663,-1.1663,-1.1663,-1.1626,-1.1446,-1.1372,-1.1372,-1.1372,-1.1187,-1.102,-1.1292,-1.1327,-1.1308,-1.1587,-1.1663,-1.1663,-1.1663,-1.1515,-1.1372,-1.1372,-1.1223,-1.1111,-1.1111,-1.1111,-1.1111,-1.1111,-1.1111,-1.1178,-1.1357,-1.1256,-1.1184,-1.1363,-1.1212,-1.1111,-1.1111,-1.1111,-1.1111,-1.1111,-1.1111,-1.1111,-1.1111,-1.126,-1.1298,-1.1111,-1.1111,-1.1111,-1.1111,-1.1111,-1.1111,-1.1111,-1.1111,-1.1111,-1.1111,-1.1111,-1.1111,-1.1111,-1.1111,-1.1111,-1.6997,-1.7113,-1.7174,-1.7174,-1.7321,-1.7423,-1.7342,-1.7169,-1.7007,-1.6927,-1.6603,-1.6405,-1.6594,-1.6017,-1.5817,-1.6599,-1.6257,0.0,0.0,0.0,0.0,0.0,0.0,0.0,0.0,0.0,0.0,0.0,0.0,0.0,0.0,0.0,-1.4865,-1.4331,-1.4169,-1.4403,-1.5003,-1.4934,-1.4653,-1.4088,-1.4012,-1.3836,-1.3506,-1.3447,0.0,0.0,0.0,0.0,-1.2358,-1.1929,-1.1744,-1.1706,-1.126,-1.1111,-1.1111,-1.1111,-1.1111,-1.1111,-1.1111,-1.1111,-1.1111,-1.1111,-1.1015,-1.0888,-1.0958,-1.0867,-1.0783,-1.1032,-1.1111,-1.1111,-1.1111,-1.1111,-1.1111,-1.1111,-1.1111,-1.1111,-1.1111,-1.1037,-1.0962,-1.0962,-1.0988,-1.1047,-1.1194,-1.1194,-1.1185,-1.1331,-1.1171,-1.1,-1.1,-1.0889,-1.0812,-1.0812,-1.0812,-1.0812,-1.0812,-1.047,-1.0507,-1.1074,-1.1111,-1.1111,-1.1111,-1.1111,-1.1074,-1.0962,-1.085,-1.0812,-1.0812,-1.0942,-1.1,-1.1006,-1.1118,-1.1112,-1.7036,-1.7216,-1.7325,-1.7478,-1.7752,-1.797,-1.7774,-1.7394,-1.6953,-1.6773,-1.6052,-1.5627,-1.5964,-1.5405,0.0,0.0,0.0,0.0,0.0,0.0,0.0,0.0,0.0,0.0,0.0,0.0,0.0,0.0,0.0,0.0,0.0,0.0,0.0,-1.3579,-1.327,-1.3127,-1.3127,-1.3548,-1.3548,-1.3127,-1.3185,-1.3177,-1.3091,-1.2456,-1.216,0.0,0.0,0.0,-1.1105,-1.1069,-1.1075,-1.1105,-1.1063,-1.1038,-1.1037,-1.1037,-1.1037,-1.0999,-1.0999,-1.0999,-1.0999,-1.0887,-1.085,-1.0769,-1.047,-1.0395,-1.0432,-1.0582,-1.0732,-1.085,-1.085,-1.0732,-1.0657,-1.0657,-1.0657,-1.0657,-1.0657,-1.0507,-1.0395,-1.0395,-1.045,-1.0512,-1.0517,-1.067,-1.0783,-1.0783,-1.0621,-1.0483,-1.0522,-1.0275,-1.0165,-1.0198,-1.0138,-1.0148,-1.0143,-0.9537,-0.957,-1.0596,-1.0637,-1.0657,-1.0657,-1.0657,-1.0562,-1.0408,-1.0224,-1.0247,-1.0399,-1.0462,-1.069,-1.0936,-1.0976,-1.0959,-1.6848,-1.6698,-1.6564,-1.7312,-1.7552,-1.7596,-1.7559,-1.687,-1.6192,-1.5921,-1.5206,-1.4665,-1.4846,-1.4521,-1.4403,0.0,0.0,0.0,0.0,0.0,0.0,0.0,0.0,0.0,0.0,0.0,0.0,0.0,0.0,0.0,0.0,0.0,0.0,-1.1552,-1.1502,-1.1477,-1.1477,-1.219,-1.219,-1.1484,-1.1689,-1.1683,-1.149,-1.1587,-1.1487,0.0,0.0,-1.1111,-1.1093,-1.0876,-1.0912,-1.1087,-1.0864,-1.0808,-1.085,-1.085,-1.0738,-1.0588,-1.0588,-1.0588,-1.0475,-0.9793,-0.9561,-0.9448,-0.8727,-0.8499,-0.8537,-0.8537,-0.9069,-0.9561,-0.9561,-0.9069,-0.8575,-0.8575,-0.8575,-0.8575,-0.8575,-0.8537,-0.8499,-0.8499,-0.8579,-0.8672,-0.8839,-0.8845,-0.8851,-0.8982,-0.8764,-0.8652,-0.8783,-0.8613,-0.8551,-0.8725,-0.8581,-0.8487,-0.853,-0.8426,-0.8465,-0.8617,-0.8587,-0.8575,-0.8575,-0.8575,-0.8573,-0.8617,-0.8583,-0.8985,-0.9897,-0.9157,-0.9585,-1.1141,-1.0353,-1.0433,-1.6161,-1.5997,-1.5928,-1.6083,-1.6424,-1.6641,-1.6531,-1.6016,-1.5459,-1.5095,-1.4532,-1.4149,-1.4194,0.0,-1.3577,-1.3594,0.0,0.0,0.0,0.0,0.0,0.0,0.0,0.0,0.0,0.0,0.0,0.0,0.0,0.0,0.0,0.0,0.0,0.0,-1.0775,-1.0775,-1.0775,-1.1149,-1.1186,-1.0925,-1.1055,-1.1011,-1.0781,-1.0904,-1.0898,-1.0775,0.0,-1.0775,-1.0769,-1.0652,-1.067,-1.0763,-1.0646,-1.0601,-1.0588,-1.0132,-0.9943,-0.9793,-0.9339,-0.9221,-0.9145,-0.8765,-0.8651,-0.8575,-0.8075,-0.7923,-0.7923,-0.7808,-0.8194,-0.8651,-0.8651,-0.8385,-0.808,-0.808,-0.808,-0.8106,-0.8125,-0.803,-0.7953,-0.7979,-0.8066,-0.8108,-0.8197,-0.8355,-0.8458,-0.8547,-0.8342,-0.8209,-0.8292,-0.8077,-0.794,-0.7962,-0.7905,-0.7836,-0.7815,-0.7387,-0.7466,-0.8256,-0.8212,-0.8195,-0.8264,-0.809,-0.8046,-0.8148,-0.8031,-0.8239,-0.8737,-0.8425,-0.8721,-0.9561,-0.9256,-0.9251,-1.5201,-1.5093,-1.4962,-1.4736,-1.5227,-1.5755,-1.564,-1.5215,-1.4743,-1.432,-1.3924,-1.3547,-1.3376,-1.3044,0.0,-1.2699,0.0,0.0,0.0,0.0,0.0,0.0,0.0,0.0,0.0,0.0,0.0,0.0,0.0,0.0,0.0,0.0,0.0,0.0,-1.0513,-1.0513,-1.0513,-1.0513,-1.0588,-1.0738,-1.0738,-1.0663,-1.0513,-1.0513,-1.04,-1.0212,-1.04,-1.04,-1.0244,-1.0338,-1.0312,-1.0207,-1.0146,-1.0007,-0.9787,-0.9107,-0.8874,-0.8803,-0.8156,-0.7965,-0.7927,-0.7736,-0.7659,-0.7583,-0.7234,-0.7153,-0.7115,-0.6969,-0.7122,-0.7429,-0.7617,-0.7506,-0.7391,-0.7391,-0.7385,-0.7437,-0.7446,-0.7348,-0.725,-0.7222,-0.7311,-0.7413,-0.7334,-0.7634,-0.7826,-0.7789,-0.7673,-0.756,-0.7601,-0.7388,-0.7203,-0.7156,-0.7123,-0.7078,-0.7032,-0.6436,-0.6549,-0.7685,-0.7583,-0.7525,-0.7583,-0.7342,-0.7293,-0.7461,-0.7304,-0.7383,-0.7632,-0.763,-0.7862,-0.8247,-0.8218,-0.8206,-1.4044,-1.3712,-1.3359,-1.3703,-1.4434,-1.512,-1.5362,-1.474,-1.4011,-1.3811,-1.3249,-1.2557,0.0,-1.1824,-1.213,0.0,0.0,0.0,0.0,0.0,0.0,0.0,0.0,0.0,0.0,0.0,0.0,0.0,0.0,0.0,0.0,0.0,0.0,0.0,0.0,-1.0513,-1.0513,-1.0513,-1.0519,-1.0513,-1.0513,-1.0519,-1.0513,-1.0513,-1.0094,-0.9415,-1.0175,-1.0099,-0.9437,-0.9932,-0.9823,-0.9352,-0.9111,-0.8594,-0.7952,-0.7727,-0.7617,-0.7613,-0.7579,-0.754,-0.7425,-0.6584,-0.6356,-0.6205,-0.5437,-0.521,-0.521,-0.5171,-0.521,-0.5398,-0.6153,-0.5777,-0.521,-0.521,-0.5331,-0.5385,-0.5244,-0.5393,-0.5484,-0.5263,-0.5465,-0.5633,-0.5438,-0.5664,-0.5869,-0.5751,-0.5683,-0.5719,-0.588,-0.5684,-0.5619,-0.5802,-0.5661,-0.5563,-0.563,-0.5595,-0.5653,-0.5871,-0.5585,-0.5379,-0.5241,-0.5227,-0.5334,-0.5571,-0.5577,-0.6111,-0.7153,-0.6287,-0.6773,-0.848,-0.7617,-0.7658,-1.3026,-1.3036,-1.3035,-1.2686,-1.2825,-1.3184,-1.3607,-1.3464,-1.3128,-1.2864,-1.2769,-1.2518,0.0,0.0,-1.2414,0.0,0.0,0.0,0.0,0.0,0.0,0.0,0.0,0.0,0.0,0.0,0.0,0.0,0.0,0.0,0.0,0.0,0.0,0.0,0.0,-0.8647,-0.8647,-0.8647,-0.8647,-0.8642,-0.9258,-0.9258,-0.8647,-0.8647,-0.8456,-0.819,-0.8494,-0.8456,-0.8172,-0.8319,-0.8245,-0.8044,-0.7936,-0.7796,-0.7536,-0.6927,-0.67,-0.6623,-0.6128,-0.5935,-0.5899,-0.5553,-0.5437,-0.5401,-0.5093,-0.5018,-0.5018,-0.5018,-0.5018,-0.5054,-0.5356,-0.5283,-0.51,-0.5,-0.5102,-0.5197,-0.5227,-0.5246,-0.5252,-0.5238,-0.5365,-0.5454,-0.533,-0.5542,-0.5675,-0.5626,-0.5621,-0.5637,-0.5683,-0.5651,-0.5602,-0.5575,-0.5469,-0.5429,-0.5434,-0.5464,-0.5494,-0.551,-0.5447,-0.5386,-0.5419,-0.5348,-0.5386,-0.5591,-0.5597,-0.5813,-0.6219,-0.5863,-0.6086,-0.6745,-0.6393,-0.6438,-1.2288,-1.2512,-1.2713,-1.2162,-1.2047,-1.2121,-1.2517,-1.2596,-1.2512,-1.2374,-1.2278,-1.2165,-1.1851,0.0,0.0,0.0,0.0,0.0,0.0,0.0,0.0,0.0,0.0,0.0,0.0,0.0,0.0,0.0,0.0,0.0,0.0,0.0,0.0,0.0,0.0,-0.7502,-0.7502,-0.7502,-0.7349,-0.708,-0.7774,-0.7889,-0.7502,-0.7502,-0.7349,-0.7119,-0.7387,-0.7317,-0.7067,-0.7219,-0.7134,-0.6912,-0.6615,-0.6599,-0.6626,-0.6051,-0.5819,-0.5744,-0.521,-0.5018,-0.5018,-0.5018,-0.5018,-0.5018,-0.5018,-0.5018,-0.5018,-0.5018,-0.5018,-0.5018,-0.5057,-0.5137,-0.517,-0.5078,-0.5189,-0.5314,-0.5402,-0.5363,-0.536,-0.541,-0.5499,-0.5526,-0.5447,-0.5597,-0.5688,-0.5688,-0.5688,-0.5688,-0.5688,-0.5688,-0.5656,-0.5572,-0.5534,-0.5485,-0.5485,-0.5518,-0.5529,-0.5491,-0.5518,-0.5567,-0.5619,-0.5537,-0.5508,-0.5629,-0.5632,-0.565,-0.5688,-0.5688,-0.5688,-0.5688,-0.5688,-0.5688,-1.1814,-1.2073,-1.2312,-1.2312,-1.2312,-1.2296,-1.2389,-1.2331,-1.2308,-1.2401,-1.1798,-1.1364,-1.1562,-1.1408,0.0,0.0,0.0,0.0,0.0,0.0,0.0,0.0,0.0,0.0,0.0,0.0,0.0,0.0,0.0,0.0,0.0,0.0,0.0,0.0,0.0,0.0,-0.7464,-0.746,-0.7042,-0.6202,-0.6202,-0.6623,-0.7464,-0.7464,-0.7003,-0.624,-0.7119,-0.6946,-0.6165,-0.6945,-0.6797,-0.6013,-0.5127,-0.4871,-0.5018,-0.5018,-0.5018,-0.5018,-0.5018,-0.5018,-0.5018,-0.5018,-0.5018,-0.5018,-0.5018,-0.5018,-0.5018,-0.5018,-0.5018,-0.5018,-0.5176,-0.522,-0.5214,-0.5207,-0.537,-0.5475,-0.5396,-0.5559,-0.5659,-0.5459,-0.5567,-0.565,-0.5529,-0.5607,-0.5688,-0.5688,-0.5688,-0.5688,-0.5688,-0.5688,-0.5688,-0.5688,-0.5688,-0.5688,-0.5688,-0.5688,-0.5688,-0.5688,-0.5688,-0.5627,-0.5424,-0.5413,-0.5428,-0.5508,-0.5508,-0.557,-0.5688,-0.5688,-0.5688,-0.5691,-0.5691,-0.5691,-1.1862,-1.198,-1.2042,-1.2064,-1.1969,-1.17,-1.1219,-1.1781,-1.237,-1.2418,-1.1548,-1.0779,-1.0643,0.0,0.0,0.0,0.0,0.0,0.0,0.0,0.0,0.0,0.0,0.0,0.0,0.0,0.0,0.0,0.0,0.0,0.0,0.0,0.0,0.0,0.0,0.0,-0.5744,-0.5648,-0.5536,-0.5362,-0.5362,-0.5476,-0.5744,-0.5744,-0.5592,-0.5362,-0.5631,-0.5568,-0.5328,-0.5439,-0.5322,-0.5104,-0.4815,-0.4833,-0.5018,-0.5018,-0.5018,-0.5018,-0.5018,-0.5018,-0.5018,-0.5018,-0.5018,-0.5018,-0.5018,-0.5018,-0.5018,-0.5018,-0.506,-0.5119,-0.5087,-0.5221,-0.5397,-0.5235,-0.5341,-0.5475,-0.5396,-0.5494,-0.554,-0.5467,-0.558,-0.565,-0.5529,-0.5607,-0.5688,-0.5688,-0.5688,-0.5688,-0.5688,-0.5688,-0.5688,-0.5688,-0.5688,-0.5688,-0.5688,-0.5688,-0.5688,-0.5688,-0.5688,-0.5656,-0.5629,-0.5627,-0.5599,-0.5634,-0.5634,-0.5653,-0.5688,-0.5688,-0.5729,-0.5852,-0.5852,-0.5899,-1.1925,-1.1951,-1.1952,-1.1979,-1.1594,-1.0966,-1.0125,-1.0491,-1.1013,0.0,-1.0299,-0.9629,-0.9512,0.0,0.0,0.0,0.0,0.0,0.0,0.0,0.0,0.0,0.0,0.0,0.0,0.0,0.0,0.0,0.0,0.0,0.0,0.0,0.0,0.0,0.0,0.0,-0.4903,-0.4882,-0.4906,-0.5018,-0.5018,-0.5018,-0.5018,-0.5018,-0.5018,-0.5015,-0.4928,-0.4917,-0.4857,-0.4698,-0.4616,-0.4616,-0.4616,-0.473,-0.4901,-0.489,-0.4934,-0.501,-0.4922,-0.4938,-0.5018,-0.5018,-0.5018,-0.5018,-0.5018,-0.5018,-0.5018,-0.5018,-0.5086,-0.5184,-0.5153,-0.5336,-0.5462,-0.5233,-0.5392,-0.5545,-0.5466,-0.5494,-0.558,-0.558,-0.564,-0.5664,-0.5594,-0.564,-0.5688,-0.5688,-0.5688,-0.5688,-0.5688,-0.5688,-0.5688,-0.5688,-0.5688,-0.5688,-0.5688,-0.5688,-0.5688,-0.5688,-0.5688,-0.5688,-0.5688,-0.5688,-0.5688,-0.5688,-0.5688,-0.5688,-0.5688,-0.5688,-0.5793,-0.5904,-0.5904,-0.5969,-1.1663,-1.1761,-1.1809,-1.1725,-1.0977,-1.0005,-0.8973,-0.8671,-0.8671,-0.8846,0.0,-0.814,-0.8229,0.0,0.0,0.0,0.0,0.0,0.0,0.0,0.0,0.0,0.0,0.0,0.0,0.0,0.0,0.0,0.0,0.0,0.0,0.0,0.0,0.0,0.0,0.0,-0.4795,-0.4906,-0.5007,0.0,-0.5018,-0.5018,-0.5018,-0.5018,-0.5018,-0.5012,-0.486,-0.4776,-0.4681,-0.4569,-0.4514,-0.4503,-0.4503,-0.4613,-0.4769,-0.4731,-0.4829,-0.4969,-0.4831,-0.4868,-0.5002,-0.5012,-0.5018,-0.5018,-0.5018,-0.5018,-0.4979,-0.4898,-0.4992,-0.5108,-0.5135,-0.5192,-0.5213,-0.4984,-0.5333,-0.5656,-0.5402,-0.5558,-0.5688,-0.5599,-0.5555,-0.5555,-0.5555,-0.5508,-0.5466,-0.5555,-0.5644,-0.5688,-0.5688,-0.5688,-0.5688,-0.5688,-0.5688,-0.5688,-0.5688,-0.5688,-0.5688,-0.5688,-0.5699,-0.5704,-0.5704,-0.5694,-0.5688,-0.5688,-0.5688,-0.5688,-0.5688,-0.5688,-0.5798,-0.592,-0.592,-0.5991,-0.9805,-0.9993,-1.0238,-0.9684,-0.8711,-0.7793,-0.7533,-0.6922,-0.6789,-0.8277,-0.788,-0.7254,0.0,0.0,0.0,0.0,0.0,0.0,0.0,0.0,0.0,0.0,0.0,0.0,0.0,0.0,0.0,0.0,0.0,0.0,0.0,0.0,0.0,0.0,0.0,-0.464,-0.4795,-0.4822,-0.4882,0.0,-0.5018,-0.5018,-0.5018,-0.5018,-0.5018,-0.5015,-0.4988,-0.4855,-0.4687,-0.466,-0.4591,-0.4503,-0.4503,-0.4597,-0.4725,-0.4698,-0.4723,-0.4777,-0.4811,-0.4814,-0.4852,-0.4947,-0.5018,-0.5018,-0.5018,-0.5018,-0.4859,-0.4226,-0.4099,-0.401,-0.3313,-0.3287,-0.3401,-0.3157,-0.4415,-0.5476,-0.4574,-0.5073,-0.5466,-0.4748,-0.4612,-0.4612,-0.4612,-0.3985,-0.3762,-0.4478,-0.524,-0.5688,-0.5688,-0.5688,-0.5688,-0.5688,-0.5688,-0.5688,-0.5688,-0.5688,-0.5688,-0.5688,-0.5817,-0.5866,-0.5866,-0.5737,-0.5688,-0.5688,-0.5688,-0.5688,-0.5688,-0.5688,-0.5841,-0.6045,-0.6045,-0.6159,-0.8679,-0.8854,-0.8992,-0.821,-0.7577,-0.6966,-0.6523,-0.6041,-0.598,-0.6873,-0.6624,0.0,0.0,0.0,0.0,0.0,0.0,0.0,0.0,0.0,0.0,0.0,0.0,0.0,0.0,0.0,0.0,0.0,0.0,0.0,0.0,0.0,0.0,0.0,-0.4476,-0.4594,-0.4746,-0.4769,-0.4858,-0.5018,-0.5018,-0.5018,-0.5018,-0.5018,-0.5018,-0.5018,-0.5018,-0.4879,-0.469,-0.469,-0.4583,-0.439,-0.439,-0.4495,-0.4594,-0.4539,-0.4594,-0.4741,-0.4746,-0.4822,-0.4854,-0.4523,-0.4423,-0.4345,-0.3915,-0.3798,-0.3717,-0.3285,-0.3263,-0.3194,-0.2723,-0.2752,-0.2852,-0.2744,-0.3525,-0.4184,-0.3571,-0.3926,-0.421,-0.3717,-0.3628,-0.3628,-0.3628,-0.3226,-0.3047,-0.3539,-0.403,-0.4344,-0.4344,-0.4344,-0.4344,-0.4344,-0.4344,-0.4344,-0.4344,-0.4792,-0.4837,-0.4389,-0.529,-0.5549,-0.4953,-0.5363,-0.5708,-0.5901,-0.5901,-0.5901,-0.5901,-0.5901,-0.5996,-0.6173,-0.6173,-0.6268,-0.7644,-0.7753,-0.7714,-0.6984,-0.6858,-0.6656,-0.5863,-0.5688,-0.5648,-0.5505,0.0,0.0,0.0,0.0,0.0,0.0,0.0,0.0,0.0,0.0,0.0,0.0,0.0,0.0,0.0,0.0,0.0,0.0,0.0,0.0,0.0,0.0,-0.43,-0.43,-0.4446,-0.4564,-0.4687,-0.4773,-0.4858,-0.5018,-0.5018,-0.5018,-0.5018,-0.5018,-0.5018,-0.5018,-0.5018,-0.4879,-0.469,-0.469,-0.4547,-0.43,-0.43,-0.4357,-0.4462,-0.4336,-0.4394,-0.4538,-0.4496,-0.45,-0.4441,-0.3789,-0.3558,-0.3441,-0.2737,-0.2503,-0.2466,-0.232,-0.2377,-0.2442,-0.2271,-0.2306,-0.2419,-0.2419,-0.2419,-0.2408,-0.2453,-0.2699,-0.2867,-0.2689,-0.2644,-0.2598,-0.2419,-0.2553,-0.2644,-0.2644,-0.2778,-0.2911,-0.2911,-0.2911,-0.2911,-0.2911,-0.2911,-0.2911,-0.2911,-0.3549,-0.3645,-0.2882,-0.4258,-0.4639,-0.3638,-0.4499,-0.5101,-0.547,-0.5628,-0.5608,-0.5417,-0.5417,-0.5473,-0.5579,-0.5579,-0.5635,-0.5753,-0.5735,-0.5852,-0.5742,-0.5786,-0.5866,-0.5733,0.0,-0.5626,0.0,0.0,0.0,0.0,0.0,0.0,0.0,0.0,0.0,0.0,0.0,0.0,0.0,0.0,0.0,0.0,0.0,0.0,0.0,0.0,0.0,-0.43,-0.43,-0.43,-0.43,-0.4446,-0.4564,-0.4687,-0.4773,-0.4858,-0.5018,-0.5018,-0.5018,-0.5018,-0.5018,-0.5018,-0.5018,-0.5018,-0.4879,-0.469,-0.469,-0.4547,-0.43,-0.43,-0.4311,-0.4322,-0.4306,-0.3912,-0.3434,-0.3539,-0.3187,-0.2667,-0.2682,-0.266,-0.2659,-0.2543,-0.2503,-0.2358,-0.1646,-0.148,-0.1305,-0.056,-0.0353,-0.0404,-0.0404,-0.0404,-0.0583,-0.1385,-0.2281,-0.2644,-0.1749,-0.1614,-0.1346,-0.0539,-0.1077,-0.1614,-0.1614,-0.2331,-0.2911,-0.2911,-0.2911,-0.2911,-0.2911,-0.2911,-0.2911,-0.2911,-0.2819,-0.2708,-0.2571,-0.2609,-0.2611,-0.2418,-0.2661,-0.284,-0.2897,-0.3628,-0.3564,-0.2612,-0.2612,-0.2686,-0.2739,-0.2739,-0.2817,-0.5274,-0.5265,-0.5379,-0.5475,-0.5548,-0.5605,-0.5675,-0.5688,-0.5665,0.0,0.0,0.0,0.0,0.0,0.0,0.0,0.0,0.0,0.0,0.0,0.0,0.0,0.0,0.0,0.0,0.0,0.0,0.0,0.0,-0.43,-0.43,-0.43,-0.43,-0.43,-0.4349,-0.4498,-0.4687,-0.4228,-0.3883,-0.36,-0.36,-0.36,-0.36,-0.36,-0.4112,-0.5018,-0.5018,-0.4649,-0.4073,-0.4073,-0.3666,-0.3054,-0.3054,-0.3054,-0.306,-0.3073,-0.29,-0.2691,-0.2761,-0.2605,-0.2354,-0.1951,-0.184,-0.1722,-0.1254,-0.1108,-0.1042,-0.0689,-0.0584,-0.0472,-0.0087,0.0133,0.0224,0.0224,0.0314,0.0269,-0.0135,-0.0762,-0.1122,-0.0718,-0.0629,-0.0494,-0.009,-0.0359,-0.0631,-0.0638,-0.1003,-0.1236,-0.1065,-0.1067,-0.1016,-0.0822,-0.0821,-0.0821,-0.0821,-0.1239,-0.1252,-0.0704,-0.1573,-0.1829,-0.1157,-0.1717,-0.1734,-0.0991,-0.2315,-0.275,-0.2258,-0.2258,-0.2268,-0.2336,-0.2336,-0.2346,-0.5121,-0.5165,-0.523,-0.537,-0.544,-0.5494,0.0,0.0,-0.5502,0.0,0.0,0.0,0.0,0.0,0.0,0.0,0.0,0.0,0.0,0.0,0.0,0.0,0.0,0.0,0.0,0.0,0.0,0.0,0.0,-0.4344,-0.4344,-0.4317,-0.43,-0.43,-0.4126,-0.4131,-0.4359,-0.3571,-0.2943,-0.2503,-0.2503,-0.2503,-0.2503,-0.2503,-0.3169,-0.4384,-0.4358,-0.3938,-0.3272,-0.3285,-0.2802,-0.2114,-0.2114,-0.2089,-0.2107,-0.2117,-0.2071,-0.1988,-0.199,-0.1919,-0.1761,-0.1176,-0.098,-0.0823,-0.0118,0.008,0.0122,0.0164,0.0169,0.0174,0.0175,0.031,0.0493,0.0493,0.0583,0.0718,0.0718,0.0404,0.018,0.0181,0.0181,0.0181,0.0181,0.0181,0.0182,0.0185,0.0185,0.028,0.0476,0.0524,0.0569,0.0794,0.0792,0.0792,0.0792,0.0187,0.0094,0.0864,-0.0385,-0.0772,0.0145,-0.0539,-0.0493,0.0444,-0.075,-0.136,-0.136,-0.136,-0.136,-0.136,-0.136,-0.136,-0.5023,-0.5105,-0.5189,-0.5203,-0.5292,-0.5367,0.0,0.0,0.0,0.0,0.0,0.0,0.0,0.0,0.0,0.0,0.0,0.0,0.0,0.0,0.0,0.0,0.0,0.0,0.0,0.0,0.0,0.0,0.0,-0.4495,-0.4495,-0.4357,-0.43,-0.43,-0.3612,-0.3321,-0.3453,-0.2857,-0.2536,-0.2503,-0.2503,-0.2503,-0.2503,-0.2503,-0.2543,-0.2617,-0.2633,-0.2533,-0.2361,-0.2372,-0.2273,-0.2114,-0.2114,-0.2113,-0.2094,-0.2096,-0.1697,-0.1168,-0.1169,-0.0691,-0.0118,-0.0079,-0.0079,-0.0039,0.0196,0.032,0.0409,0.0627,0.0684,0.0656,0.0668,0.0672,0.0673,0.0673,0.0673,0.0718,0.0718,0.0673,0.0677,0.0736,0.0739,0.0739,0.0739,0.0739,0.0739,0.074,0.074,0.0745,0.0761,0.0763,0.0763,0.0809,0.0809,0.0809,0.0809,0.0968,0.1126,0.1176,0.1346,0.1461,0.1511,0.1462,0.1463,0.1513,0.1414,0.1414,0.1414,0.1414,0.1414,0.1414,0.1414,0.1414,-0.4818,-0.4768,-0.4693,-0.4806,-0.4857,-0.4874,-0.4858,-0.4853,0.0,0.0,0.0,0.0,0.0,0.0,0.0,0.0,0.0,0.0,0.0,0.0,0.0,0.0,0.0,0.0,0.0,0.0,0.0,0.0,0.0,0.0,-0.3835,-0.373,-0.3466,-0.29,-0.2641,-0.2323,-0.1936,-0.181,-0.1449,-0.0902,-0.0902,-0.0823,-0.0706,-0.0706,-0.0627,-0.0508,-0.0526,-0.0954,-0.1672,-0.1664,-0.131,-0.074,-0.074,-0.0753,-0.0738,-0.0607,-0.0404,-0.019,-0.0038,0.0197,0.0441,0.0395,0.0397,0.0482,0.0522,0.0572,0.0627,0.0684,0.0699,0.0711,0.0716,0.0807,0.0987,0.1121,0.1178,0.1235,0.1235,0.0961,0.0779,0.0785,0.0795,0.0802,0.0802,0.0802,0.0805,0.0816,0.0817,0.0872,0.1037,0.104,0.1133,0.1314,0.1312,0.1312,0.1312,0.1418,0.1481,0.1449,0.156,0.1617,0.1617,0.1617,0.1617,0.1617,0.1617,0.1617,0.1617,0.1617,0.1617,0.1617,0.1617,0.1617,-0.4701,-0.4543,-0.444,-0.4512,-0.433,-0.4156,-0.4463,0.0,0.0,0.0,0.0,0.0,0.0,0.0,0.0,0.0,0.0,0.0,0.0,0.0,0.0,0.0,0.0,0.0,0.0,0.0,0.0,0.0,0.0,0.0,-0.3057,-0.2994,-0.2592,-0.1804,-0.1768,-0.1417,-0.0727,-0.0739,-0.0471,0.0118,0.0157,0.0275,0.0393,0.0393,0.0471,0.0588,0.0602,0.011,-0.0654,-0.0702,-0.0344,0.0205,0.0205,0.021,0.0217,0.0367,0.0413,0.0423,0.0591,0.0643,0.0691,0.0645,0.065,0.07,0.0782,0.0837,0.0854,0.091,0.0927,0.0942,0.0942,0.1076,0.1258,0.1403,0.1466,0.1483,0.1493,0.1262,0.103,0.1085,0.105,0.106,0.106,0.106,0.1064,0.1078,0.108,0.1137,0.131,0.1314,0.1408,0.1589,0.1587,0.1587,0.1587,0.1587,0.1595,0.1615,0.1617,0.1617,0.1617,0.1617,0.1617,0.1617,0.1617,0.1617,0.1617,0.1617,0.1617,0.1617,0.1617,0.1617,0.0,0.0,0.0,-0.4302,0.0,0.0,-0.3953,0.0,0.0,0.0,0.0,0.0,0.0,0.0,0.0,0.0,0.0,0.0,0.0,0.0,0.0,0.0,0.0,0.0,0.0,0.0,0.0,0.0,0.0,-0.2081,-0.2232,-0.2107,-0.1733,-0.1058,-0.1058,-0.0689,0.0,0.0196,0.0314,0.0314,0.051,0.0589,0.0628,0.0628,0.0628,0.0628,0.0612,0.0635,0.0618,0.0518,0.0548,0.0596,0.0596,0.0616,0.0606,0.0606,0.0616,0.0631,0.0687,0.0734,0.0737,0.0711,0.0716,0.0759,0.097,0.107,0.1132,0.1348,0.1412,0.1391,0.1391,0.1393,0.14,0.1475,0.1483,0.1491,0.1521,0.148,0.1537,0.1566,0.1621,0.1622,0.1622,0.1622,0.1622,0.1622,0.1622,0.1583,0.1613,0.1617,0.1617,0.1617,0.1617,0.1617,0.1617,0.1617,0.1617,0.1617,0.1617,0.1617,0.1617,0.1617,0.1617,0.1617,0.1617,0.1617,0.1617,0.1617,0.1617,0.1617,0.1617,0.1617,-0.372,0.0,0.0,0.0,0.0,0.0,0.0,0.0,0.0,0.0,0.0,0.0,0.0,0.0,0.0,0.0,0.0,0.0,0.0,0.0,0.0,0.0,0.0,0.0,0.0,0.0,0.0,0.0,-0.1943,-0.1666,-0.1086,-0.0502,-0.0077,0.0117,0.0117,0.0234,0.0432,0.0471,0.051,0.051,0.0589,0.0668,0.0825,0.0825,0.0904,0.1099,0.1072,0.1018,0.1009,0.0687,0.0573,0.0613,0.0613,0.0589,0.0607,0.0811,0.0908,0.093,0.1076,0.118,0.1193,0.1141,0.1149,0.1206,0.1292,0.1298,0.1308,0.1372,0.1384,0.1395,0.1463,0.1485,0.1456,0.1511,0.153,0.1549,0.1557,0.1577,0.1588,0.1575,0.159,0.1605,0.1605,0.1605,0.1605,0.1605,0.1605,0.1607,0.1615,0.1617,0.1617,0.1617,0.1617,0.1617,0.1617,0.1617,0.1617,0.1617,0.1617,0.1617,0.1617,0.1617,0.1617,0.1617,0.1617,0.1617,0.1617,0.1617,0.1617,0.1617,0.1617,0.1617,-0.282,-0.2311,0.0,0.0,0.0,0.0,-0.1209,-0.102,0.0,0.0,0.0,0.0,0.0,0.0,0.0,0.0,0.0,0.0,0.0,0.0,0.0,0.0,0.0,0.0,0.0,0.0,0.0,-0.0705,-0.0744,-0.0548,-0.0118,0.0353,0.0589,0.0589,0.0589,0.0589,0.0589,0.0668,0.0707,0.0707,0.0825,0.0943,0.1061,0.1061,0.1139,0.1295,0.1277,0.123,0.1229,0.0984,0.086,0.0852,0.0852,0.0865,0.0926,0.1067,0.1126,0.1145,0.1309,0.1376,0.1389,0.1342,0.1352,0.1409,0.1409,0.1409,0.1412,0.1385,0.1399,0.1458,0.1476,0.1503,0.1529,0.1542,0.1558,0.1624,0.1588,0.1605,0.1611,0.1594,0.1605,0.1617,0.1617,0.1617,0.1617,0.1617,0.1617,0.1617,0.1617,0.1617,0.1617,0.1617,0.1617,0.1617,0.1617,0.1617,0.1617,0.1617,0.1617,0.1617,0.1617,0.1617,0.1617,0.1617,0.1617,0.1617,0.1617,0.1617,0.1617,0.1617,0.1617,0.1617,0.0,-0.145,0.0,0.0,0.0,0.0,-0.0828,-0.0414,-0.0075,0.0,0.0,0.0,0.0,0.0,0.0,0.0,0.0,0.0,0.0,0.0,0.0,0.0,0.0,0.0,0.0,0.1296,0.1218,0.0982,0.0943,0.0864,0.0668,0.0668,0.0668,0.0668,0.0668,0.0668,0.0668,0.0864,0.0943,0.0943,0.1178,0.1296,0.1296,0.1296,0.1296,0.1296,0.1296,0.1296,0.1296,0.1296,0.128,0.1217,0.1221,0.1239,0.1306,0.13,0.1312,0.132,0.1376,0.1395,0.1399,0.1382,0.1391,0.1391,0.1391,0.1391,0.1391,0.1391,0.1459,0.1485,0.1485,0.151,0.1543,0.157,0.1577,0.1584,0.1611,0.1617,0.1617,0.1617,0.1617,0.1617,0.1617,0.1617,0.1617,0.1617,0.1617,0.1617,0.1617,0.1617,0.1617,0.1617,0.1617,0.1617,0.1617,0.1617,0.1617,0.1617,0.1617,0.1617,0.1617,0.1617,0.1617,0.1617,0.1617,0.1617,0.1617,0.1617,0.1617,0.1617,0.1617,0.1617,0.0,0.0,0.0,0.0,0.0,0.0,0.0738,0.0844,0.0918,0.0,0.0,0.0,0.0,0.0,0.0,0.0,0.0,0.0,0.0,0.0,0.0,0.0,0.0,0.0,0.0,0.1296,0.1296,0.1218,0.1218,0.1218,0.1178,0.1178,0.1178,0.1178,0.1178,0.1178,0.1178,0.1218,0.1218,0.1218,0.1257,0.1296,0.1296,0.1296,0.1296,0.1296,0.1296,0.1296,0.1296,0.1296,0.1293,0.129,0.1275,0.1288,0.13,0.1353,0.1373,0.1378,0.1414,0.1382,0.1383,0.1388,0.1391,0.1391,0.1391,0.1391,0.1391,0.1391,0.1428,0.1517,0.1517,0.1558,0.16,0.1607,0.1608,0.1609,0.1615,0.1617,0.1617,0.1617,0.1617,0.1617,0.1617,0.1617,0.1617,0.1617,0.1617,0.1617,0.1617,0.1617,0.1617,0.1617,0.1617,0.1617,0.1617,0.1617,0.1617,0.1617,0.1617,0.1617,0.1617,0.1617,0.1617,0.1617,0.1617,0.1617,0.1617,0.1617,0.1617,0.1617,0.1617,0.1617,0.0,0.0,0.0,0.1161,0.0,0.0,0.0,0.1189,0.1189,0.1189,0.0,0.0,0.0,0.0,0.0,0.0,0.0,0.0,0.0,0.0,0.0,0.0,0.0,0.0,0.0,0.1296,0.1296,0.1296,0.1296,0.1296,0.1296,0.1296,0.1296,0.1296,0.1296,0.1304,0.1319,0.132,0.132,0.132,0.132,0.1312,0.1296,0.1296,0.1296,0.1296,0.1296,0.1305,0.132,0.132,0.1288,0.1303,0.1303,0.1312,0.1289,0.1373,0.139,0.1394,0.138,0.1391,0.1391,0.1391,0.1391,0.1391,0.1391,0.1401,0.1458,0.1458,0.1502,0.1549,0.1549,0.1583,0.1617,0.1617,0.1617,0.1617,0.1617,0.1617,0.1617,0.1617,0.1617,0.1617,0.1617,0.1617,0.1617,0.1617,0.1617,0.1617,0.1617,0.1617,0.1617,0.1617,0.1617,0.1617,0.1617,0.1617,0.1617,0.1617,0.1617,0.1617,0.1617,0.1617,0.1617,0.1617,0.1617,0.1617,0.1617,0.1617,0.1617,0.1617,0.1617,0.1617,0.0,0.0,0.0,0.0,0.0,0.1219,0.0,0.0,0.0,0.1204,0.0,0.0,0.0,0.0,0.0,0.0,0.0,0.0,0.0,0.0,0.0,0.0,0.0,0.0,0.0,0.1296,0.1296,0.1296,0.1296,0.1296,0.1296,0.1296,0.1299,0.1305,0.1305,0.1281,0.1311,0.1311,0.1311,0.1311,0.1305,0.129,0.1305,0.1299,0.13,0.1305,0.1305,0.1283,0.1311,0.1311,0.1288,0.1311,0.1329,0.1335,0.1317,0.1388,0.1399,0.1402,0.1382,0.1391,0.1391,0.1391,0.1391,0.1391,0.1391,0.1457,0.148,0.148,0.1525,0.162,0.162,0.1594,0.1617,0.1617,0.1617,0.1617,0.1617,0.1617,0.1617,0.1617,0.1617,0.1617,0.1617,0.1617,0.1617,0.1617,0.1617,0.1617,0.1617,0.1617,0.1617,0.1617,0.1617,0.1617,0.1617,0.1617,0.1617,0.1617,0.1617,0.1617,0.1617,0.1617,0.1617,0.1617,0.1617,0.1617,0.1617,0.1617,0.1617,0.1617,0.1617,0.1617,0.0,0.0,0.0,0.0,0.1294,0.0,0.0,0.0,0.1204,0.1214,0.0,0.0,0.0,0.0,0.0,0.0,0.0,0.0,0.0,0.0,0.0,0.0,0.0,0.0,0.0,0.0,0.1296,0.1296,0.1296,0.1296,0.1296,0.1296,0.1309,0.1296,0.1297,0.1312,0.13,0.1301,0.1301,0.13,0.1316,0.1301,0.1296,0.1309,0.1312,0.1297,0.1297,0.1315,0.1301,0.1301,0.1317,0.1384,0.1381,0.1382,0.1388,0.1418,0.1385,0.1386,0.1389,0.1391,0.1391,0.1391,0.1391,0.1391,0.1391,0.1457,0.148,0.148,0.1525,0.162,0.162,0.1594,0.1617,0.1617,0.1617,0.1617,0.1617,0.1617,0.1617,0.1617,0.1617,0.1617,0.1617,0.1617,0.1617,0.1617,0.1617,0.1617,0.1617,0.1617,0.1617,0.1617,0.1617,0.1617,0.1617,0.1617,0.1617,0.1617,0.1617,0.1617,0.1617,0.1617,0.1617,0.1617,0.1617,0.1617,0.1617,0.1617,0.1617,0.1617,0.1617,0.1617,0.0,0.0,0.0,0.0,0.0,0.0,0.128,0.0,0.1273,0.0,0.0,0.0,0.0,0.0,0.0,0.0,0.0,0.0,0.0,0.0,0.0,0.0,0.0,0.0,0.0,0.0,0.0,0.0,0.0,0.1296,0.1296,0.1314,0.1289,0.1302,0.132,0.1301,0.1372,0.1372,0.1372,0.1372,0.1359,0.1345,0.1287,0.1316,0.1317,0.1287,0.1287,0.1304,0.1372,0.1372,0.1389,0.1416,0.1416,0.1416,0.1418,0.1386,0.1391,0.1391,0.1391,0.1391,0.1391,0.1391,0.1447,0.1461,0.1461,0.1495,0.1582,0.1582,0.2051,0.2393,0.1747,0.2506,0.3123,0.1919,0.2572,0.3123,0.1869,0.207,0.2321,0.1717,0.1617,0.1617,0.1617,0.1617,0.1617,0.1617,0.1617,0.1617,0.1617,0.1617,0.1617,0.1617,0.1617,0.1617,0.1617,0.1617,0.1617,0.1617,0.1617,0.1617,0.1617,0.1617,0.1617,0.1617,0.1617,0.1617,0.1617,0.1617,0.1617,0.1617,0.1617,0.1617,0.0275,0.0,0.0,0.0,0.0,0.0,0.0,0.0,0.0,0.0,0.0,0.0,0.0,0.0,0.0,0.0,0.0,0.0,0.0,0.0,0.0,0.0,0.0,0.0,0.0,0.0,0.0,0.0,0.1302,0.1296,0.1296,0.1286,0.1307,0.1315,0.1302,0.133,0.1402,0.1402,0.1402,0.1402,0.1394,0.1379,0.1317,0.1309,0.131,0.1317,0.1317,0.1376,0.1402,0.1402,0.1415,0.1391,0.1391,0.1391,0.1391,0.1391,0.1391,0.1391,0.1391,0.1391,0.1392,0.14,0.1645,0.1944,0.1954,0.2196,0.25,0.25,0.3028,0.3473,0.2672,0.3624,0.4423,0.2822,0.3674,0.4373,0.2822,0.3073,0.3423,0.2622,0.2471,0.2471,0.2471,0.1969,0.1617,0.1617,0.1617,0.1617,0.1617,0.1617,0.1617,0.1617,0.1617,0.1617,0.1617,0.1617,0.1617,0.1617,0.1617,0.1617,0.1617,0.1617,0.1617,0.1617,0.1617,0.1617,0.1617,0.1617,0.1617,0.1617,0.1617,0.1617,0.0,0.0,0.0,0.055,0.0,0.0,0.0,0.0,0.1296,0.0,0.0,0.0,0.0,0.0,0.0,0.1217,0.0,0.0,0.0,0.0,0.0,0.0,0.0,0.0,0.0,0.0,0.0,0.1301,0.1314,0.1296,0.1296,0.1286,0.1316,0.1304,0.1373,0.1403,0.1389,0.1389,0.1389,0.1389,0.1403,0.139,0.1388,0.1318,0.132,0.1388,0.1388,0.1406,0.1389,0.1389,0.1389,0.1391,0.1391,0.1391,0.1391,0.1391,0.1391,0.1391,0.1391,0.1391,0.1395,0.147,0.2216,0.3054,0.3069,0.3801,0.4689,0.4689,0.4705,0.4724,0.4724,0.4724,0.4774,0.4724,0.4774,0.4774,0.4724,0.4724,0.4724,0.4724,0.4674,0.4674,0.4674,0.2973,0.1617,0.1617,0.1617,0.1617,0.1617,0.1617,0.1617,0.1617,0.1617,0.1617,0.1617,0.1617,0.1617,0.1617,0.1617,0.1617,0.1617,0.1617,0.1617,0.1617,0.1617,0.1617,0.1617,0.1617,0.1617,0.1617,0.1617,0.1617,0.0,0.0,0.0314,0.0393,0.0,0.0,0.0,0.0,0.0,0.0,0.0,0.0,0.0,0.0,0.1293,0.1282,0.129,0.0,0.0,0.0,0.0,0.0,0.0,0.0,0.0,0.0,0.0,0.1314,0.1303,0.1296,0.0,0.1305,0.1296,0.1305,0.1351,0.138,0.1391,0.1391,0.1391,0.1391,0.138,0.142,0.142,0.1366,0.1367,0.142,0.142,0.1381,0.1391,0.1391,0.1793,0.2374,0.2374,0.2776,0.3175,0.1882,0.1838,0.2464,0.3087,0.3309,0.3321,0.3438,0.3771,0.4107,0.4186,0.451,0.4777,0.4777,0.5302,0.5679,0.4974,0.5877,0.6581,0.5125,0.5877,0.6531,0.5125,0.5379,0.5629,0.4924,0.4824,0.4824,0.4824,0.4175,0.3473,0.2772,0.207,0.1617,0.1617,0.1617,0.1617,0.1617,0.1617,0.1617,0.1617,0.1617,0.1617,0.1617,0.1617,0.1626,0.1646,0.1647,0.1656,0.1674,0.1675,0.1675,0.1675,0.1675,0.1675,0.1675,0.1675,0.1654,0.0,0.0079,0.0,0.0196,0.0353,0.0,0.0668,0.0,0.0,0.0,0.0,0.0,0.0,0.0,0.0,0.1296,0.1296,0.1296,0.0,0.1296,0.0,0.0,0.0,0.0,0.0,0.0,0.1306,0.1316,0.1303,0.1296,0.0,0.0,0.1305,0.1305,0.1361,0.1391,0.1391,0.1391,0.1391,0.1391,0.1391,0.1391,0.1391,0.1391,0.1391,0.1391,0.1391,0.1614,0.1928,0.1928,0.2509,0.3401,0.3401,0.3757,0.4156,0.2908,0.282,0.3494,0.4146,0.4381,0.4402,0.4572,0.4892,0.525,0.5349,0.5624,0.5927,0.5927,0.6431,0.6786,0.6129,0.6983,0.7637,0.6279,0.6983,0.7637,0.6229,0.6481,0.6783,0.6077,0.5927,0.5927,0.5927,0.5627,0.5027,0.3924,0.3173,0.2622,0.222,0.217,0.217,0.217,0.1818,0.1622,0.1633,0.1633,0.1637,0.1647,0.1648,0.1656,0.1676,0.1677,0.1686,0.1704,0.1704,0.1704,0.1704,0.1704,0.1704,0.1704,0.1704,0.1684]},{"header":{"parameterUnit":"m.s-1","parameterCategory":1,"la1":30.6,"la2":29.2853,"lo1":-89.7004,"lo2":-87.6739,"dy":0.0162,"dx":0.0183,"nx":112,"ny":82,"refTime":"2023-09-23T06:00:00:Z","depth":0,"parameterNumber":3,"parameterNumberName":"V-component_of_WINDS"},"data":[0.0,0.0,0.0,0.0,0.0,0.0,0.0,0.0,0.0,0.0,0.0,0.0,0.0,0.0,0.0,0.0,0.0,0.0,0.0,0.0,0.0,0.0,0.0,0.0,0.0,0.0,0.0,0.0,0.0,0.0,0.0,0.0,0.0,0.0,0.0,0.0,0.0,0.0,0.0,0.0,0.0,0.0,0.0,0.0,0.0,0.0,0.0,0.0,0.0,0.0,0.0,0.0,0.0,0.0,0.0,0.0,0.0,0.0,0.0,0.0,0.0,0.0,0.0,0.0,0.0,0.0,0.0,0.0,0.0,0.0,0.0,0.0,0.0,0.0,0.0,0.0,0.0,0.0,0.0,0.0,0.0,0.0,0.0,0.0,0.0,0.0,0.0,0.0,0.0,0.0,0.0,0.1545,0.1698,0.1772,0.1716,0.1699,0.1468,0.0908,0.0,0.0,0.0,0.0,0.0,0.0,0.0,0.0,0.0,0.0,0.0,0.0,0.0,0.0,0.0,0.0,0.0,0.0,0.0,0.0,0.0,0.0,0.0,0.0,0.0,0.0,0.0,0.0,0.0,0.0,0.0,0.0,0.0,0.0,0.0,0.0,0.0,0.0,0.0,0.0,0.0,0.0,0.0,0.0,0.0,0.0,0.0,0.0,0.0,0.0,0.0,0.0,0.0,0.0,0.0,0.0,0.0,0.0,0.0,0.0,0.0,0.0,0.0,0.0,0.0,0.0,0.0,0.0,0.0,0.0,0.0,0.0,0.0,0.0,0.0,0.0,0.0,0.0,0.0,0.0,0.0,0.0,0.0,0.0,0.0,0.0,0.0,0.0,0.0,0.0,0.0,0.0,0.0,0.0,0.0,0.0,0.0,0.0,0.0,0.0,0.0,0.0,0.0,0.0,0.1778,0.166,0.1748,0.178,0.18,0.1673,0.1486,0.1156,0.0,0.0,0.0,0.0,0.0,0.0,0.0,0.0,0.0,0.0,0.0,0.0,0.0,0.0,0.0,0.0,0.0,0.0,0.0,0.0,0.0,0.0,0.0,0.0,0.0,0.0,0.0,0.0,0.0,0.0,0.0,0.0,0.0,0.0,0.0,0.0,0.0,0.0,0.0,0.0,0.0,0.0,0.0,0.0,0.0,0.0,0.0,0.0,0.0,0.0,0.0,0.0,0.0,0.0,0.0,0.0,0.0,0.0,0.0,0.0,0.0,0.0,0.0,0.0,0.0,0.0,0.0,0.0,0.0,0.0,0.0,0.0,0.0,0.0,0.0,0.0,0.0,0.0,0.0,0.0,0.0,0.0,0.0,0.0,0.0,0.0,0.0,0.0,0.0,0.0,0.0,0.0,0.0,0.0,0.0,0.0,0.0,0.0,0.0,0.0,0.0,0.0,0.0,0.1666,0.1637,0.1688,0.1744,0.1807,0.1759,0.1635,0.145,0.117,0.0658,0.0,0.0,0.0,0.0,0.0,0.0,0.0,0.0,0.0,0.0,0.0,0.0,0.0,0.0,0.0,0.0,0.0,0.0,0.0,0.0,0.0,0.0,0.0,0.0,0.0,0.0,0.0,0.0,0.0,0.0,0.0,0.0,0.0,0.0,0.0,0.0,0.0,0.0,0.0,0.0,0.0,0.0,0.0,0.0,0.0,0.0,0.0,0.0,0.0,0.0,0.0,0.0,0.0,0.0,0.0,0.0,0.0,0.0,0.0,0.0,0.0,0.0,0.0,0.0,0.0,0.0,0.0,0.0,0.0,0.0,0.0,0.0,0.0,0.0,0.0,0.0,0.0,0.0,0.0,0.0,0.0,0.0,0.0,0.0,0.0,0.0,0.0,0.0,0.0,0.0,0.0,0.0,0.0,0.0,0.0,0.0,0.0,0.0,0.0,0.0,0.0,0.0,0.204,0.1983,0.2063,0.1894,0.1777,0.1709,0.1596,0.1465,0.1181,0.1056,0.0,0.0,0.0,0.0,0.0,0.0,0.0,0.0,0.0,0.0,0.0,0.0,0.0,0.0,0.0,0.0,0.0,0.0,0.0,0.0,0.0,0.0,0.0,0.0,0.0,0.0,0.0,0.0,0.0,0.0,0.0,0.0,0.0,0.0,0.0,0.0,0.0,0.0,0.0,0.0,0.0,0.0,0.0,0.0,0.0,0.0,0.0,0.0,0.0,0.0,0.0,0.0,0.0,0.0,0.0,0.0,0.0,0.0,0.0,0.0,0.0,0.0,0.0,0.0,0.0,0.0,0.0,0.0,0.0,0.0,0.0,0.0,0.0,0.0,0.0,0.0,0.0,0.0,0.0,0.0,0.0,0.0,0.0,0.0,0.0,0.0,0.0,0.0,0.0,0.0,0.0,0.0,0.0,0.0,0.0,0.0,0.0,0.0,0.0,0.0,0.0,0.0,0.3299,0.3262,0.3179,0.2379,0.1768,0.1627,0.1564,0.1489,0.1396,0.1065,0.0,0.0,0.0,0.0,0.0,0.0,0.0,0.0,0.0,0.0,0.0,0.0,0.0,0.0,0.0,0.0,0.0,0.0,0.0,0.0,0.0,0.0,0.0,0.0,0.0,0.0,0.0,0.0,0.0,0.0,0.0,0.0,0.0,0.0,0.0,0.0,0.0,0.0,0.0,0.0,0.0,0.0,0.0,0.0,0.0,0.0,0.0,0.0,0.0,0.0,0.0,0.0,0.0,0.0,0.0,0.0,0.0,0.0,0.0,0.0,0.0,0.0,0.0,0.0,0.0,0.0,0.0,0.0,0.0,0.0,0.0,0.0,0.0,0.0,0.0,0.0,0.0,0.0,0.0,0.0,0.0,0.0,0.0,0.0,0.0,0.0,0.0,0.0,0.0,0.0,0.0,0.0,0.0,0.0,0.0,0.0,0.0,0.0,0.0,0.0,0.0,0.0,0.4383,0.4336,0.0,0.3879,0.3471,0.3369,0.3187,0.2869,0.2303,0.0,0.0,0.0,0.0,0.0,0.0,0.0,0.0,0.0,0.0,0.0,0.0,0.0,0.0,0.0,0.0,0.0,0.0,0.0,0.0,0.0,0.0,0.0,0.0,0.0,0.0,0.0,0.0,0.0,0.0,0.0,0.0,0.0,0.0,0.0,0.0,0.0,0.0,0.0,0.0,0.0,0.0,0.0,0.0,0.0,0.0,0.0,0.0,0.0,0.0,0.0,0.0,0.0,0.0,0.0,0.0,0.0,0.0,0.0,0.0,0.0,0.0,0.0,0.0,0.0,0.0,0.0,0.0,0.0,0.0,0.0,0.0,0.0,0.0,0.0,0.0,0.0,0.0,0.0,0.0,0.0,0.0,0.0,0.0,0.0,0.0,0.0,0.0,0.0,0.0,0.0,0.0,0.0,0.0,0.0,0.0,0.0,0.0,0.0,0.0,0.0,0.0,0.5491,0.5451,0.5471,0.0,0.5017,0.4604,0.4445,0.4244,0.3694,0.2788,0.0,0.0,0.0,0.0,0.0,0.0,0.0,0.0,0.0,0.0,0.0,0.0,0.0,0.0,0.0,0.0,0.0,0.0,0.0,0.0,0.0,0.0,0.0,0.0,0.0,0.0,0.0,0.0,0.0,0.0,0.0,0.0,0.0,0.0,0.0,0.0,0.0,0.0,0.0,0.0,0.0,0.0,0.0,0.0,0.0,0.0,0.0,0.0,0.0,0.0,0.0,0.0,0.0,0.0,0.0,0.0,0.0,0.0,0.0,0.0,0.0,0.0,0.0,0.0,0.0,0.0,0.0,0.0,0.0,0.0,0.0,0.0,0.0,0.0,0.0,0.0,0.0,0.0,0.0,0.0,0.0,0.0,0.0,0.0,0.0,0.0,0.0,0.0,0.0,0.0,0.0,0.0,0.0,0.0,0.0,0.0,0.0,0.0,0.0,0.0,0.0,0.0,0.657,0.6627,0.6624,0.6714,0.5593,0.4769,0.4535,0.4297,0.37,0.0,0.0,0.0,0.0,0.0,0.0,0.0,0.0,0.0,0.0,0.0,0.0,0.0,0.0,0.0,0.0,0.0,0.0,0.0,0.0,0.0,0.0,0.0,0.0,0.0,0.0,0.0,0.0,0.0,0.0,0.0,0.0,0.0,0.0,0.0,0.0,0.0,0.0,0.0,0.0,0.0,0.0,0.0,0.0,0.0,0.0,0.0,0.0,0.0,0.0,0.0,0.0,0.0,0.0,0.0,0.0,0.0,0.0,0.0,0.0,0.0,0.0,0.0,0.0,0.0,0.0,0.0,0.0,0.0,0.0,0.0,0.0,0.0,0.0,0.0,0.0,0.0,0.0,0.0,0.0,0.0,0.0,0.0,0.0,0.0,0.0,0.0,0.0,0.0,0.0,0.0,0.0,0.0,0.0,0.0,0.0,0.0,0.0,0.0,0.0,0.0,0.0,0.0,0.7518,0.7664,0.78,0.7964,0.7468,0.6985,0.67,0.6548,0.593,0.47,0.0,0.0,0.0,0.0,0.0,0.0,0.0,0.0,0.0,0.0,0.0,0.0,0.0,0.0,0.0,0.0,0.0,0.0,0.0,0.0,0.0,0.0,0.0,0.0,0.0,0.0,0.0,0.0,0.0,0.0,0.0,0.0,0.0,0.0,0.0,0.0,0.0,0.0,0.0,0.0,0.0,0.0,0.0,0.0,0.0,0.0,0.0,0.0,0.0,0.0,0.0,0.0,0.0,0.0,0.0,0.0,0.0,0.0,0.0,0.0,0.0,0.0,0.0,0.0,0.0,0.0,0.0,0.0,0.0,0.0,0.0,0.0,0.0,0.0,0.0,0.0,0.0,0.0,0.0,0.0,0.0,0.0,0.0,0.0,0.0,0.0,0.0,0.0,0.0,0.0,0.0,0.0,0.0,0.0,0.0,0.0,0.0,0.0,0.0,0.0,0.0,0.0,0.7886,0.8325,0.8535,0.8416,0.817,0.7901,0.7556,0.736,0.6785,0.5631,0.0,0.0,0.0,0.0,0.0,0.0,0.0,0.0,0.0,0.0,0.0,0.0,0.0,0.0,0.0,0.0,0.0,0.0,0.0,0.0,0.0,0.0,0.0,0.0,0.0,0.0,0.0,0.0,0.0,0.0,0.0,0.0,0.0,0.0,0.0,0.0,0.0,0.0,0.0,0.0,0.0,0.0,0.0,0.0,0.0,0.0,0.0,0.0,0.0,0.0,0.0,0.0,0.0,0.0,0.0,0.0,0.0,0.0,0.0,0.0,0.0,0.0,0.0,0.0,0.0,0.0,0.0,0.0,0.0,0.0,0.0,0.0,0.0,0.0,0.0,0.0,0.0,0.0,0.0,0.0,0.0,0.0,0.0,0.0,0.0,0.0,0.0,0.0,0.0,0.0,0.0,0.0,0.0,0.0,0.0,0.0,0.0,0.0,0.0,0.0,0.0,0.0,0.7963,0.8734,0.9092,0.8603,0.8314,0.7996,0.7693,0.7505,0.6957,0.5938,0.0,0.0,0.0,0.0,0.0,0.0,0.0,0.0,0.0,0.0,0.0,0.0,0.0,0.0,0.0,0.0,0.0,0.0,0.0,0.0,0.0,0.0,0.0,0.0,0.0,0.0,0.0,0.0,0.0,0.0,0.0,0.0,0.0,0.0,0.0,0.0,0.0,0.0,0.0,0.0,0.0,0.0,0.0,0.0,0.0,0.0,0.0,0.0,0.0,0.0,0.0,0.0,0.0,0.0,0.0,0.0,0.0,0.0,0.0,0.0,1.2484,0.0,0.0,0.0,0.0,0.0,0.0,0.0,0.0,0.0,0.0,0.0,0.0,0.0,0.0,0.0,0.0,0.0,0.0,0.0,0.0,0.0,0.0,0.0,0.0,0.0,0.0,0.0,0.0,0.0,0.0,0.0,0.0,0.0,0.0,0.0,0.0,0.0,0.0,0.0,0.0,0.0,0.8774,0.9518,1.0098,1.0304,1.0053,0.9797,0.9611,0.9551,0.9028,0.7893,0.7713,0.0,0.0,0.0,0.0,0.0,0.0,0.0,0.0,0.0,0.0,0.0,0.0,0.0,0.0,0.0,0.0,0.0,0.0,0.0,0.0,0.0,0.0,0.0,0.0,0.0,0.0,0.0,0.0,0.0,0.0,0.0,0.0,0.0,0.0,0.0,0.0,0.0,0.0,0.0,0.0,0.0,0.0,0.0,0.0,0.0,0.0,0.0,0.0,0.0,0.0,0.0,0.0,0.0,0.0,0.0,0.0,0.0,0.0,0.0,0.0,1.3213,0.0,0.0,0.0,0.0,0.0,0.0,0.0,0.0,0.0,0.0,0.0,0.0,0.0,0.0,0.0,0.0,0.0,0.0,0.0,0.0,0.0,0.0,0.0,0.0,0.0,0.0,0.0,0.0,0.0,0.0,0.0,0.0,0.0,0.0,0.0,0.0,0.0,0.0,0.0,0.0,0.981,1.0562,1.106,1.1042,1.078,1.0494,1.022,1.0275,1.0024,0.9291,0.9153,0.0,0.0,0.0,0.0,0.0,0.0,0.0,0.0,0.0,0.0,0.0,0.0,0.0,0.0,0.0,0.0,0.0,0.0,0.0,0.0,0.0,0.0,0.0,0.0,0.0,0.0,0.0,0.0,0.0,0.0,0.0,0.0,0.0,0.0,0.0,0.0,0.0,0.0,0.0,0.0,0.0,0.0,0.0,0.0,0.0,0.0,0.0,0.0,0.0,0.0,0.0,0.0,0.0,1.716,1.7089,1.7265,1.7214,1.7403,1.774,1.6676,1.5616,1.4548,0.0,0.0,0.0,0.0,0.0,0.0,0.0,0.0,0.0,0.0,0.0,0.0,0.0,0.0,0.0,0.0,0.0,0.0,0.0,0.0,0.0,0.0,0.0,0.0,0.0,1.5861,1.4939,0.0,0.0,0.0,0.0,0.0,0.0,0.0,0.0,0.0,0.0,0.0,0.0,1.0764,1.1543,1.1916,1.1524,1.1286,1.103,1.07,1.0826,1.0771,1.039,1.0269,1.004,0.0,0.0,0.0,0.0,0.0,0.0,0.0,0.0,0.0,0.0,0.0,0.0,0.0,0.0,0.0,0.0,0.0,0.0,0.0,0.0,0.0,0.0,0.0,0.0,0.0,0.0,0.0,0.0,0.0,0.0,0.0,0.0,1.7572,1.6771,0.0,0.0,0.0,0.0,0.0,0.0,0.0,0.0,0.0,0.0,0.0,0.0,0.0,0.0,1.8254,1.8699,1.843,1.7541,1.7916,1.86,1.9492,1.9185,1.9723,2.0889,2.0471,0.0,1.6123,1.4977,0.0,0.0,0.0,0.0,0.0,0.0,0.0,0.0,0.0,0.0,0.0,0.0,0.0,0.0,0.0,0.0,0.0,0.0,0.0,0.0,0.0,0.0,1.6372,1.6661,1.6507,1.5878,0.0,1.4346,1.4346,1.3473,0.0,0.0,0.0,0.0,0.0,0.0,0.0,0.0,1.1061,1.1827,1.2416,1.2644,1.2644,1.2603,1.2562,1.2562,1.2155,1.1134,1.1049,1.058,0.9574,0.9264,0.0,0.0,0.0,0.0,0.0,0.0,0.0,0.0,0.0,0.0,0.0,0.0,0.0,0.0,0.0,0.0,0.0,0.0,0.0,0.0,0.0,0.0,0.0,0.0,0.0,0.0,0.0,0.0,0.0,1.7854,1.8545,1.7636,1.7931,1.7715,0.0,0.0,0.0,0.0,0.0,0.0,0.0,0.0,0.0,1.9802,2.0739,2.1288,2.1381,2.1735,2.1548,2.0853,2.0736,2.0915,2.1346,2.1228,2.149,2.2077,2.1922,2.1006,1.947,1.8255,1.7166,1.6145,0.0,0.0,0.0,0.0,0.0,1.4993,1.5157,1.548,0.0,0.0,0.0,0.0,0.0,0.0,0.0,0.0,0.0,0.0,0.0,0.0,0.0,1.8364,1.8279,1.7916,1.7623,1.7216,1.6295,0.0,1.3251,1.2431,1.1938,0.0,0.0,0.0,0.0,0.0,1.196,1.2277,1.2577,1.2935,1.2806,1.2628,1.2515,1.2628,1.2424,1.1797,1.1696,1.1438,1.0921,1.0214,1.0044,0.0,0.0,0.0,0.0,0.0,0.0,0.0,0.0,0.0,0.0,0.0,0.0,0.0,0.0,0.0,0.0,0.0,0.0,0.0,0.0,0.0,0.0,0.0,0.0,0.0,0.0,0.0,0.0,1.8562,1.9354,1.8135,1.8982,1.9052,0.0,0.0,0.0,0.0,0.0,0.0,1.8801,1.9339,2.0349,2.1917,2.2889,2.3533,2.3854,2.4035,2.3794,2.3259,2.2754,2.2634,2.2894,2.2894,2.3044,2.3302,2.3302,2.3183,2.2828,2.1147,1.9726,1.848,1.7707,1.6396,1.5072,1.6098,1.6879,1.7562,1.8201,1.8557,1.854,1.7687,0.0,1.6291,1.5757,0.0,0.0,0.0,0.0,1.6789,1.7889,1.8267,1.862,1.9659,1.9621,1.9329,1.9104,1.8375,1.7165,0.0,1.4042,1.3332,1.3348,0.0,0.0,0.0,0.0,1.2145,1.2589,1.2489,1.2456,1.2731,1.2614,1.2519,1.2545,1.268,1.2744,1.2654,1.2586,1.2476,1.2384,1.1561,1.1337,1.1856,0.0,0.0,0.0,0.0,0.0,0.0,0.0,0.0,0.0,0.0,0.0,0.0,0.0,0.0,0.0,0.0,0.0,0.0,0.0,0.0,0.0,0.0,0.0,0.0,0.0,0.0,0.0,0.0,0.0,1.8237,2.0367,0.0,0.0,0.0,0.0,1.927,1.9012,1.9573,2.1167,2.1611,2.2572,2.4195,2.4738,2.4679,2.4095,2.411,2.3583,2.2558,2.2534,2.3035,2.4038,2.4038,2.4559,2.5538,2.5538,2.5518,2.5285,2.2542,2.0473,1.8921,1.8515,1.7842,1.7138,1.7216,1.7258,1.7613,1.9734,1.976,1.8837,1.8618,1.757,1.6378,1.6211,1.5841,0.0,0.0,1.7425,1.8263,1.9459,2.0126,2.0346,2.0012,1.9865,1.9296,1.7307,1.6812,1.6816,0.0,1.5769,1.4722,1.4533,0.0,1.3385,1.3385,1.2881,1.249,1.2522,1.2219,1.2032,1.2047,1.2317,1.2747,1.3369,1.3435,1.359,1.3906,1.3895,1.3757,1.3432,1.3359,1.3351,1.339,1.3507,0.0,0.0,0.0,0.0,0.0,0.0,0.0,0.0,0.0,0.0,0.0,0.0,0.0,0.0,0.0,0.0,0.0,0.0,0.0,0.0,0.0,0.0,0.0,0.0,0.0,0.0,0.0,0.0,2.0679,2.2431,0.0,2.1085,2.1103,2.124,2.1374,2.1575,2.2172,2.3268,2.3756,2.4359,2.5196,2.5693,2.5703,2.5118,2.5703,2.5493,2.4569,2.4889,2.5029,2.5118,2.5118,2.5323,2.5674,2.543,2.5303,2.5206,2.3881,2.3345,2.3259,2.2548,2.1739,2.1022,2.1048,2.1015,2.1131,2.1787,2.1729,2.1195,2.0194,1.9545,1.9054,1.8828,1.8461,1.8296,1.9324,1.9575,1.9813,2.0866,2.1258,2.1196,2.0401,2.0012,1.9465,1.8077,1.756,1.7356,1.7355,1.6039,1.4983,1.5209,1.4586,1.4013,1.386,1.3606,1.3485,1.3485,1.3353,1.3252,1.3098,1.3212,1.3326,1.3499,1.3499,1.3534,1.3655,1.3686,1.367,1.3644,1.3636,1.3696,1.3825,1.4255,1.4085,0.0,0.0,0.0,0.0,0.0,0.0,0.0,0.0,0.0,0.0,0.0,0.0,0.0,0.0,0.0,0.0,0.0,0.0,0.0,0.0,0.0,0.0,0.0,0.0,0.0,0.0,2.3227,2.2311,2.3943,2.4442,2.274,2.2874,2.3203,2.3472,2.3732,2.418,2.5039,2.5215,2.543,2.5674,2.6016,2.6025,2.5693,2.6249,2.6249,2.5693,2.6035,2.5937,2.5518,2.5518,2.543,2.5226,2.5075,2.4994,2.4975,2.4726,2.4963,2.5447,2.4913,2.4156,2.3315,2.315,2.3203,2.3258,2.2783,2.2523,2.2211,2.1135,2.0719,2.0575,2.0455,2.0083,1.9874,2.0638,2.0736,2.0767,2.1414,2.1455,2.1145,2.0379,1.9737,1.9077,1.8133,1.7668,1.7399,1.7174,1.6274,1.561,1.585,1.5343,1.4853,1.4675,1.4451,1.4293,1.4293,1.4115,1.3936,1.3807,1.3807,1.3846,1.3974,1.3923,1.4022,1.4291,1.4134,1.4083,1.4211,1.4045,1.4038,1.4163,1.4639,1.4657,1.4242,0.0,0.0,0.0,0.0,0.0,0.0,0.0,0.0,0.0,0.0,0.0,0.0,0.0,0.0,0.0,0.0,0.0,0.0,0.0,0.0,0.0,0.0,0.0,2.1003,2.3594,2.4923,2.2992,2.4825,2.5477,2.3639,2.4331,2.5086,2.5533,2.5317,2.5546,2.6348,2.5986,2.5703,2.5693,2.5693,2.5693,2.5693,2.5703,2.5703,2.5693,2.5703,2.5518,2.5135,2.5135,2.49,2.448,2.471,2.4792,2.4782,2.4981,2.5072,2.5052,2.5202,2.469,2.3786,2.3329,2.3438,2.3667,2.267,2.213,2.1759,2.1346,2.0961,2.0683,2.0812,2.0606,2.0329,2.0472,2.0809,2.113,2.113,2.0752,2.0286,1.9844,1.9046,1.8112,1.7182,1.6996,1.6862,1.6496,1.6609,1.6747,1.6538,1.6166,1.5914,1.5914,1.5352,0.0,1.4943,1.4442,1.4055,1.4064,1.4064,1.4293,1.4875,1.4815,1.5069,1.5856,1.535,1.5083,1.5205,1.4784,1.4543,1.459,1.4765,1.5176,1.5756,0.0,0.0,0.0,0.0,0.0,0.0,0.0,0.0,0.0,0.0,0.0,0.0,0.0,0.0,0.0,0.0,0.0,0.0,0.0,0.0,0.0,0.0,2.5725,2.5025,2.579,2.6443,2.6517,2.6787,2.6851,2.6451,2.6672,2.6826,2.6884,2.6814,2.6635,2.6387,2.6279,2.6064,2.5703,2.5693,2.5693,2.5693,2.6055,2.6055,2.5693,2.6241,2.6251,2.5826,2.6018,2.5874,2.5388,2.5171,2.4907,2.4576,2.4289,2.4159,2.4179,2.4583,2.4664,2.4549,2.4213,2.4181,2.4157,2.298,2.2706,2.2663,2.1873,2.1941,2.236,2.2386,2.248,2.265,2.2997,2.2303,2.1463,2.1463,2.0734,1.9665,1.8557,1.806,1.7667,1.6757,1.656,1.6529,1.6433,1.6448,1.6502,1.6444,1.6352,1.6259,1.6259,1.6105,0.0,1.598,1.5826,1.5681,1.5546,1.5517,1.5555,1.5633,1.5575,1.5643,1.5885,1.5407,1.5353,1.5835,1.5408,1.5564,1.6426,1.6508,1.683,0.0,0.0,0.0,0.0,0.0,0.0,0.0,0.0,0.0,0.0,0.0,0.0,0.0,0.0,0.0,0.0,0.0,0.0,0.0,0.0,0.0,0.0,2.7127,2.8658,2.8923,2.8636,2.8534,2.888,2.8863,2.8714,2.8378,2.8471,2.839,2.8055,2.7772,2.7491,2.7279,2.6933,2.6606,2.6349,2.6122,2.6024,2.6024,2.6329,2.6329,2.6024,2.6466,2.6453,2.5966,2.6119,2.5983,0.0,2.5437,2.5323,2.5215,2.5022,2.505,0.0,0.0,0.0,0.0,0.0,2.5263,2.5444,2.4282,2.3914,2.3801,2.3031,2.308,2.3449,2.3449,2.3612,2.3696,2.3488,2.2727,2.1888,2.1374,2.0468,1.9458,1.8639,1.8162,1.7719,1.7225,1.7106,1.7134,1.7179,0.0,0.0,1.7179,1.6751,1.6413,1.6413,1.6413,1.6413,1.6413,1.6413,1.6374,1.6239,1.622,1.6296,1.6428,1.64,0.0,0.0,0.0,1.6116,1.6332,1.61,0.0,0.0,0.0,1.7648,1.819,0.0,0.0,0.0,1.7842,1.8286,0.0,0.0,0.0,0.0,0.0,0.0,0.0,0.0,0.0,0.0,0.0,0.0,0.0,0.0,0.0,0.0,2.9365,3.1125,3.2152,3.1583,3.0878,3.0383,3.0698,3.0533,2.9624,2.9757,2.9674,2.9197,2.8644,2.8492,2.8737,0.0,0.0,0.0,0.0,2.6771,2.6812,2.6771,2.6771,2.6812,2.686,2.6625,2.6139,2.6186,2.5921,2.5507,2.5743,2.6032,2.6335,2.6506,2.6761,2.6946,2.5189,2.4529,2.4658,2.5579,2.6382,0.0,0.0,0.0,0.0,2.4281,2.4181,2.4264,2.4264,2.4244,2.4037,2.3062,2.2624,2.2167,2.1097,2.0148,1.9458,1.9412,1.8759,1.8147,1.8147,1.8147,1.8174,1.8286,1.8217,1.8174,1.8286,1.7363,1.6591,1.6591,1.6591,1.6591,1.6591,1.6591,1.6591,1.6591,0.0,0.0,1.7257,1.7185,1.739,1.8066,1.76,1.7171,1.6844,1.6879,1.7134,1.7612,1.773,1.8031,1.8501,1.862,1.9,1.9594,1.9269,1.9691,0.0,0.0,0.0,0.0,0.0,0.0,0.0,0.0,0.0,0.0,0.0,0.0,0.0,0.0,0.0,2.925,3.067,3.1883,3.2797,3.2777,3.2327,3.1424,3.0759,3.0377,3.0498,3.0565,3.0647,3.0681,3.0969,3.0942,3.0471,3.0284,0.0,2.9639,2.8688,2.8379,2.8808,2.8435,2.8435,2.8855,0.0,0.0,2.8398,2.8556,2.8153,2.7294,2.7337,2.7184,2.6918,2.696,2.7026,2.7069,2.67,2.6535,2.6577,2.6771,2.6679,2.6358,2.5819,2.5264,2.476,2.4244,2.466,2.5299,2.5299,2.52,0.0,2.482,2.3343,2.1723,2.1112,2.0118,1.9144,1.8787,1.8542,1.8417,1.8417,1.8417,1.8444,1.8471,1.8444,1.8444,1.8471,1.8066,1.7776,1.7776,1.7776,1.7776,1.7776,1.7776,1.7776,1.7776,1.7776,1.782,1.7929,1.7902,1.7957,1.8093,1.8097,1.7941,1.7608,1.7943,1.8424,1.9004,1.903,1.9312,1.9824,1.9862,2.0178,2.0732,1.9312,1.9425,0.0,0.0,0.0,0.0,0.0,0.0,0.0,0.0,0.0,0.0,0.0,2.6154,0.0,0.0,2.9624,3.0906,3.2028,3.2918,3.3365,3.3073,3.2712,3.2401,3.2176,3.2034,3.1983,3.2218,3.231,3.2153,3.2404,3.2389,3.2052,3.1553,3.1167,3.0965,2.9942,2.9534,2.9784,2.9534,2.9545,2.9784,2.992,2.984,2.9612,2.9371,2.9026,2.8545,2.8251,2.8115,2.8122,2.8479,2.8648,2.8755,2.8755,2.8359,2.7775,2.7453,2.7443,2.751,2.6717,2.6347,2.6106,2.5598,2.5814,2.6239,2.594,2.5588,2.5128,2.4269,2.2955,2.1597,2.0813,2.0161,1.9638,1.9419,1.9345,1.9345,1.9345,1.9345,1.9384,1.9488,1.9436,1.9384,1.9488,1.9305,1.8951,1.839,1.8309,1.8309,1.8309,1.8309,1.8309,1.8309,1.8309,1.8417,1.8727,1.9004,1.9162,1.9162,1.9214,1.917,1.9003,1.9236,1.9488,1.9798,1.9914,2.008,2.0347,2.0423,2.0733,2.1263,2.0114,2.0298,0.0,0.0,0.0,0.0,0.0,0.0,0.0,0.0,2.6361,2.6889,2.7631,2.8499,2.9669,3.0701,3.1615,3.2219,3.3142,3.3768,3.3713,3.3126,3.2739,3.3038,3.325,3.3252,3.2798,3.3429,3.3622,3.3073,3.3328,3.3457,3.3352,3.2557,3.2101,3.2101,3.1142,3.065,3.0756,3.065,3.065,3.0756,3.0756,3.065,3.0484,3.0007,2.9659,2.948,2.907,2.9035,2.9403,2.993,3.0254,3.0406,3.0406,2.9767,2.8797,2.8307,2.8459,2.8748,2.7853,2.7518,2.7383,2.6913,2.6897,2.6942,2.6352,2.573,2.49,2.3306,2.238,2.1607,2.0553,2.0309,2.0309,2.0309,2.0309,2.0309,2.0309,2.0309,2.0347,2.0511,2.0398,2.0347,2.0511,2.0398,1.9965,1.8977,1.8818,1.8818,1.8818,1.8818,1.8818,1.8818,1.8818,1.903,1.9501,1.9939,2.0207,2.0258,2.0258,2.0258,2.0309,2.0309,2.0309,2.0309,2.0461,2.0537,2.0537,2.0662,2.0948,2.1367,2.1022,2.1353,2.7328,2.769,2.8572,2.8378,2.8926,2.971,0.0,0.0,2.9211,2.9808,2.9507,2.9487,3.0636,3.1341,3.2045,3.2922,3.3633,3.3992,3.3713,3.321,3.2861,3.2925,3.22,3.1659,3.1585,3.2546,3.294,3.2363,3.3692,3.4313,3.3829,3.3737,3.3662,3.3662,3.258,3.2244,3.2754,3.2244,3.2256,3.2797,3.2797,3.2329,3.1546,3.1471,3.1027,3.0265,3.0214,3.0228,3.0254,3.0356,3.0368,3.0406,3.0406,3.0317,3.0203,3.0126,2.9526,2.8694,2.8579,2.7911,2.7067,2.7003,2.7113,2.7165,2.653,2.574,2.4775,2.3506,2.2385,2.1407,2.0794,2.0649,2.0649,2.0649,2.0649,2.0649,2.0649,2.0649,2.0649,2.0687,2.0649,2.0649,2.0674,2.0649,2.0498,2.0067,2.0016,2.0016,2.0016,2.0016,2.0016,2.0016,2.0016,2.0042,2.0093,2.0182,2.0296,2.0461,2.0461,2.0511,2.0624,2.0649,2.0649,2.0649,2.0687,2.0687,2.0687,2.0687,2.0801,2.0993,2.1318,2.181,2.8971,2.8505,2.8611,0.0,3.0596,3.1244,3.1691,3.1635,3.1494,3.1557,3.1839,3.2188,3.2463,3.2947,3.3442,0.0,3.4129,3.4126,3.3719,3.3064,3.2465,3.2117,3.134,3.122,3.2171,3.2704,3.3136,3.353,3.4172,3.4616,3.4775,3.447,3.4139,3.3797,3.3327,3.3035,3.2984,3.3035,3.3187,3.3441,3.3441,3.3229,3.2842,3.2204,3.1366,3.0406,3.0406,3.0457,3.0571,3.0571,3.0647,3.0748,3.0748,3.0553,3.0141,2.9621,2.91,2.86,2.7947,2.7477,2.7129,2.676,2.7009,2.7202,2.5965,2.5323,2.4756,2.355,2.2635,2.1982,2.1734,2.1433,2.1184,2.1184,2.0923,2.0712,2.08,2.0825,2.0825,2.0873,2.0873,2.0873,2.0873,2.0873,2.0823,2.0686,2.0561,2.0498,2.0498,2.0498,2.0498,2.0498,2.0498,2.0498,2.0498,2.0498,2.0524,2.0612,2.0612,2.0749,2.1082,2.118,2.1337,2.1636,2.1694,2.1742,2.1742,2.1742,2.1779,2.1841,2.2039,2.2233,2.9434,2.9083,0.0,3.0681,3.1975,3.2864,3.2826,3.3145,3.3331,3.2881,3.3431,3.3823,3.3302,3.3688,3.4096,3.4164,3.4175,3.4031,3.3639,3.2957,3.2252,3.1656,3.097,3.1048,3.2259,3.2536,3.2902,3.3542,3.3888,3.4182,3.4451,3.4067,3.37,3.3222,3.321,3.303,3.2647,3.303,3.321,3.321,3.321,3.3174,3.3036,3.2207,3.1358,3.0545,3.0391,3.0492,3.0761,3.0605,3.073,3.1086,3.0915,3.0472,2.9869,2.9039,2.8603,2.8254,2.743,2.7144,2.7064,2.6686,2.6999,2.7299,2.5972,2.5579,2.5325,2.4159,2.3541,2.3191,2.3017,2.2654,2.2331,2.2331,2.1887,2.1507,2.1607,2.1461,2.1364,2.141,2.141,2.141,2.141,2.141,2.141,2.141,2.1288,2.116,2.1047,2.1319,2.1588,2.1724,2.1576,2.1457,2.1457,2.1457,2.1457,2.1457,2.1643,2.1817,2.197,2.2066,2.2207,2.2351,2.2443,2.2512,2.2512,2.2512,2.2512,2.2558,2.2694,2.2785,2.7625,2.9265,3.1121,3.1167,3.3169,3.5065,3.4942,3.4859,3.464,3.3924,3.3743,3.3416,3.2408,3.2791,3.333,3.3579,3.3613,3.3613,3.3587,3.3077,3.2476,3.1863,3.1301,3.0999,0.0,3.1629,3.1827,3.1342,3.2342,3.2685,3.2135,3.2096,3.2071,3.2058,3.2058,3.2045,3.2032,3.2045,3.2058,3.2058,3.2058,3.1896,3.1565,3.1199,3.1013,3.0947,3.0361,3.044,3.0947,3.0348,3.0587,3.122,3.0652,3.0085,2.9565,2.9067,2.8308,2.7542,2.7516,2.7137,2.6724,2.6837,2.724,2.7622,2.7159,2.703,2.6787,2.5654,2.5323,2.5166,2.459,2.4404,2.4404,2.4404,2.3893,2.3412,2.3412,2.2917,2.2443,2.2443,2.2443,2.2443,2.2443,2.2443,2.2443,2.2443,2.2443,2.2306,2.1894,2.2883,2.3814,2.4326,2.3793,2.3412,2.3412,2.3412,2.3412,2.3412,2.4032,2.4104,2.3464,2.3436,2.315,2.2503,2.2512,2.2512,2.2512,2.2512,2.2581,2.2694,2.3165,2.3428,3.0,3.107,3.2342,3.371,3.4739,3.5492,3.5891,3.5995,3.5587,3.4278,3.3568,3.276,3.1335,3.1446,3.1915,3.2401,3.3133,3.3443,3.3051,3.3169,3.279,3.1431,3.1909,0.0,0.0,0.0,0.0,3.1591,3.1967,3.2265,3.2434,3.2447,3.2278,3.1863,3.2252,3.2265,3.185,3.2252,3.2447,3.2447,3.2447,3.2515,3.2595,3.2041,3.1906,3.2104,3.1426,3.1288,3.1453,3.126,3.1322,3.1514,3.0837,3.0247,2.966,2.9072,2.8156,2.7278,2.7677,2.7721,2.7504,2.7156,2.7438,2.7719,2.6803,2.6785,2.6942,2.6154,2.5926,2.5869,2.5681,2.5023,2.4418,2.4418,2.3631,2.2873,2.2942,2.2793,2.2649,2.2754,2.3132,2.3291,2.2849,2.3146,2.3421,2.3421,2.2899,2.2445,2.2305,2.3033,2.3648,2.3827,2.4038,2.4152,2.4152,2.4152,2.4152,2.4152,2.4392,2.4341,2.3987,2.4051,2.3939,2.3625,2.3659,2.3702,2.3702,2.3702,2.3724,2.3767,2.3931,2.4015,3.1689,3.2691,3.3676,3.5195,3.5751,3.5983,3.6122,3.6122,3.5631,3.3864,3.3096,3.2169,3.0313,3.0559,3.1049,3.1041,3.2295,3.3192,3.3028,3.3351,3.3282,3.2434,3.2878,3.309,0.0,0.0,0.0,3.2286,3.2313,3.2487,3.2863,3.2876,3.2702,3.2326,3.2689,3.2702,3.2313,3.2764,3.3028,3.3039,3.3039,3.3159,3.3381,3.2921,3.2709,3.2668,3.2041,3.1738,3.1691,3.145,3.1557,3.1732,3.0845,3.0119,2.954,2.8915,2.8019,2.7225,2.7569,2.7684,2.7626,2.7286,2.7572,2.7946,2.7208,2.7257,2.7466,2.7107,2.699,2.699,2.699,2.6237,2.5467,2.5467,2.4658,2.3916,2.3984,2.3829,2.3725,2.4089,2.4305,2.4342,2.4164,2.4513,2.4781,2.4781,2.4287,2.3898,2.3955,2.4514,2.5019,2.5226,2.5412,2.5555,2.5555,2.5555,2.5555,2.5555,2.5555,2.5355,2.4964,2.48,2.4569,2.4244,2.4276,2.4302,2.4302,2.4302,2.4302,2.4302,2.4302,2.4338,3.2654,3.3985,3.513,3.5576,3.6197,3.6445,3.5598,3.5383,3.4782,3.2721,3.2213,3.146,0.0,0.0,3.069,2.9737,3.1363,3.2999,3.3659,3.3772,3.4041,0.0,0.0,0.0,0.0,0.0,0.0,3.3409,0.0,3.3213,3.3213,3.3213,3.3213,3.3213,3.3213,3.3213,3.3213,3.3388,3.3561,3.3705,3.3705,3.3739,3.3774,3.3702,3.3359,3.2758,3.2198,3.1833,3.1693,3.11,3.1309,3.1878,3.0627,2.9793,2.9262,2.8672,2.7991,2.7335,2.7211,2.7167,2.719,2.731,2.7728,2.8222,2.836,2.8411,2.8411,2.8411,2.8411,2.8411,2.8411,2.7904,2.7404,2.7373,2.6849,2.6356,2.6356,2.5817,2.5555,2.6264,2.5848,2.5595,2.6341,2.6433,2.6418,2.6449,2.6464,2.6505,2.6567,2.7115,2.771,2.8301,2.7811,2.7442,2.7442,2.7442,2.7442,2.7396,2.7396,2.7057,2.628,2.5656,2.4995,2.4317,2.4317,2.4317,2.4317,2.4317,2.4323,2.4343,2.4343,2.4457,3.4312,3.548,3.6361,3.5957,3.5974,3.5758,3.4461,3.3738,3.2878,3.1243,2.972,2.8323,0.0,0.0,0.0,3.041,3.2953,0.0,3.5725,3.6202,0.0,3.5597,0.0,3.6512,3.6128,3.6594,0.0,0.0,3.4506,3.3567,3.3567,3.3567,3.3567,3.3567,3.3567,3.3567,3.3567,3.3602,3.3671,3.3705,3.3705,3.4081,3.4703,3.3701,3.3533,3.397,3.2792,3.2234,3.2189,3.1509,3.1658,3.217,3.0842,3.0223,3.0034,2.9398,2.8702,2.8128,2.8191,2.8152,2.8062,2.8109,2.8219,2.8366,2.8385,2.8411,2.8411,2.8411,2.8411,2.8411,2.8411,2.7975,2.7419,2.6847,2.6286,2.5876,2.5876,2.5736,2.5814,2.6498,2.6461,2.6554,2.7254,2.6943,2.6787,2.73,2.7378,2.714,2.652,2.7024,2.7485,2.7634,2.795,2.815,2.815,2.815,2.7934,2.7426,2.745,2.6956,2.575,2.5635,2.5258,2.4544,2.4528,2.4528,2.4528,2.4528,2.4675,2.4977,2.4977,2.5444,3.549,3.6203,3.6695,3.6526,3.5792,3.4797,3.3553,3.2462,3.1232,2.9452,2.795,2.6749,2.6041,2.7458,2.8982,0.0,0.0,0.0,3.6438,3.7098,3.7488,0.0,3.7804,0.0,3.7624,3.798,3.8043,0.0,3.6093,3.5007,3.4728,3.4714,3.4714,3.4714,3.4714,3.4747,3.4798,3.4798,3.4832,3.493,3.493,3.5207,3.5706,3.4935,3.4562,3.4459,0.0,3.3064,3.2465,3.2176,3.2265,3.2513,3.1418,3.0815,3.05,2.9819,2.9153,2.8604,2.866,2.8652,2.858,2.858,2.858,2.858,2.858,2.858,2.858,2.858,2.8692,2.8803,2.8612,2.8418,2.8112,2.7491,2.7253,2.7102,2.6741,2.6938,2.731,2.7689,2.7987,2.8323,2.8684,2.8429,2.8323,2.87,2.8764,2.8576,2.8084,2.8005,2.8007,2.8007,2.8348,2.858,2.858,2.8748,2.8677,2.8286,2.7905,2.7322,2.6586,2.6022,2.5552,2.5137,2.5137,2.5137,2.5137,2.5137,2.5237,2.5481,2.5788,2.6135,3.6358,3.6408,3.6395,3.6955,3.5543,3.3732,3.2691,3.1306,2.9642,2.7566,2.6603,2.5918,2.5302,2.6949,2.8488,2.875,0.0,3.5167,3.6676,3.74,3.8231,3.9474,3.9105,3.8785,3.8785,3.8785,3.8739,3.8646,3.7739,3.6905,3.6236,3.6114,3.6068,3.6068,3.6068,3.6132,3.6242,3.6242,3.6352,3.6492,3.6523,3.6476,3.6384,3.6322,3.5598,3.4424,0.0,0.0,3.2753,3.2906,3.2955,3.2876,3.2154,3.1448,3.0773,3.0185,2.9556,2.899,2.899,2.9014,2.8967,2.8842,2.8842,2.8873,2.8873,2.892,2.8975,2.8975,2.9227,2.9406,2.9052,2.9122,2.9108,2.849,2.8758,2.8914,2.8119,2.8668,2.928,2.928,2.9748,3.0138,3.0138,3.0138,3.0138,3.0138,3.0138,3.0138,3.0138,2.9461,2.8975,2.8975,2.8975,2.8975,2.8975,2.9303,2.9448,2.9374,2.8542,2.8001,2.7804,2.6625,2.5954,2.5837,2.5837,2.5905,2.6003,2.6003,2.6054,2.6224,2.6768,2.6825,3.6943,3.6453,3.5742,3.6364,3.4975,3.3056,3.1611,2.9725,0.0,2.6187,2.5213,2.4641,2.4502,2.6626,2.895,3.0597,3.3396,3.6168,3.8646,3.9093,3.9428,0.0,4.0213,4.0136,4.0136,0.0,0.0,0.0,0.0,3.7933,3.729,3.6721,3.6429,3.6429,3.6429,3.6429,3.646,3.646,3.646,3.6492,3.66,3.6368,3.5826,3.5371,3.4745,3.4011,0.0,0.0,3.3421,3.3347,3.3234,3.3088,3.2398,3.17,3.1027,3.0914,3.0449,2.9892,2.9995,3.0032,2.9903,2.9068,2.9029,2.9287,2.9287,2.9563,2.9876,2.9876,2.9919,2.9946,2.9897,2.9966,2.9757,2.846,2.8764,2.9148,2.8381,2.9294,3.0257,3.0257,3.0357,3.0418,3.0418,3.0418,3.0418,3.0418,3.0418,3.0418,3.0418,3.0107,2.9876,2.9876,2.9876,2.9876,2.9876,2.994,2.9744,2.9197,2.9046,2.8451,2.73,2.7061,2.6665,2.6068,2.6052,2.6349,2.6947,2.6947,2.7463,2.8428,2.7904,2.8097,3.7712,3.699,3.6184,3.7214,3.5126,3.2477,3.1335,0.0,0.0,2.5299,2.4952,2.4796,2.4379,2.6272,2.8304,2.9627,3.1867,3.4546,3.7667,3.8376,3.9069,4.0492,4.0662,4.0662,0.0,0.0,0.0,0.0,0.0,3.8716,3.757,3.694,3.66,3.66,3.6708,3.6754,3.6754,3.7028,3.7193,3.7177,3.7576,3.7572,3.7237,3.6574,3.5897,3.5236,3.481,0.0,3.4088,3.37,3.3752,3.3926,3.2807,3.2165,3.1836,3.1451,3.0864,3.0318,3.0377,3.0398,3.0314,2.9837,2.9815,2.9957,2.9957,3.0128,3.0297,3.0297,3.0464,3.0571,3.036,3.0686,3.0839,2.99,2.9549,2.9568,3.001,3.0061,3.0228,3.1026,3.1179,3.1179,3.1179,3.1179,3.1179,3.1179,3.1179,3.1179,3.1179,3.1047,3.0811,3.036,3.0297,3.0297,3.0297,3.0506,3.0462,3.0169,3.0037,2.9685,2.8993,2.8588,2.8233,2.7894,2.7859,2.8046,2.8402,2.8402,2.8694,2.9246,2.887,2.8785,3.8474,3.7569,3.674,3.8129,3.5363,3.2124,3.1511,2.9045,2.6506,2.5103,2.5212,2.5304,2.4508,2.6061,2.7635,0.0,3.0016,3.2629,3.6102,3.7235,3.8559,0.0,4.1192,0.0,0.0,0.0,0.0,0.0,0.0,0.0,3.7826,3.737,3.7133,3.7133,3.7268,3.7344,3.7344,3.778,3.8007,3.8007,3.8497,3.8663,3.851,3.7744,3.7023,3.6352,3.5844,0.0,0.0,3.4412,3.4497,3.4787,3.3562,3.2911,3.2598,3.2009,3.1379,3.0784,3.0784,3.0784,3.0784,3.0784,3.0703,3.0642,3.0642,3.0703,3.0784,3.0784,3.1004,3.1179,3.0865,3.1276,3.1709,3.1334,3.0496,3.0127,3.1489,3.0851,3.0351,3.1558,3.1818,3.1819,3.1819,3.1855,3.1838,3.1819,3.1855,3.1838,3.1819,3.1855,3.1598,3.0925,3.0804,3.0784,3.0784,3.1064,3.124,3.124,3.1049,3.0851,3.0714,3.0093,2.9679,2.9506,2.9506,2.9592,2.9782,2.9782,2.9868,3.0058,2.9713,2.9333,3.9098,3.7905,3.674,3.8129,3.5363,3.2276,3.2212,0.0,2.669,2.5937,2.5728,2.5456,2.4714,2.6271,2.7642,2.7582,2.9428,3.2027,3.5358,3.6995,3.8882,4.1582,0.0,0.0,0.0,0.0,0.0,0.0,0.0,0.0,0.0,3.853,3.8525,3.8525,3.8525,3.8525,3.8525,3.8608,3.8635,3.8635,3.8799,3.8562,3.7956,3.7323,3.6679,3.6033,0.0,0.0,0.0,3.5916,3.571,3.5143,3.5005,3.4094,3.2857,3.2805,3.2307,3.1671,3.1671,3.1671,3.1671,3.1671,3.1391,3.1027,3.1027,3.1334,3.1671,3.1671,3.1709,3.1744,3.169,3.1744,3.18,3.1746,3.1144,3.08,3.1627,3.1679,3.1627,3.1765,3.1839,3.1876,3.1876,3.1984,3.2037,3.1912,3.1984,3.2037,3.1912,3.2001,3.2037,3.1948,3.1801,3.1671,3.1671,3.1709,3.1744,3.1744,3.1712,3.1386,3.0713,3.0645,3.0248,2.9523,2.9506,2.9886,3.0681,3.0681,3.1098,3.1829,3.042,3.0089,3.9429,3.9327,3.8865,3.939,3.6778,3.3866,3.2988,0.0,2.7406,2.6649,2.6794,2.6792,2.6002,2.6876,2.7673,2.7627,2.8443,3.0192,3.3446,3.4362,3.6189,4.0196,4.0916,0.0,0.0,0.0,0.0,0.0,0.0,0.0,0.0,3.9256,3.8827,3.8827,3.8941,3.9011,3.9011,3.9325,3.9482,3.9482,3.9412,3.9231,3.8957,3.781,3.7154,3.6871,0.0,0.0,0.0,3.5738,3.5773,3.5887,3.497,3.4265,3.3734,3.3266,3.2607,3.1965,3.1965,3.1965,3.1965,3.1965,3.1839,3.1693,3.1618,3.1784,3.1965,3.1965,3.1965,3.1965,3.1965,3.1965,3.1965,3.1965,3.1393,3.1028,3.1809,3.1601,3.1393,3.1896,3.2001,3.202,3.202,3.2073,3.2073,3.2037,3.2232,3.2387,3.2318,3.2519,3.2632,3.2632,3.2249,3.1965,3.1965,3.1965,3.1965,3.1965,3.1965,3.1844,3.1549,3.1549,3.1393,3.1081,3.1253,3.1546,3.1878,3.2042,3.2298,3.2614,3.1546,3.1224,3.9347,4.0026,4.0199,3.9957,3.7498,3.4774,3.338,0.0,2.8134,2.7576,2.7834,2.7904,2.6994,2.7763,2.8319,2.7634,2.8178,2.9586,3.2232,3.2925,3.4677,0.0,0.0,0.0,0.0,0.0,0.0,0.0,0.0,0.0,0.0,4.0028,3.9434,3.9148,3.9502,3.9587,3.9344,3.9731,3.9904,3.9887,3.9353,3.9071,3.9019,3.7577,3.7045,3.7184,0.0,0.0,0.0,3.5281,3.5339,3.5781,3.4688,3.4154,3.3987,3.3413,3.2735,3.2108,3.2214,3.2249,3.2249,3.2249,3.2266,3.2231,3.1865,3.1934,3.209,3.209,3.209,3.209,3.209,3.2179,3.2249,3.2249,3.188,3.1683,3.2246,3.1929,3.1683,3.2263,3.2386,3.2437,3.2437,3.2437,3.2454,3.2437,3.2636,3.2816,3.2766,3.2952,3.3103,3.3103,3.2716,3.2437,3.2369,3.2283,3.2284,3.2369,3.2369,3.2369,3.2369,3.2369,3.2369,3.2369,3.2603,3.2734,3.2784,3.2968,3.3054,3.3067,3.2339,3.1993,3.8806,3.9473,4.004,3.9274,3.6936,3.4492,3.3291,3.0826,2.8783,2.8767,2.8783,2.8453,2.7389,2.8989,2.9728,2.747,2.8996,3.091,3.2225,3.3612,3.5301,0.0,0.0,0.0,0.0,0.0,0.0,0.0,0.0,0.0,0.0,4.1006,4.066,3.9733,4.0474,4.0509,3.9692,3.9715,3.9698,3.9698,3.8291,3.7607,3.7577,3.6148,3.5913,0.0,0.0,0.0,0.0,3.4716,3.4401,3.4418,3.4401,3.3897,3.3202,3.3204,3.2735,3.2144,3.2489,3.2588,3.2588,3.2588,3.2638,3.2543,3.1748,3.1788,3.209,3.209,3.209,3.209,3.209,3.2335,3.2588,3.2588,3.2795,3.2991,3.2991,3.2991,3.2991,3.2991,3.3087,3.3184,3.3184,3.3243,3.3276,3.3199,3.3243,3.3276,3.3199,3.3243,3.3306,3.3306,3.3291,3.3214,3.3009,3.2749,3.2718,3.296,3.2991,3.2991,3.2991,3.2991,3.2991,3.2991,3.2991,3.3054,3.3199,3.3199,3.3229,3.3288,3.2538,3.219,3.6816,3.7712,3.8176,3.737,3.5876,3.4348,3.3495,3.1568,2.9963,2.9963,2.9963,2.9687,2.8797,2.9214,2.9446,2.8731,2.9211,3.0107,0.0,0.0,0.0,0.0,0.0,0.0,0.0,0.0,0.0,0.0,0.0,0.0,0.0,4.0665,4.0238,3.9847,4.0158,4.0221,3.9978,3.9423,3.9145,3.9145,3.7644,3.6637,3.6151,3.5705,0.0,0.0,0.0,0.0,0.0,3.4685,3.4727,3.4835,3.5065,3.4721,3.409,3.4089,3.3588,3.2941,3.305,3.3081,3.3081,3.3081,3.3096,3.2949,3.2161,3.2222,3.2619,3.2862,3.2908,3.2908,3.2908,3.3003,3.3081,3.3081,3.3139,3.3214,3.3214,3.3214,3.3214,3.3214,3.3243,3.3258,3.3258,3.3291,3.3288,3.3258,3.348,3.3638,3.3606,3.3797,3.3928,3.3928,3.3743,3.3522,3.3225,3.3124,3.3108,3.3196,3.3214,3.3214,3.3214,3.3214,3.3214,3.3214,3.3433,3.3578,3.3606,3.3792,3.3884,3.391,3.3683,3.3572,3.5062,3.6232,3.6853,3.6077,3.5115,0.0,3.3181,3.1819,3.0744,3.0744,3.0506,3.0212,2.99,2.9835,2.9835,2.9835,3.0308,3.0929,0.0,0.0,0.0,0.0,0.0,0.0,0.0,0.0,0.0,0.0,0.0,0.0,0.0,0.0,3.9421,3.8743,3.932,3.9216,3.8364,3.8142,3.7899,3.76,3.6113,3.5138,3.4685,3.4544,0.0,0.0,0.0,0.0,0.0,3.4283,3.4292,3.4376,3.4603,3.4421,3.4048,3.4048,3.374,3.3321,3.3451,3.348,3.348,3.348,3.328,3.3007,3.2793,3.265,3.2655,3.3156,3.3306,3.3306,3.3306,3.3394,3.348,3.348,3.3578,3.3643,3.3643,3.3643,3.3643,3.3643,3.3643,3.3643,3.3643,3.3643,3.3643,3.3643,3.381,3.3947,3.3947,3.4099,3.4197,3.4197,3.4049,3.3881,3.3657,3.355,3.3536,3.363,3.3643,3.3643,3.3643,3.3643,3.3643,3.3643,3.3837,3.3947,3.3947,3.4124,3.4197,3.4197,3.4197,3.4197,0.0,3.4938,3.5818,3.5128,3.4438,3.3633,3.2519,3.1687,0.0,3.1142,3.0601,3.0257,3.0711,3.0748,3.0714,3.0783,3.1939,0.0,0.0,3.453,0.0,0.0,0.0,0.0,0.0,0.0,0.0,0.0,0.0,0.0,0.0,0.0,3.831,3.6768,3.7976,3.7669,3.5573,3.6185,3.617,3.549,3.419,3.3493,3.3388,3.3113,0.0,0.0,0.0,0.0,0.0,3.3628,3.3335,3.3335,3.3364,3.3361,3.3361,3.3361,3.3361,3.3422,3.3721,3.3815,3.3815,3.3815,3.3283,3.2787,3.3576,3.3045,3.2335,3.3129,3.3361,3.3361,3.3361,3.3592,3.3815,3.3815,3.4023,3.4197,3.4197,3.4197,3.4197,3.4197,3.4197,3.4216,3.4271,3.4234,3.4216,3.4271,3.4234,3.4197,3.4197,3.4197,3.4197,3.4197,3.4197,3.4197,3.4197,3.3972,3.3934,3.4185,3.4197,3.4197,3.4197,3.4197,3.4197,3.4197,3.4197,3.4197,3.4197,3.4197,3.4197,3.4197,3.4197,3.4197,3.2231,0.0,3.2817,3.2645,3.2472,3.2264,0.0,3.1754,3.1634,3.1634,3.1515,3.1414,3.1523,3.113,3.0958,3.1529,0.0,0.0,0.0,0.0,0.0,0.0,0.0,0.0,0.0,0.0,0.0,0.0,0.0,0.0,0.0,0.0,3.7524,3.5928,3.6199,3.6292,3.6112,3.5669,3.5492,3.5571,3.5279,3.4521,3.3373,3.4506,0.0,0.0,0.0,0.0,3.3592,3.3656,3.368,3.3707,3.3915,3.3992,3.3992,3.3992,3.3992,3.4005,3.4086,3.4111,3.4111,3.4111,3.3555,3.3055,3.387,3.3488,3.2958,3.3771,3.3992,3.3992,3.3992,3.4043,3.4111,3.4111,3.4161,3.4197,3.4197,3.4197,3.4197,3.4197,3.4197,3.4401,3.5083,3.4643,3.442,3.5101,3.4637,3.4197,3.4197,3.4197,3.4197,3.4197,3.4197,3.4197,3.4197,3.4148,3.4136,3.4197,3.4197,3.4197,3.4197,3.4197,3.4197,3.4197,3.4197,3.4197,3.4197,3.4197,3.4197,3.4197,3.4197,3.4197,3.2305,3.2355,3.23,3.23,3.2576,3.2854,3.2874,3.2634,3.241,3.243,3.1894,3.1513,3.1877,3.1777,3.1812,3.2402,3.3424,0.0,0.0,0.0,0.0,0.0,0.0,0.0,0.0,0.0,0.0,0.0,0.0,0.0,0.0,0.0,3.6335,3.5139,3.4741,3.4666,3.4921,3.4866,3.4731,3.4542,3.4573,3.4139,3.3324,3.4357,0.0,0.0,0.0,0.0,3.3725,3.3921,3.3985,3.3998,3.4148,3.4197,3.4197,3.4197,3.4197,3.4197,3.4197,3.4197,3.4197,3.4197,3.39,3.3633,3.4103,3.3948,3.3687,3.4079,3.4197,3.4197,3.4197,3.4197,3.4197,3.4197,3.4197,3.4197,3.4197,3.4221,3.4245,3.4245,3.4586,3.5038,3.5504,3.5504,3.5609,3.6075,3.5429,3.4889,3.4889,3.4535,3.4293,3.4293,3.4293,3.4293,3.4293,3.4379,3.4367,3.4209,3.4197,3.4197,3.4197,3.4197,3.4209,3.4245,3.4281,3.4293,3.4293,3.4703,3.4889,3.4907,3.5261,3.5243,3.2902,3.316,3.3192,3.3133,3.3652,3.4155,3.4235,3.3772,3.3362,3.3277,3.2284,3.1601,3.2284,3.2663,0.0,0.0,0.0,0.0,0.0,0.0,0.0,0.0,0.0,0.0,0.0,0.0,0.0,0.0,0.0,0.0,0.0,0.0,0.0,3.4473,3.3797,3.3433,3.3433,3.4065,3.4065,3.3433,3.3578,3.356,3.3447,3.3876,3.3984,0.0,0.0,0.0,3.4179,3.4067,3.4086,3.4179,3.4048,3.4098,3.4221,3.4221,3.4221,3.4233,3.4233,3.4233,3.4233,3.4269,3.4281,3.4286,3.4379,3.4401,3.439,3.4344,3.4298,3.4281,3.4281,3.4298,3.4321,3.4321,3.4321,3.4321,3.4321,3.4367,3.4401,3.4401,3.5139,3.5773,3.5791,3.6459,3.6996,3.6996,3.629,3.5822,3.5953,3.5109,3.4592,3.4847,3.4641,3.4536,3.4659,3.4831,3.4802,3.4524,3.4389,3.4321,3.4321,3.4321,3.4412,3.4581,3.4656,3.4731,3.4828,3.5604,3.5944,3.5911,3.6613,3.6557,3.2977,3.386,3.4534,3.4253,3.4262,3.4349,3.4368,3.4494,3.4429,3.3758,3.3658,3.3727,3.384,3.4002,3.4348,0.0,0.0,0.0,0.0,0.0,0.0,0.0,0.0,0.0,0.0,0.0,0.0,0.0,0.0,0.0,0.0,0.0,0.0,3.4277,3.4129,3.4055,3.4055,3.3952,3.3952,3.4074,3.4808,3.479,3.4092,3.4884,3.4835,0.0,0.0,3.4197,3.4141,3.3473,3.3584,3.4123,3.3436,3.3638,3.4281,3.4281,3.4316,3.4363,3.4363,3.4363,3.4397,3.4577,3.4622,3.4653,3.4841,3.4898,3.4889,3.4889,3.4754,3.4622,3.4622,3.4754,3.4879,3.4879,3.4879,3.4879,3.4879,3.4889,3.4898,3.4898,3.5562,3.6122,3.6122,3.6844,3.7405,3.7413,3.6682,3.6388,3.7119,3.5875,3.5448,3.6872,3.5742,3.5182,3.5875,3.596,3.595,3.5894,3.5258,3.4879,3.4879,3.4879,3.5201,3.5894,3.5922,3.6206,3.6777,3.7069,3.7062,3.6726,3.7017,3.6994,3.3319,3.4305,3.5154,3.5598,3.5936,3.6202,3.6274,3.6077,3.566,3.4924,3.4549,3.437,3.4372,0.0,3.5835,3.7224,0.0,0.0,0.0,0.0,0.0,0.0,0.0,0.0,0.0,0.0,0.0,0.0,0.0,0.0,0.0,0.0,0.0,0.0,3.4305,3.4305,3.4305,3.4185,3.4173,3.4257,3.4667,3.466,3.4323,3.4714,3.4696,3.4305,0.0,3.4305,3.4286,3.3913,3.3969,3.4267,3.3895,3.4011,3.4363,3.448,3.4534,3.4577,3.4703,3.4714,3.4734,3.4832,3.486,3.4879,3.4978,3.5013,3.5013,3.5039,3.4971,3.486,3.486,3.4925,3.4997,3.4997,3.4997,3.5111,3.5548,3.5309,3.5147,3.5621,3.6382,3.6953,3.6973,3.8079,3.8956,3.8956,3.8221,3.781,3.8192,3.72,3.657,3.6865,3.6218,3.5713,3.5618,3.5709,3.6091,3.686,3.6109,3.5853,3.6338,3.5936,3.6106,3.6944,3.699,3.7164,3.7471,3.8003,3.8156,3.7995,3.8553,3.8534,3.3746,3.4712,3.5681,3.6703,3.722,3.7572,3.7874,3.7542,3.6953,3.6238,3.5806,3.5407,3.4845,3.5595,0.0,3.8795,0.0,0.0,0.0,0.0,0.0,0.0,0.0,0.0,0.0,0.0,0.0,0.0,0.0,0.0,0.0,0.0,0.0,0.0,3.4386,3.4386,3.4386,3.4386,3.4363,3.4316,3.4316,3.434,3.4386,3.4386,3.442,3.4476,3.442,3.442,3.4446,3.4214,3.4263,3.4458,3.4252,3.4333,3.4559,3.4744,3.4784,3.4822,3.498,3.5024,3.5032,3.5075,3.5092,3.5108,3.5162,3.5159,3.5166,3.5235,3.5205,3.5141,3.5081,3.5125,3.5149,3.5149,3.531,3.5559,3.5996,3.5916,3.5836,3.6101,3.7179,3.7915,3.7512,3.9046,4.0262,4.007,3.9476,3.912,3.9331,3.8457,3.7717,3.7467,3.7076,3.6627,3.6178,3.6269,3.6904,3.8199,3.7064,3.6578,3.7064,3.6495,3.6664,3.7726,3.7797,3.798,3.8369,3.9027,3.9299,3.922,3.9945,3.9887,3.4222,3.526,3.6333,3.7143,3.7116,3.7074,3.7904,3.8275,3.8236,3.7436,3.8073,3.8081,0.0,3.6122,3.7193,0.0,0.0,0.0,0.0,0.0,0.0,0.0,0.0,0.0,0.0,0.0,0.0,0.0,0.0,0.0,0.0,0.0,0.0,0.0,0.0,3.4386,3.4386,3.4386,3.4404,3.4386,3.4386,3.4404,3.4386,3.4386,3.4491,3.4682,3.4487,3.4509,3.4615,3.3663,3.3837,3.4598,3.3854,3.415,3.4966,3.5037,3.5081,3.5062,3.5089,3.5098,3.5122,3.5309,3.5371,3.5417,3.5583,3.5656,3.5656,3.5662,3.5656,3.5589,3.5347,3.547,3.5656,3.5656,3.6211,3.6578,3.5888,3.6913,3.7531,3.6024,3.7692,3.8851,3.7222,3.9064,4.0475,3.9663,3.9496,3.9747,4.0552,3.9199,3.8755,4.0327,3.9045,3.8368,3.9128,3.9192,3.9598,4.0494,3.8227,3.654,3.5869,3.5772,3.6507,3.813,3.8169,3.8858,4.0308,4.0551,4.0472,4.0109,4.0362,4.0334,3.3933,3.5099,3.6305,3.6842,3.6856,3.7102,3.8424,3.8826,3.8672,3.7896,3.8442,3.8525,0.0,0.0,3.8928,0.0,0.0,0.0,0.0,0.0,0.0,0.0,0.0,0.0,0.0,0.0,0.0,0.0,0.0,0.0,0.0,0.0,0.0,0.0,0.0,3.4841,3.4841,3.4841,3.4841,3.4823,3.4704,3.4704,3.4841,3.4841,3.4888,3.4952,3.4879,3.4888,3.4876,3.3997,3.3854,3.4163,3.3868,3.4281,3.5078,3.5224,3.5288,3.5302,3.5431,3.5464,3.549,3.5565,3.5583,3.5608,3.5673,3.5704,3.5704,3.5704,3.5704,3.5679,3.5575,3.6159,3.658,3.5864,3.6303,3.698,3.7193,3.7328,3.7367,3.727,3.8475,3.9114,3.7928,3.9437,4.07,4.0352,4.0313,4.0429,4.0758,4.021,3.9862,3.9984,3.8914,3.8328,3.8663,3.9191,3.9404,3.9204,3.876,3.863,3.8862,3.8359,3.863,3.9785,3.9823,4.0089,4.0699,4.0752,4.072,4.0576,4.0653,4.0646,3.4581,3.5703,3.6791,3.7018,3.7076,3.7442,3.8813,3.891,3.865,3.8366,3.8356,3.8146,3.7303,0.0,0.0,0.0,0.0,0.0,0.0,0.0,0.0,0.0,0.0,0.0,0.0,0.0,0.0,0.0,0.0,0.0,0.0,0.0,0.0,0.0,0.0,3.5106,3.5106,3.5106,3.5138,3.5193,3.5066,3.5041,3.5106,3.5106,3.5138,3.5185,3.513,3.4985,3.4737,3.4147,3.3926,3.3972,3.4031,3.4551,3.5321,3.5444,3.5483,3.5515,3.5656,3.5704,3.5704,3.5704,3.5704,3.5704,3.5704,3.5704,3.5704,3.5704,3.5704,3.5704,3.5698,3.6555,3.7378,3.7312,3.7514,3.7812,3.8135,3.816,3.8141,3.8193,3.9127,3.9636,3.876,3.9823,4.0797,4.0797,4.0797,4.0797,4.0797,4.0797,4.0565,3.9965,3.9379,3.903,3.903,3.9578,3.9655,3.9069,3.9578,3.9926,3.9978,3.9398,3.9501,4.0371,4.039,4.0526,4.0797,4.0797,4.0797,4.0797,4.0797,4.0797,3.6495,3.7294,3.7894,3.7894,3.7894,3.8125,3.8997,3.8524,3.8162,3.9034,3.7996,3.7169,3.7966,3.7461,0.0,0.0,0.0,0.0,0.0,0.0,0.0,0.0,0.0,0.0,0.0,0.0,0.0,0.0,0.0,0.0,0.0,0.0,0.0,0.0,0.0,0.0,3.5114,3.5095,3.5201,3.5398,3.5398,3.5302,3.5114,3.5114,3.5209,3.5391,3.5185,3.4722,3.4095,3.3945,3.3975,3.4103,3.4306,3.4935,3.5704,3.5704,3.5704,3.5704,3.5704,3.5704,3.5704,3.5704,3.5704,3.5704,3.5704,3.5704,3.5704,3.5704,3.5704,3.5704,3.5701,3.6563,3.8003,4.0231,4.0111,3.9268,3.8392,3.9553,4.0268,3.8541,3.9611,4.0526,3.9655,4.0216,4.0797,4.0797,4.0797,4.0797,4.0797,4.0797,4.0797,4.0797,4.0797,4.0797,4.0797,4.0797,4.0797,4.0797,4.0797,4.0036,3.829,3.8212,3.8624,3.9501,3.9501,3.9946,4.0797,4.0797,4.0797,4.0816,4.0816,4.0816,3.6643,3.6872,3.7201,3.783,3.7532,3.7535,3.9126,3.9144,3.9085,3.9991,3.9458,3.8703,3.8376,0.0,0.0,0.0,0.0,0.0,0.0,0.0,0.0,0.0,0.0,0.0,0.0,0.0,0.0,0.0,0.0,0.0,0.0,0.0,0.0,0.0,0.0,0.0,3.5515,3.4917,3.4955,3.5614,3.5614,3.5577,3.5515,3.5515,3.5559,3.5614,3.5553,3.5405,3.5125,3.3863,3.3367,3.3401,3.3464,3.4389,3.5704,3.5704,3.5704,3.5704,3.5704,3.5704,3.5704,3.5704,3.5704,3.5704,3.5704,3.5704,3.5704,3.5704,3.6289,3.6715,3.5911,3.7746,3.9654,3.9104,3.9247,3.9268,3.8392,3.9088,3.9733,3.921,4.0023,4.0526,3.9655,4.0216,4.0797,4.0797,4.0797,4.0797,4.0797,4.0797,4.0797,4.0797,4.0797,4.0797,4.0797,4.0797,4.0797,4.0797,4.0797,4.0565,4.0055,4.0036,4.0158,4.041,4.041,4.0545,4.0797,4.0797,4.1087,4.1641,4.1641,4.197,3.7115,3.7476,3.7906,3.843,3.8221,3.8244,3.9504,3.9671,3.9712,0.0,3.9823,3.9166,3.8691,0.0,0.0,0.0,0.0,0.0,0.0,0.0,0.0,0.0,0.0,0.0,0.0,0.0,0.0,0.0,0.0,0.0,0.0,0.0,0.0,0.0,0.0,0.0,3.5168,3.5013,3.5187,3.5704,3.5704,3.5704,3.5704,3.5704,3.5704,3.5684,3.5342,3.4988,3.4563,3.3165,3.2585,3.2585,3.2585,3.3654,3.5148,3.4795,3.5104,3.5646,3.5303,3.5419,3.5704,3.5704,3.5704,3.5704,3.5704,3.5704,3.5704,3.5704,3.6187,3.6884,3.7558,3.8578,3.9172,3.8139,3.8984,3.9771,3.8895,3.9404,4.0023,4.0023,4.0448,4.0623,4.012,4.0448,4.0797,4.0797,4.0797,4.0797,4.0797,4.0797,4.0797,4.0797,4.0797,4.0797,4.0797,4.0797,4.0797,4.0797,4.0797,4.0797,4.0797,4.0797,4.0797,4.0797,4.0797,4.0797,4.0797,4.0797,4.1216,4.2009,4.2009,4.2473,3.7853,3.862,3.9238,3.9426,3.958,3.9757,4.0062,4.0148,4.0148,4.011,0.0,3.8923,3.8925,0.0,0.0,0.0,0.0,0.0,0.0,0.0,0.0,0.0,0.0,0.0,0.0,0.0,0.0,0.0,0.0,0.0,0.0,0.0,0.0,0.0,0.0,0.0,3.4394,3.5187,3.5626,0.0,3.5704,3.5704,3.5704,3.5704,3.5704,3.5665,3.4858,3.3982,3.3049,3.2256,3.1869,3.1792,3.1792,3.2822,3.42,3.3397,3.4093,3.5356,3.4645,3.4916,3.5588,3.5665,3.5704,3.5704,3.5704,3.5704,3.5709,3.5701,3.5806,3.6638,3.9669,3.911,3.7688,3.7542,3.9189,4.0565,3.9693,4.0184,4.0797,4.0809,4.0815,4.0815,4.0815,4.0802,4.0827,4.0815,4.0803,4.0797,4.0797,4.0797,4.0797,4.0797,4.0797,4.0797,4.0797,4.0797,4.0797,4.0797,4.0874,4.0913,4.0913,4.0835,4.0797,4.0797,4.0797,4.0797,4.0797,4.0797,4.1255,4.2125,4.2125,4.2628,3.8256,3.8126,3.8041,3.9575,4.012,4.0328,4.0397,4.0546,4.0569,4.0232,3.9614,3.9138,0.0,0.0,0.0,0.0,0.0,0.0,0.0,0.0,0.0,0.0,0.0,0.0,0.0,0.0,0.0,0.0,0.0,0.0,0.0,0.0,0.0,0.0,0.0,3.3015,3.4394,3.4587,3.5013,0.0,3.5704,3.5704,3.5704,3.5704,3.5704,3.5684,3.5491,3.4543,3.3088,3.2894,3.2411,3.1792,3.1792,3.2449,3.3358,3.3165,3.3339,3.3726,3.4234,3.4529,3.48,3.5477,3.5704,3.5704,3.5704,3.5704,3.5706,3.5708,3.6686,3.7756,3.7863,3.9041,3.9875,3.8504,3.952,4.0569,3.9757,4.0228,4.0827,4.0877,4.0873,4.0873,4.0873,4.092,4.0941,4.0888,4.0837,4.0797,4.0797,4.0797,4.0797,4.0797,4.0797,4.0797,4.0797,4.0797,4.0797,4.0797,4.139,4.1738,4.1738,4.1145,4.0797,4.0797,4.0797,4.0797,4.0797,4.0797,4.1564,4.3015,4.3015,4.3827,3.7405,3.7785,3.8375,3.9906,4.0389,4.0539,4.0612,4.0726,4.0617,4.0,3.9586,0.0,0.0,0.0,0.0,0.0,0.0,0.0,0.0,0.0,0.0,0.0,0.0,0.0,0.0,0.0,0.0,0.0,0.0,0.0,0.0,0.0,0.0,0.0,3.1599,3.243,3.377,3.42,3.4839,3.5704,3.5704,3.5704,3.5704,3.5704,3.5704,3.5704,3.5704,3.4717,3.3107,3.3107,3.2353,3.1236,3.1236,3.1734,3.243,3.2043,3.2687,3.3731,3.377,3.4311,3.5095,3.5553,3.5704,3.5713,3.5743,3.5756,3.5745,3.5748,3.6828,3.7932,3.7753,3.9357,4.0779,3.9867,4.0295,4.0664,3.9821,4.0317,4.0917,4.0945,4.0953,4.0953,4.0953,4.0986,4.1,4.0961,4.0915,4.0903,4.0903,4.0903,4.0903,4.0903,4.0903,4.0903,4.0903,4.0872,4.0867,4.0898,4.1224,4.1447,4.1463,4.1432,4.1602,4.199,4.199,4.199,4.199,4.199,4.2667,4.3924,4.3924,4.4601,3.6353,3.7687,3.9229,4.0119,4.0438,4.0591,4.0752,4.0797,4.0507,3.9481,0.0,0.0,0.0,0.0,0.0,0.0,0.0,0.0,0.0,0.0,0.0,0.0,0.0,0.0,0.0,0.0,0.0,0.0,0.0,0.0,0.0,0.0,3.0598,3.0598,3.1386,3.2217,3.3088,3.3963,3.4839,3.5704,3.5704,3.5704,3.5704,3.5704,3.5704,3.5704,3.5704,3.4717,3.3107,3.3107,3.2101,3.0598,3.0598,3.1004,3.1502,3.0849,3.2024,3.3897,3.3311,3.4178,3.5524,3.5678,3.5722,3.5733,3.5774,3.5791,3.5833,3.5999,3.6877,3.789,3.8507,3.9836,4.1022,4.1022,4.1022,4.0827,4.0101,4.0496,4.0994,4.1025,4.1028,4.1011,4.1022,4.1014,4.1028,4.1028,4.1019,4.099,4.099,4.099,4.099,4.099,4.099,4.099,4.099,4.1077,4.1147,4.1208,4.1383,4.1519,4.1579,4.2359,4.3098,4.3761,4.3485,4.333,4.3335,4.3335,4.378,4.4633,4.4633,4.5079,3.6582,3.8086,3.9451,3.9605,4.0211,4.0771,4.079,0.0,4.0352,0.0,0.0,0.0,0.0,0.0,0.0,0.0,0.0,0.0,0.0,0.0,0.0,0.0,0.0,0.0,0.0,0.0,0.0,0.0,0.0,0.0,3.0598,3.0598,3.0598,3.0598,3.1386,3.2217,3.3088,3.3963,3.4839,3.5704,3.5704,3.5704,3.5704,3.5704,3.5704,3.5704,3.5704,3.4717,3.3107,3.3107,3.2101,3.0598,3.0598,3.0675,3.0752,3.0636,3.1299,3.2338,3.2975,3.3874,3.4859,3.5563,3.58,3.578,3.5808,3.5791,3.5977,3.678,3.7666,3.8572,3.9469,4.0428,4.117,4.117,4.117,4.1129,4.0953,4.0952,4.1028,4.1076,4.1081,4.1111,4.1168,4.1138,4.1081,4.1081,4.1047,4.099,4.099,4.099,4.099,4.099,4.099,4.099,4.099,4.1623,4.2022,4.2031,4.3437,4.4278,4.4289,4.5117,4.5615,4.5729,4.4246,4.3467,4.3476,4.3476,4.3922,4.4779,4.4779,4.5244,3.6654,3.7464,3.8276,3.9268,3.9791,4.0197,4.07,4.0797,4.0307,0.0,0.0,0.0,0.0,0.0,0.0,0.0,0.0,0.0,0.0,0.0,0.0,0.0,0.0,0.0,0.0,0.0,0.0,0.0,0.0,3.0598,3.0598,3.0598,3.0598,3.0598,3.0946,3.1753,3.3088,3.3523,3.441,3.5757,3.5757,3.5757,3.5757,3.5757,3.5741,3.5704,3.5704,3.4729,3.3169,3.3169,3.2175,3.0669,3.0669,3.0669,3.0727,3.1197,3.1939,3.2819,3.3676,3.455,3.5332,3.5728,3.5851,3.5857,3.5896,3.6253,3.6723,3.7142,3.8238,3.9372,3.9785,4.0527,4.1132,4.1132,4.1132,4.1132,4.1113,4.1106,4.1117,4.1146,4.1167,4.1169,4.1191,4.117,4.1304,4.1753,4.1804,4.1954,4.2447,4.2506,4.2331,4.1847,4.1789,4.1789,4.1789,4.2071,4.2481,4.3002,4.3683,4.4103,4.4184,4.4948,4.5396,4.5438,4.5116,4.4955,4.4963,4.4963,4.5158,4.5526,4.5526,4.5721,3.6439,3.6748,3.7212,3.8514,3.9017,3.9404,0.0,0.0,3.9777,0.0,0.0,0.0,0.0,0.0,0.0,0.0,0.0,0.0,0.0,0.0,0.0,0.0,0.0,0.0,0.0,0.0,0.0,0.0,0.0,3.0907,3.0907,3.0714,3.0598,3.0598,3.0819,3.1645,3.3113,3.3619,3.4504,3.5791,3.5791,3.5791,3.5791,3.5791,3.5778,3.5708,3.5495,3.4561,3.3218,3.2981,3.2026,3.0709,3.0709,3.0847,3.1101,3.1765,3.2688,3.3711,3.4376,3.5143,3.5855,3.5918,3.5924,3.5928,3.5976,3.6601,3.7343,3.7578,3.873,3.9941,4.0156,4.0643,4.1091,4.1091,4.1109,4.1107,4.1107,4.1131,4.125,4.1464,4.1503,4.1503,4.1503,4.1503,4.1718,4.2304,4.2402,4.2714,4.3591,4.3708,4.3453,4.2805,4.2727,4.2727,4.2727,4.289,4.3281,4.3995,4.4139,4.4251,4.4355,4.4899,4.5193,4.5252,4.5853,4.6152,4.6152,4.6152,4.6152,4.6152,4.6152,4.6152,3.5742,3.6323,3.6922,3.7019,3.7657,3.8495,0.0,0.0,0.0,0.0,0.0,0.0,0.0,0.0,0.0,0.0,0.0,0.0,0.0,0.0,0.0,0.0,0.0,0.0,0.0,0.0,0.0,0.0,0.0,3.1734,3.1734,3.1004,3.0598,3.0598,3.1394,3.2271,3.32,3.4844,3.5711,3.5791,3.5791,3.5791,3.5791,3.5791,3.5808,3.5744,3.492,3.4086,3.3237,3.2394,3.152,3.0709,3.0709,3.1198,3.1943,3.1982,3.3062,3.4531,3.457,3.5208,3.5996,3.5996,3.5996,3.5996,3.5995,3.662,3.7478,3.8296,3.9193,4.0073,4.0834,4.1069,4.1108,4.1108,4.1108,4.1107,4.1107,4.1108,4.1342,4.2181,4.2337,4.2337,4.2337,4.2337,4.2357,4.2396,4.2396,4.2708,4.3587,4.3704,4.3685,4.3645,4.3625,4.3625,4.3625,4.4384,4.4888,4.4926,4.5703,4.6168,4.6167,4.6207,4.6227,4.6225,4.6267,4.6287,4.6287,4.6287,4.6287,4.6287,4.6287,4.6287,3.5692,3.5915,3.626,3.6816,3.7204,3.7655,3.8523,3.8484,0.0,0.0,0.0,0.0,0.0,0.0,0.0,0.0,0.0,0.0,0.0,0.0,0.0,0.0,0.0,0.0,0.0,0.0,0.0,0.0,0.0,0.0,3.2706,3.2423,3.2295,3.2331,3.2647,3.322,3.4086,3.5266,3.5889,3.5926,3.5926,3.5928,3.593,3.593,3.5932,3.5856,3.441,3.3639,3.3298,3.2418,3.1574,3.0831,3.0831,3.1358,3.2199,3.2709,3.365,3.4745,3.5293,3.6074,3.6736,3.6189,3.6384,3.6833,3.6832,3.7437,3.8315,3.9193,4.0033,4.0736,4.1029,4.1105,4.1101,4.1098,4.1526,4.1935,4.1935,4.1922,4.2024,4.2336,4.2844,4.3235,4.3235,4.3235,4.341,4.3977,4.4074,4.4386,4.5261,4.5379,4.5142,4.459,4.4531,4.4531,4.4531,4.4821,4.523,4.5797,4.6126,4.63,4.63,4.63,4.63,4.63,4.63,4.63,4.63,4.63,4.63,4.63,4.63,4.63,3.5707,3.5708,3.5839,3.6421,3.6581,3.6836,3.7705,0.0,0.0,0.0,0.0,0.0,0.0,0.0,0.0,0.0,0.0,0.0,0.0,0.0,0.0,0.0,0.0,0.0,0.0,0.0,0.0,0.0,0.0,0.0,3.367,3.3382,3.3396,3.3721,3.3743,3.417,3.5051,3.5637,3.5954,3.5996,3.5996,3.5995,3.5994,3.5994,3.5993,3.5913,3.4467,3.3672,3.3314,3.216,3.1541,3.1308,3.1308,3.2011,3.3105,3.3631,3.4392,3.5251,3.6128,3.6811,3.7259,3.6967,3.726,3.7747,3.7746,3.835,3.9151,3.9716,4.0458,4.1102,4.1102,4.1099,4.1172,4.1461,4.1986,4.2474,4.2767,4.2833,4.2917,4.3228,4.3737,4.4147,4.4147,4.4147,4.4323,4.4909,4.5006,4.5318,4.6192,4.6309,4.6072,4.55,4.5441,4.5441,4.5441,4.5441,4.5675,4.6261,4.63,4.63,4.63,4.63,4.63,4.63,4.63,4.63,4.63,4.63,4.63,4.63,4.63,4.63,0.0,0.0,0.0,3.5679,0.0,0.0,3.6839,0.0,0.0,0.0,0.0,0.0,0.0,0.0,0.0,0.0,0.0,0.0,0.0,0.0,0.0,0.0,0.0,0.0,0.0,0.0,0.0,0.0,0.0,3.4645,3.4635,3.3841,3.3764,3.4613,3.4632,3.5071,3.5996,3.5995,3.5995,3.5995,3.5992,3.5991,3.5991,3.5991,3.5991,3.5951,3.5073,3.4213,3.3315,3.1656,3.1421,3.2143,3.2143,3.3197,3.4702,3.4721,3.5288,3.6166,3.7044,3.7356,3.7512,3.8333,3.8626,3.8645,3.864,3.9224,3.9886,3.984,4.0444,4.1109,4.1129,4.1168,4.1382,4.224,4.2454,4.2708,4.3567,4.3764,4.4016,4.4836,4.501,4.5049,4.5049,4.5049,4.5049,4.5049,4.5049,4.5343,4.6183,4.63,4.63,4.63,4.63,4.63,4.63,4.63,4.63,4.63,4.63,4.63,4.63,4.63,4.63,4.63,4.63,4.63,4.63,4.63,4.63,4.63,4.63,4.63,3.5764,0.0,0.0,0.0,0.0,0.0,0.0,0.0,0.0,0.0,0.0,0.0,0.0,0.0,0.0,0.0,0.0,0.0,0.0,0.0,0.0,0.0,0.0,0.0,0.0,0.0,0.0,0.0,3.5591,3.5488,3.555,3.5367,3.5351,3.5605,3.5605,3.5741,3.5993,3.5993,3.5992,3.5992,3.5991,3.6009,3.6006,3.6006,3.6004,3.596,3.5081,3.4555,3.4262,3.3157,3.2846,3.3041,3.3041,3.3725,3.478,3.5401,3.618,3.7059,3.7934,3.8615,3.9044,3.8714,3.8987,3.9474,3.9471,3.9647,3.9959,4.0563,4.0914,4.1246,4.1888,4.2513,4.3042,4.3274,4.3821,4.4348,4.4582,4.5148,4.546,4.509,4.5519,4.5948,4.5948,4.5948,4.5948,4.5948,4.5948,4.6027,4.6261,4.63,4.63,4.63,4.63,4.63,4.63,4.63,4.63,4.63,4.63,4.63,4.63,4.63,4.63,4.63,4.63,4.63,4.63,4.63,4.63,4.63,4.63,4.63,3.5827,3.5863,0.0,0.0,0.0,0.0,3.4608,3.4614,0.0,0.0,0.0,0.0,0.0,0.0,0.0,0.0,0.0,0.0,0.0,0.0,0.0,0.0,0.0,0.0,0.0,0.0,0.0,3.5891,3.5871,3.5894,3.5937,3.5975,3.5991,3.5991,3.5991,3.5991,3.5991,3.6009,3.6009,3.6009,3.6006,3.6003,3.6,3.6,3.5998,3.5973,3.5465,3.5232,3.5193,3.4693,3.4266,3.3935,3.3935,3.4462,3.5359,3.6215,3.6858,3.7463,3.8689,3.9409,3.978,3.9684,3.9958,4.0346,4.0346,4.0346,4.0444,4.0953,4.1363,4.1752,4.2279,4.304,4.3782,4.4153,4.4621,4.5107,4.546,4.5948,4.6144,4.5636,4.5948,4.63,4.63,4.63,4.63,4.63,4.63,4.63,4.63,4.63,4.63,4.63,4.63,4.63,4.63,4.63,4.63,4.63,4.63,4.63,4.63,4.63,4.63,4.63,4.63,4.63,4.63,4.63,4.63,4.63,4.63,4.63,0.0,3.5908,0.0,0.0,0.0,0.0,3.4502,3.4509,3.4531,0.0,0.0,0.0,0.0,0.0,0.0,0.0,0.0,0.0,0.0,0.0,0.0,0.0,0.0,0.0,0.0,3.5992,3.5995,3.6002,3.6003,3.6005,3.6009,3.6009,3.6009,3.6009,3.6009,3.6009,3.6009,3.6005,3.6003,3.6003,3.5996,3.5992,3.5992,3.5992,3.5992,3.5992,3.5992,3.5992,3.5992,3.5992,3.5543,3.4842,3.4959,3.5467,3.6265,3.7223,3.7575,3.7809,3.939,3.9937,4.0073,4.0855,4.1109,4.1109,4.1109,4.1109,4.1109,4.1109,4.1791,4.2533,4.2533,4.3255,4.4172,4.4953,4.5148,4.5363,4.6124,4.63,4.63,4.63,4.63,4.63,4.63,4.63,4.63,4.63,4.63,4.63,4.63,4.63,4.63,4.63,4.63,4.63,4.63,4.63,4.63,4.63,4.63,4.63,4.63,4.63,4.63,4.63,4.63,4.63,4.63,4.63,4.63,4.63,4.63,4.63,0.0,0.0,0.0,0.0,0.0,0.0,3.38,3.3642,3.3659,0.0,0.0,0.0,0.0,0.0,0.0,0.0,0.0,0.0,0.0,0.0,0.0,0.0,0.0,0.0,0.0,3.5992,3.5992,3.5995,3.5995,3.5995,3.5996,3.5996,3.5996,3.5996,3.5996,3.5996,3.5996,3.5995,3.5995,3.5995,3.5994,3.5992,3.5992,3.5992,3.5992,3.5992,3.5992,3.5992,3.5992,3.5992,3.5895,3.5817,3.6521,3.6891,3.7223,3.8746,3.9312,3.9468,4.0483,4.0855,4.0875,4.1031,4.1109,4.1109,4.1109,4.1109,4.1109,4.1109,4.2222,4.345,4.345,4.4602,4.5831,4.6007,4.6046,4.6085,4.6261,4.63,4.63,4.63,4.63,4.63,4.63,4.63,4.63,4.63,4.63,4.63,4.63,4.63,4.63,4.63,4.63,4.63,4.63,4.63,4.63,4.63,4.63,4.63,4.63,4.63,4.63,4.63,4.63,4.63,4.63,4.63,4.63,4.63,4.63,4.63,0.0,0.0,0.0,3.545,0.0,0.0,0.0,3.4042,3.4042,3.4042,0.0,0.0,0.0,0.0,0.0,0.0,0.0,0.0,0.0,0.0,0.0,0.0,0.0,0.0,0.0,3.5992,3.5992,3.5992,3.5992,3.5992,3.5992,3.5992,3.5992,3.5992,3.5992,3.6207,3.6636,3.6656,3.6656,3.6656,3.6656,3.6422,3.5992,3.5992,3.5992,3.5992,3.5992,3.6246,3.6656,3.6656,3.6891,3.7301,3.7301,3.7575,3.8103,3.9331,3.98,3.9917,4.0797,4.1109,4.1109,4.1109,4.1109,4.1109,4.1109,4.1402,4.1752,4.1752,4.3001,4.4348,4.4348,4.5324,4.63,4.63,4.63,4.63,4.63,4.63,4.63,4.63,4.63,4.63,4.63,4.63,4.63,4.63,4.63,4.63,4.63,4.63,4.63,4.63,4.63,4.63,4.63,4.63,4.63,4.63,4.63,4.63,4.63,4.63,4.63,4.63,4.63,4.63,4.63,4.63,4.63,4.63,4.63,4.63,0.0,0.0,0.0,0.0,0.0,3.4901,0.0,0.0,0.0,3.4471,0.0,0.0,0.0,0.0,0.0,0.0,0.0,0.0,0.0,0.0,0.0,0.0,0.0,0.0,0.0,3.5992,3.5992,3.5992,3.5992,3.5992,3.5992,3.5992,3.607,3.6246,3.6246,3.6677,3.7536,3.7555,3.7555,3.7555,3.7379,3.6931,3.6246,3.607,3.609,3.6246,3.6246,3.6735,3.7555,3.7555,3.8064,3.8767,3.8063,3.8219,3.8923,3.9741,4.0054,4.0151,4.0855,4.1109,4.1109,4.1109,4.1109,4.1109,4.1109,4.1713,4.2396,4.2396,4.3665,4.499,4.499,4.5656,4.63,4.63,4.63,4.63,4.63,4.63,4.63,4.63,4.63,4.63,4.63,4.63,4.63,4.63,4.63,4.63,4.63,4.63,4.63,4.63,4.63,4.63,4.63,4.63,4.63,4.63,4.63,4.63,4.63,4.63,4.63,4.63,4.63,4.63,4.63,4.63,4.63,4.63,4.63,4.63,0.0,0.0,0.0,0.0,3.5934,0.0,0.0,0.0,3.4471,3.3709,0.0,0.0,0.0,0.0,0.0,0.0,0.0,0.0,0.0,0.0,0.0,0.0,0.0,0.0,0.0,0.0,3.5992,3.5992,3.5992,3.5992,3.5992,3.5992,3.6344,3.7126,3.7145,3.7575,3.8435,3.8454,3.8454,3.8435,3.7672,3.7243,3.7126,3.6344,3.6422,3.7145,3.7145,3.7653,3.8454,3.8454,3.8923,3.9644,3.9546,3.9585,3.9761,4.062,4.0953,4.0973,4.107,4.1109,4.1109,4.1109,4.1109,4.1109,4.1109,4.1713,4.2396,4.2396,4.3665,4.499,4.499,4.5656,4.63,4.63,4.63,4.63,4.63,4.63,4.63,4.63,4.63,4.63,4.63,4.63,4.63,4.63,4.63,4.63,4.63,4.63,4.63,4.63,4.63,4.63,4.63,4.63,4.63,4.63,4.63,4.63,4.63,4.63,4.63,4.63,4.63,4.63,4.63,4.63,4.63,4.63,4.63,4.63,0.0,0.0,0.0,0.0,0.0,0.0,3.5543,0.0,3.5348,0.0,0.0,0.0,0.0,0.0,0.0,0.0,0.0,0.0,0.0,0.0,0.0,0.0,0.0,0.0,0.0,0.0,0.0,0.0,0.0,3.5992,3.5992,3.648,3.6911,3.7282,3.7789,3.8454,3.9292,3.9292,3.9292,3.9292,3.8921,3.8512,3.8045,3.7672,3.7711,3.8045,3.8045,3.8533,3.9292,3.9292,3.978,4.0542,4.0542,4.0542,4.06,4.0973,4.1109,4.1109,4.1109,4.1109,4.1109,4.1109,4.1439,4.1849,4.1849,4.2825,4.3917,4.3917,4.4738,4.566,4.5728,4.5908,4.6105,4.6269,4.6178,4.6105,4.6271,4.6243,4.6211,4.6277,4.63,4.63,4.63,4.63,4.63,4.63,4.63,4.63,4.63,4.63,4.63,4.63,4.63,4.63,4.63,4.63,4.63,4.63,4.63,4.63,4.63,4.63,4.63,4.63,4.63,4.63,4.63,4.63,4.63,4.63,4.63,4.63,3.5995,0.0,0.0,0.0,0.0,0.0,0.0,0.0,0.0,0.0,0.0,0.0,0.0,0.0,0.0,0.0,0.0,0.0,0.0,0.0,0.0,0.0,0.0,0.0,0.0,0.0,0.0,0.0,3.6148,3.5992,3.5992,3.6833,3.7419,3.7653,3.8474,3.9313,4.0151,4.0151,4.0151,4.0151,3.9917,3.9488,3.8923,3.8708,3.8728,3.8923,3.8923,3.939,4.0151,4.0151,4.0522,4.1109,4.1109,4.1109,4.1109,4.1109,4.1109,4.1109,4.1109,4.1109,4.1148,4.1382,4.1862,4.2397,4.2631,4.3734,4.4891,4.4891,4.5446,4.6061,4.6173,4.6049,4.594,4.6144,4.6045,4.5945,4.6144,4.6109,4.6064,4.6176,4.6184,4.6184,4.6184,4.6247,4.63,4.63,4.63,4.63,4.63,4.63,4.63,4.63,4.63,4.63,4.63,4.63,4.63,4.63,4.63,4.63,4.63,4.63,4.63,4.63,4.63,4.63,4.63,4.63,4.63,4.63,4.63,4.63,0.0,0.0,0.0,3.5992,0.0,0.0,0.0,0.0,3.5992,0.0,0.0,0.0,0.0,0.0,0.0,3.4861,0.0,0.0,0.0,0.0,0.0,0.0,0.0,0.0,0.0,0.0,0.0,3.7262,3.648,3.5992,3.5992,3.6833,3.7692,3.8533,3.9331,4.0171,4.1051,4.1051,4.1051,4.1051,4.019,3.98,3.9741,3.8962,3.9021,3.9761,3.9761,4.0249,4.1051,4.1051,4.107,4.1109,4.1109,4.1109,4.1109,4.1109,4.1109,4.1109,4.1109,4.1109,4.1246,4.2084,4.2286,4.2351,4.3211,4.3996,4.4617,4.4617,4.5244,4.591,4.591,4.591,4.5905,4.591,4.5905,4.5905,4.591,4.591,4.591,4.591,4.5915,4.5915,4.5915,4.6135,4.63,4.63,4.63,4.63,4.63,4.63,4.63,4.63,4.63,4.63,4.63,4.63,4.63,4.63,4.63,4.63,4.63,4.63,4.63,4.63,4.63,4.63,4.63,4.63,4.63,4.63,4.63,4.63,0.0,0.0,3.5995,3.5994,0.0,0.0,0.0,0.0,0.0,0.0,0.0,0.0,0.0,0.0,3.5895,3.5602,3.5817,0.0,0.0,0.0,0.0,0.0,0.0,0.0,0.0,0.0,0.0,3.648,3.6168,3.5992,0.0,3.7379,3.8298,3.8591,3.9938,4.0797,4.1109,4.1109,4.1109,4.1109,4.0797,4.0659,4.0659,4.0387,4.0406,4.0659,4.0659,4.0836,4.1109,4.1109,4.1074,4.1025,4.1025,4.098,4.0912,4.1051,4.1072,4.102,4.0938,4.0901,4.1057,4.1929,4.2568,4.3145,4.3981,4.4793,4.5453,4.5453,4.565,4.5841,4.5883,4.5796,4.574,4.5867,4.5796,4.5747,4.5867,4.5877,4.5847,4.5889,4.5899,4.5899,4.5899,4.5983,4.6061,4.6147,4.6243,4.63,4.63,4.63,4.63,4.63,4.63,4.63,4.63,4.63,4.63,4.63,4.63,4.6554,4.7139,4.7159,4.7412,4.7939,4.7959,4.7959,4.7959,4.7959,4.7959,4.7959,4.7959,4.7354,3.5996,3.5996,0.0,3.5995,3.5994,0.0,3.6009,0.0,0.0,0.0,0.0,0.0,0.0,0.0,0.0,3.5992,3.5992,3.5992,0.0,3.5992,0.0,0.0,0.0,0.0,0.0,0.0,3.7399,3.6539,3.6187,3.5992,0.0,0.0,3.8591,3.8591,4.0231,4.1109,4.1109,4.1109,4.1109,4.1109,4.1109,4.1109,4.1109,4.1109,4.1109,4.1109,4.1109,4.1081,4.1068,4.1068,4.1017,4.0933,4.0933,4.0882,4.0824,4.0951,4.0977,4.0964,4.1178,4.1252,4.1446,4.2607,4.3358,4.3945,4.4779,4.5395,4.579,4.579,4.5761,4.5749,4.5783,4.57,4.5635,4.5763,4.57,4.5635,4.5769,4.5754,4.573,4.577,4.579,4.579,4.579,4.5828,4.5897,4.6005,4.6102,4.6176,4.6216,4.6238,4.6238,4.6238,4.6273,4.6436,4.6749,4.6768,4.6885,4.7178,4.7198,4.7432,4.7998,4.8037,4.8271,4.8798,4.8798,4.8798,4.8798,4.8798,4.8798,4.8798,4.8798,4.8213]}]]